<?xml version="1.0" encoding="UTF-8" standalone="no" ?>
<gpx xmlns="http://www.topografix.com/GPX/1/1" xmlns:xsi="http://www.w3.org/2001/XMLSchema-instance" xsi:schemaLocation="http://www.topografix.com/GPX/1/1 http://www.topografix.com/GPX/1/1/gpx.xsd" version="1.1" creator="VisuGPX - https://www.visugpx.com">
  <metadata>
    <name>Pointe d\\\'Areu</name>
    <desc><![CDATA[Soleil bonne neige froid sur la crete et sommet
]]></desc>
  </metadata>
  <trk>
    <name><![CDATA[Pointe d'Areu 05/03/2011]]></name>
    <trkseg>
      <trkpt lat="46.01653" lon="6.56099">
        <ele>1295.99</ele>
        <time>2011-03-05T06:12:23Z</time>
      </trkpt>
      <trkpt lat="46.01653" lon="6.56099">
        <ele>1295.99</ele>
        <time>2011-03-05T06:12:38Z</time>
      </trkpt>
      <trkpt lat="46.01653" lon="6.56099">
        <ele>1295.99</ele>
        <time>2011-03-05T06:12:52Z</time>
      </trkpt>
      <trkpt lat="46.01653" lon="6.56099">
        <ele>1295.99</ele>
        <time>2011-03-05T06:13:09Z</time>
      </trkpt>
      <trkpt lat="46.01653" lon="6.56099">
        <ele>1295.99</ele>
        <time>2011-03-05T06:13:29Z</time>
      </trkpt>
      <trkpt lat="46.01653" lon="6.56099">
        <ele>1295.51</ele>
        <time>2011-03-05T06:13:49Z</time>
      </trkpt>
      <trkpt lat="46.01653" lon="6.561">
        <ele>1295.51</ele>
        <time>2011-03-05T06:14:03Z</time>
      </trkpt>
      <trkpt lat="46.01652" lon="6.56101">
        <ele>1295.03</ele>
        <time>2011-03-05T06:14:18Z</time>
      </trkpt>
      <trkpt lat="46.01643" lon="6.56103">
        <ele>1294.55</ele>
        <time>2011-03-05T06:14:31Z</time>
      </trkpt>
      <trkpt lat="46.01643" lon="6.56103">
        <ele>1294.55</ele>
        <time>2011-03-05T06:14:50Z</time>
      </trkpt>
      <trkpt lat="46.01643" lon="6.56103">
        <ele>1294.07</ele>
        <time>2011-03-05T06:15:12Z</time>
      </trkpt>
      <trkpt lat="46.01643" lon="6.56103">
        <ele>1294.07</ele>
        <time>2011-03-05T06:15:33Z</time>
      </trkpt>
      <trkpt lat="46.01643" lon="6.56103">
        <ele>1294.07</ele>
        <time>2011-03-05T06:15:51Z</time>
      </trkpt>
      <trkpt lat="46.01635" lon="6.56101">
        <ele>1294.55</ele>
        <time>2011-03-05T06:16:06Z</time>
      </trkpt>
      <trkpt lat="46.01628" lon="6.56101">
        <ele>1294.55</ele>
        <time>2011-03-05T06:16:14Z</time>
      </trkpt>
      <trkpt lat="46.0162" lon="6.56101">
        <ele>1294.55</ele>
        <time>2011-03-05T06:16:30Z</time>
      </trkpt>
      <trkpt lat="46.01619" lon="6.56101">
        <ele>1294.55</ele>
        <time>2011-03-05T06:16:31Z</time>
      </trkpt>
      <trkpt lat="46.01616" lon="6.561">
        <ele>1295.03</ele>
        <time>2011-03-05T06:16:34Z</time>
      </trkpt>
      <trkpt lat="46.01612" lon="6.561">
        <ele>1295.99</ele>
        <time>2011-03-05T06:16:36Z</time>
      </trkpt>
      <trkpt lat="46.01598" lon="6.56101">
        <ele>1297.44</ele>
        <time>2011-03-05T06:16:46Z</time>
      </trkpt>
      <trkpt lat="46.01597" lon="6.56101">
        <ele>1297.92</ele>
        <time>2011-03-05T06:16:49Z</time>
      </trkpt>
      <trkpt lat="46.01584" lon="6.56102">
        <ele>1299.36</ele>
        <time>2011-03-05T06:17:01Z</time>
      </trkpt>
      <trkpt lat="46.01569" lon="6.56103">
        <ele>1300.8</ele>
        <time>2011-03-05T06:17:15Z</time>
      </trkpt>
      <trkpt lat="46.01552" lon="6.56106">
        <ele>1302.24</ele>
        <time>2011-03-05T06:17:30Z</time>
      </trkpt>
      <trkpt lat="46.01549" lon="6.56106">
        <ele>1301.76</ele>
        <time>2011-03-05T06:17:32Z</time>
      </trkpt>
      <trkpt lat="46.01535" lon="6.56096">
        <ele>1302.72</ele>
        <time>2011-03-05T06:17:47Z</time>
      </trkpt>
      <trkpt lat="46.01527" lon="6.5609">
        <ele>1302.24</ele>
        <time>2011-03-05T06:17:54Z</time>
      </trkpt>
      <trkpt lat="46.01525" lon="6.56089">
        <ele>1302.24</ele>
        <time>2011-03-05T06:17:56Z</time>
      </trkpt>
      <trkpt lat="46.01501" lon="6.56082">
        <ele>1305.61</ele>
        <time>2011-03-05T06:18:10Z</time>
      </trkpt>
      <trkpt lat="46.01477" lon="6.56085">
        <ele>1307.05</ele>
        <time>2011-03-05T06:18:22Z</time>
      </trkpt>
      <trkpt lat="46.01451" lon="6.56089">
        <ele>1310.9</ele>
        <time>2011-03-05T06:18:38Z</time>
      </trkpt>
      <trkpt lat="46.01441" lon="6.56078">
        <ele>1311.86</ele>
        <time>2011-03-05T06:18:52Z</time>
      </trkpt>
      <trkpt lat="46.01425" lon="6.56075">
        <ele>1312.34</ele>
        <time>2011-03-05T06:19:04Z</time>
      </trkpt>
      <trkpt lat="46.01422" lon="6.56074">
        <ele>1311.38</ele>
        <time>2011-03-05T06:19:07Z</time>
      </trkpt>
      <trkpt lat="46.01412" lon="6.5606">
        <ele>1307.53</ele>
        <time>2011-03-05T06:19:22Z</time>
      </trkpt>
      <trkpt lat="46.01411" lon="6.56056">
        <ele>1303.69</ele>
        <time>2011-03-05T06:19:26Z</time>
      </trkpt>
      <trkpt lat="46.01398" lon="6.56039">
        <ele>1291.67</ele>
        <time>2011-03-05T06:19:39Z</time>
      </trkpt>
      <trkpt lat="46.01391" lon="6.56037">
        <ele>1289.75</ele>
        <time>2011-03-05T06:19:45Z</time>
      </trkpt>
      <trkpt lat="46.01368" lon="6.56036">
        <ele>1287.82</ele>
        <time>2011-03-05T06:19:57Z</time>
      </trkpt>
      <trkpt lat="46.0135" lon="6.56027">
        <ele>1290.23</ele>
        <time>2011-03-05T06:20:09Z</time>
      </trkpt>
      <trkpt lat="46.01334" lon="6.56025">
        <ele>1290.23</ele>
        <time>2011-03-05T06:20:23Z</time>
      </trkpt>
      <trkpt lat="46.01333" lon="6.56025">
        <ele>1289.75</ele>
        <time>2011-03-05T06:20:24Z</time>
      </trkpt>
      <trkpt lat="46.01331" lon="6.56023">
        <ele>1289.27</ele>
        <time>2011-03-05T06:20:26Z</time>
      </trkpt>
      <trkpt lat="46.01319" lon="6.56015">
        <ele>1285.42</ele>
        <time>2011-03-05T06:20:39Z</time>
      </trkpt>
      <trkpt lat="46.01303" lon="6.56009">
        <ele>1281.57</ele>
        <time>2011-03-05T06:20:54Z</time>
      </trkpt>
      <trkpt lat="46.01301" lon="6.56008">
        <ele>1280.61</ele>
        <time>2011-03-05T06:20:57Z</time>
      </trkpt>
      <trkpt lat="46.01294" lon="6.56003">
        <ele>1279.65</ele>
        <time>2011-03-05T06:21:04Z</time>
      </trkpt>
      <trkpt lat="46.01277" lon="6.55991">
        <ele>1279.65</ele>
        <time>2011-03-05T06:21:19Z</time>
      </trkpt>
      <trkpt lat="46.01276" lon="6.55989">
        <ele>1279.65</ele>
        <time>2011-03-05T06:21:21Z</time>
      </trkpt>
      <trkpt lat="46.01266" lon="6.55984">
        <ele>1283.98</ele>
        <time>2011-03-05T06:21:29Z</time>
      </trkpt>
      <trkpt lat="46.01245" lon="6.55974">
        <ele>1290.23</ele>
        <time>2011-03-05T06:21:43Z</time>
      </trkpt>
      <trkpt lat="46.01238" lon="6.55968">
        <ele>1291.67</ele>
        <time>2011-03-05T06:21:54Z</time>
      </trkpt>
      <trkpt lat="46.0123" lon="6.55961">
        <ele>1293.59</ele>
        <time>2011-03-05T06:22:09Z</time>
      </trkpt>
      <trkpt lat="46.0123" lon="6.55961">
        <ele>1293.59</ele>
        <time>2011-03-05T06:22:10Z</time>
      </trkpt>
      <trkpt lat="46.01229" lon="6.55956">
        <ele>1294.55</ele>
        <time>2011-03-05T06:22:14Z</time>
      </trkpt>
      <trkpt lat="46.0123" lon="6.55944">
        <ele>1296.48</ele>
        <time>2011-03-05T06:22:26Z</time>
      </trkpt>
      <trkpt lat="46.0123" lon="6.55942">
        <ele>1297.44</ele>
        <time>2011-03-05T06:22:28Z</time>
      </trkpt>
      <trkpt lat="46.01229" lon="6.55937">
        <ele>1297.44</ele>
        <time>2011-03-05T06:22:32Z</time>
      </trkpt>
      <trkpt lat="46.01223" lon="6.55917">
        <ele>1298.88</ele>
        <time>2011-03-05T06:22:48Z</time>
      </trkpt>
      <trkpt lat="46.01222" lon="6.5591">
        <ele>1299.84</ele>
        <time>2011-03-05T06:22:53Z</time>
      </trkpt>
      <trkpt lat="46.01219" lon="6.55895">
        <ele>1300.32</ele>
        <time>2011-03-05T06:23:06Z</time>
      </trkpt>
      <trkpt lat="46.0122" lon="6.55884">
        <ele>1301.28</ele>
        <time>2011-03-05T06:23:13Z</time>
      </trkpt>
      <trkpt lat="46.01223" lon="6.55867">
        <ele>1305.61</ele>
        <time>2011-03-05T06:23:27Z</time>
      </trkpt>
      <trkpt lat="46.01224" lon="6.55865">
        <ele>1305.61</ele>
        <time>2011-03-05T06:23:28Z</time>
      </trkpt>
      <trkpt lat="46.01226" lon="6.55861">
        <ele>1306.09</ele>
        <time>2011-03-05T06:23:31Z</time>
      </trkpt>
      <trkpt lat="46.01222" lon="6.55842">
        <ele>1305.61</ele>
        <time>2011-03-05T06:23:43Z</time>
      </trkpt>
      <trkpt lat="46.0122" lon="6.55831">
        <ele>1307.05</ele>
        <time>2011-03-05T06:23:50Z</time>
      </trkpt>
      <trkpt lat="46.0122" lon="6.55828">
        <ele>1307.53</ele>
        <time>2011-03-05T06:23:52Z</time>
      </trkpt>
      <trkpt lat="46.01215" lon="6.55816">
        <ele>1307.05</ele>
        <time>2011-03-05T06:24:02Z</time>
      </trkpt>
      <trkpt lat="46.01197" lon="6.55814">
        <ele>1307.05</ele>
        <time>2011-03-05T06:24:18Z</time>
      </trkpt>
      <trkpt lat="46.01194" lon="6.55812">
        <ele>1307.53</ele>
        <time>2011-03-05T06:24:22Z</time>
      </trkpt>
      <trkpt lat="46.01177" lon="6.55817">
        <ele>1311.38</ele>
        <time>2011-03-05T06:24:31Z</time>
      </trkpt>
      <trkpt lat="46.01174" lon="6.55822">
        <ele>1311.38</ele>
        <time>2011-03-05T06:24:35Z</time>
      </trkpt>
      <trkpt lat="46.01153" lon="6.55828">
        <ele>1314.26</ele>
        <time>2011-03-05T06:24:47Z</time>
      </trkpt>
      <trkpt lat="46.01136" lon="6.55846">
        <ele>1315.7</ele>
        <time>2011-03-05T06:25:03Z</time>
      </trkpt>
      <trkpt lat="46.01131" lon="6.55849">
        <ele>1317.14</ele>
        <time>2011-03-05T06:25:09Z</time>
      </trkpt>
      <trkpt lat="46.01128" lon="6.55852">
        <ele>1318.59</ele>
        <time>2011-03-05T06:25:12Z</time>
      </trkpt>
      <trkpt lat="46.01122" lon="6.55865">
        <ele>1321.95</ele>
        <time>2011-03-05T06:25:27Z</time>
      </trkpt>
      <trkpt lat="46.01122" lon="6.55869">
        <ele>1322.43</ele>
        <time>2011-03-05T06:25:30Z</time>
      </trkpt>
      <trkpt lat="46.01118" lon="6.55889">
        <ele>1322.43</ele>
        <time>2011-03-05T06:25:42Z</time>
      </trkpt>
      <trkpt lat="46.01115" lon="6.55901">
        <ele>1324.35</ele>
        <time>2011-03-05T06:25:49Z</time>
      </trkpt>
      <trkpt lat="46.01115" lon="6.55917">
        <ele>1328.2</ele>
        <time>2011-03-05T06:26:00Z</time>
      </trkpt>
      <trkpt lat="46.01116" lon="6.55922">
        <ele>1328.68</ele>
        <time>2011-03-05T06:26:04Z</time>
      </trkpt>
      <trkpt lat="46.01117" lon="6.5593">
        <ele>1330.6</ele>
        <time>2011-03-05T06:26:10Z</time>
      </trkpt>
      <trkpt lat="46.01119" lon="6.5595">
        <ele>1331.08</ele>
        <time>2011-03-05T06:26:22Z</time>
      </trkpt>
      <trkpt lat="46.01118" lon="6.5595">
        <ele>1330.6</ele>
        <time>2011-03-05T06:26:33Z</time>
      </trkpt>
      <trkpt lat="46.01117" lon="6.55945">
        <ele>1330.6</ele>
        <time>2011-03-05T06:26:37Z</time>
      </trkpt>
      <trkpt lat="46.01117" lon="6.55941">
        <ele>1331.08</ele>
        <time>2011-03-05T06:26:40Z</time>
      </trkpt>
      <trkpt lat="46.01115" lon="6.55919">
        <ele>1331.56</ele>
        <time>2011-03-05T06:26:55Z</time>
      </trkpt>
      <trkpt lat="46.01106" lon="6.55906">
        <ele>1333.49</ele>
        <time>2011-03-05T06:27:09Z</time>
      </trkpt>
      <trkpt lat="46.01094" lon="6.55898">
        <ele>1333.97</ele>
        <time>2011-03-05T06:27:25Z</time>
      </trkpt>
      <trkpt lat="46.01087" lon="6.55887">
        <ele>1335.89</ele>
        <time>2011-03-05T06:27:36Z</time>
      </trkpt>
      <trkpt lat="46.01081" lon="6.55875">
        <ele>1338.77</ele>
        <time>2011-03-05T06:27:48Z</time>
      </trkpt>
      <trkpt lat="46.01072" lon="6.55862">
        <ele>1341.18</ele>
        <time>2011-03-05T06:28:01Z</time>
      </trkpt>
      <trkpt lat="46.01072" lon="6.5586">
        <ele>1341.66</ele>
        <time>2011-03-05T06:28:03Z</time>
      </trkpt>
      <trkpt lat="46.01064" lon="6.55846">
        <ele>1343.1</ele>
        <time>2011-03-05T06:28:17Z</time>
      </trkpt>
      <trkpt lat="46.01054" lon="6.55836">
        <ele>1345.02</ele>
        <time>2011-03-05T06:28:28Z</time>
      </trkpt>
      <trkpt lat="46.01045" lon="6.55825">
        <ele>1347.43</ele>
        <time>2011-03-05T06:28:41Z</time>
      </trkpt>
      <trkpt lat="46.0104" lon="6.5582">
        <ele>1350.31</ele>
        <time>2011-03-05T06:28:48Z</time>
      </trkpt>
      <trkpt lat="46.01035" lon="6.55818">
        <ele>1351.27</ele>
        <time>2011-03-05T06:28:53Z</time>
      </trkpt>
      <trkpt lat="46.01019" lon="6.55809">
        <ele>1352.23</ele>
        <time>2011-03-05T06:29:08Z</time>
      </trkpt>
      <trkpt lat="46.01017" lon="6.55808">
        <ele>1352.71</ele>
        <time>2011-03-05T06:29:10Z</time>
      </trkpt>
      <trkpt lat="46.01005" lon="6.55795">
        <ele>1355.6</ele>
        <time>2011-03-05T06:29:26Z</time>
      </trkpt>
      <trkpt lat="46.01001" lon="6.55784">
        <ele>1358</ele>
        <time>2011-03-05T06:29:37Z</time>
      </trkpt>
      <trkpt lat="46.00991" lon="6.55772">
        <ele>1362.33</ele>
        <time>2011-03-05T06:29:52Z</time>
      </trkpt>
      <trkpt lat="46.00988" lon="6.55768">
        <ele>1362.33</ele>
        <time>2011-03-05T06:29:56Z</time>
      </trkpt>
      <trkpt lat="46.00975" lon="6.55757">
        <ele>1364.25</ele>
        <time>2011-03-05T06:30:11Z</time>
      </trkpt>
      <trkpt lat="46.00968" lon="6.55747">
        <ele>1369.05</ele>
        <time>2011-03-05T06:30:25Z</time>
      </trkpt>
      <trkpt lat="46.0097" lon="6.55743">
        <ele>1370.5</ele>
        <time>2011-03-05T06:30:30Z</time>
      </trkpt>
      <trkpt lat="46.00976" lon="6.55728">
        <ele>1373.38</ele>
        <time>2011-03-05T06:30:43Z</time>
      </trkpt>
      <trkpt lat="46.0098" lon="6.55712">
        <ele>1375.78</ele>
        <time>2011-03-05T06:30:55Z</time>
      </trkpt>
      <trkpt lat="46.00983" lon="6.55696">
        <ele>1377.71</ele>
        <time>2011-03-05T06:31:08Z</time>
      </trkpt>
      <trkpt lat="46.00987" lon="6.55683">
        <ele>1378.19</ele>
        <time>2011-03-05T06:31:19Z</time>
      </trkpt>
      <trkpt lat="46.00987" lon="6.55677">
        <ele>1378.19</ele>
        <time>2011-03-05T06:31:23Z</time>
      </trkpt>
      <trkpt lat="46.00976" lon="6.55671">
        <ele>1379.15</ele>
        <time>2011-03-05T06:31:33Z</time>
      </trkpt>
      <trkpt lat="46.0097" lon="6.55671">
        <ele>1380.11</ele>
        <time>2011-03-05T06:31:40Z</time>
      </trkpt>
      <trkpt lat="46.00955" lon="6.55663">
        <ele>1383.47</ele>
        <time>2011-03-05T06:31:56Z</time>
      </trkpt>
      <trkpt lat="46.00948" lon="6.55661">
        <ele>1385.4</ele>
        <time>2011-03-05T06:32:10Z</time>
      </trkpt>
      <trkpt lat="46.00945" lon="6.55655">
        <ele>1386.84</ele>
        <time>2011-03-05T06:32:16Z</time>
      </trkpt>
      <trkpt lat="46.00941" lon="6.55633">
        <ele>1391.17</ele>
        <time>2011-03-05T06:32:33Z</time>
      </trkpt>
      <trkpt lat="46.00942" lon="6.55631">
        <ele>1391.65</ele>
        <time>2011-03-05T06:32:34Z</time>
      </trkpt>
      <trkpt lat="46.00938" lon="6.55618">
        <ele>1393.09</ele>
        <time>2011-03-05T06:32:47Z</time>
      </trkpt>
      <trkpt lat="46.00937" lon="6.55604">
        <ele>1394.05</ele>
        <time>2011-03-05T06:32:58Z</time>
      </trkpt>
      <trkpt lat="46.0094" lon="6.55601">
        <ele>1395.01</ele>
        <time>2011-03-05T06:33:01Z</time>
      </trkpt>
      <trkpt lat="46.00941" lon="6.55596">
        <ele>1395.97</ele>
        <time>2011-03-05T06:33:04Z</time>
      </trkpt>
      <trkpt lat="46.00937" lon="6.5558">
        <ele>1397.89</ele>
        <time>2011-03-05T06:33:18Z</time>
      </trkpt>
      <trkpt lat="46.00924" lon="6.55581">
        <ele>1398.37</ele>
        <time>2011-03-05T06:33:27Z</time>
      </trkpt>
      <trkpt lat="46.00915" lon="6.55584">
        <ele>1399.34</ele>
        <time>2011-03-05T06:33:31Z</time>
      </trkpt>
      <trkpt lat="46.00907" lon="6.55593">
        <ele>1401.26</ele>
        <time>2011-03-05T06:33:39Z</time>
      </trkpt>
      <trkpt lat="46.00898" lon="6.55613">
        <ele>1405.58</ele>
        <time>2011-03-05T06:33:54Z</time>
      </trkpt>
      <trkpt lat="46.00894" lon="6.55625">
        <ele>1409.91</ele>
        <time>2011-03-05T06:34:05Z</time>
      </trkpt>
      <trkpt lat="46.00892" lon="6.55635">
        <ele>1409.91</ele>
        <time>2011-03-05T06:34:10Z</time>
      </trkpt>
      <trkpt lat="46.00892" lon="6.55648">
        <ele>1410.39</ele>
        <time>2011-03-05T06:34:23Z</time>
      </trkpt>
      <trkpt lat="46.00891" lon="6.55649">
        <ele>1410.39</ele>
        <time>2011-03-05T06:34:24Z</time>
      </trkpt>
      <trkpt lat="46.00884" lon="6.55658">
        <ele>1413.76</ele>
        <time>2011-03-05T06:34:34Z</time>
      </trkpt>
      <trkpt lat="46.00877" lon="6.55669">
        <ele>1416.64</ele>
        <time>2011-03-05T06:34:46Z</time>
      </trkpt>
      <trkpt lat="46.00872" lon="6.55669">
        <ele>1419.52</ele>
        <time>2011-03-05T06:34:57Z</time>
      </trkpt>
      <trkpt lat="46.00877" lon="6.55659">
        <ele>1421.45</ele>
        <time>2011-03-05T06:35:09Z</time>
      </trkpt>
      <trkpt lat="46.00878" lon="6.55657">
        <ele>1421.93</ele>
        <time>2011-03-05T06:35:11Z</time>
      </trkpt>
      <trkpt lat="46.00883" lon="6.55631">
        <ele>1424.33</ele>
        <time>2011-03-05T06:35:26Z</time>
      </trkpt>
      <trkpt lat="46.00884" lon="6.55615">
        <ele>1427.7</ele>
        <time>2011-03-05T06:35:39Z</time>
      </trkpt>
      <trkpt lat="46.00877" lon="6.55598">
        <ele>1428.66</ele>
        <time>2011-03-05T06:35:52Z</time>
      </trkpt>
      <trkpt lat="46.00872" lon="6.5558">
        <ele>1429.14</ele>
        <time>2011-03-05T06:36:06Z</time>
      </trkpt>
      <trkpt lat="46.0087" lon="6.55566">
        <ele>1430.1</ele>
        <time>2011-03-05T06:36:18Z</time>
      </trkpt>
      <trkpt lat="46.00867" lon="6.55554">
        <ele>1428.66</ele>
        <time>2011-03-05T06:36:30Z</time>
      </trkpt>
      <trkpt lat="46.00866" lon="6.55549">
        <ele>1428.66</ele>
        <time>2011-03-05T06:36:35Z</time>
      </trkpt>
      <trkpt lat="46.00854" lon="6.55546">
        <ele>1428.18</ele>
        <time>2011-03-05T06:36:46Z</time>
      </trkpt>
      <trkpt lat="46.00845" lon="6.55556">
        <ele>1428.66</ele>
        <time>2011-03-05T06:36:54Z</time>
      </trkpt>
      <trkpt lat="46.0084" lon="6.5557">
        <ele>1431.54</ele>
        <time>2011-03-05T06:37:06Z</time>
      </trkpt>
      <trkpt lat="46.00834" lon="6.55588">
        <ele>1432.02</ele>
        <time>2011-03-05T06:37:20Z</time>
      </trkpt>
      <trkpt lat="46.00832" lon="6.55608">
        <ele>1433.94</ele>
        <time>2011-03-05T06:37:33Z</time>
      </trkpt>
      <trkpt lat="46.00831" lon="6.55612">
        <ele>1434.42</ele>
        <time>2011-03-05T06:37:36Z</time>
      </trkpt>
      <trkpt lat="46.0083" lon="6.55617">
        <ele>1435.87</ele>
        <time>2011-03-05T06:37:41Z</time>
      </trkpt>
      <trkpt lat="46.00827" lon="6.55628">
        <ele>1438.27</ele>
        <time>2011-03-05T06:37:53Z</time>
      </trkpt>
      <trkpt lat="46.00823" lon="6.55642">
        <ele>1439.23</ele>
        <time>2011-03-05T06:38:06Z</time>
      </trkpt>
      <trkpt lat="46.00819" lon="6.55643">
        <ele>1440.19</ele>
        <time>2011-03-05T06:38:13Z</time>
      </trkpt>
      <trkpt lat="46.00823" lon="6.55635">
        <ele>1440.19</ele>
        <time>2011-03-05T06:38:24Z</time>
      </trkpt>
      <trkpt lat="46.00822" lon="6.55616">
        <ele>1442.11</ele>
        <time>2011-03-05T06:38:39Z</time>
      </trkpt>
      <trkpt lat="46.00819" lon="6.55599">
        <ele>1443.56</ele>
        <time>2011-03-05T06:38:52Z</time>
      </trkpt>
      <trkpt lat="46.00817" lon="6.5558">
        <ele>1444.52</ele>
        <time>2011-03-05T06:39:06Z</time>
      </trkpt>
      <trkpt lat="46.00815" lon="6.55572">
        <ele>1445</ele>
        <time>2011-03-05T06:39:12Z</time>
      </trkpt>
      <trkpt lat="46.0081" lon="6.55555">
        <ele>1445.96</ele>
        <time>2011-03-05T06:39:27Z</time>
      </trkpt>
      <trkpt lat="46.00806" lon="6.55543">
        <ele>1446.44</ele>
        <time>2011-03-05T06:39:39Z</time>
      </trkpt>
      <trkpt lat="46.008" lon="6.55544">
        <ele>1446.92</ele>
        <time>2011-03-05T06:39:45Z</time>
      </trkpt>
      <trkpt lat="46.00792" lon="6.5556">
        <ele>1448.84</ele>
        <time>2011-03-05T06:39:59Z</time>
      </trkpt>
      <trkpt lat="46.0079" lon="6.55566">
        <ele>1452.69</ele>
        <time>2011-03-05T06:40:05Z</time>
      </trkpt>
      <trkpt lat="46.00789" lon="6.55579">
        <ele>1455.57</ele>
        <time>2011-03-05T06:40:18Z</time>
      </trkpt>
      <trkpt lat="46.00789" lon="6.55579">
        <ele>1455.57</ele>
        <time>2011-03-05T06:40:37Z</time>
      </trkpt>
      <trkpt lat="46.00789" lon="6.55579">
        <ele>1456.05</ele>
        <time>2011-03-05T06:41:04Z</time>
      </trkpt>
      <trkpt lat="46.00789" lon="6.55579">
        <ele>1456.05</ele>
        <time>2011-03-05T06:41:26Z</time>
      </trkpt>
      <trkpt lat="46.00789" lon="6.55582">
        <ele>1456.53</ele>
        <time>2011-03-05T06:41:29Z</time>
      </trkpt>
      <trkpt lat="46.00787" lon="6.55598">
        <ele>1459.9</ele>
        <time>2011-03-05T06:41:39Z</time>
      </trkpt>
      <trkpt lat="46.00787" lon="6.55602">
        <ele>1460.38</ele>
        <time>2011-03-05T06:41:42Z</time>
      </trkpt>
      <trkpt lat="46.00785" lon="6.55607">
        <ele>1460.38</ele>
        <time>2011-03-05T06:41:45Z</time>
      </trkpt>
      <trkpt lat="46.00785" lon="6.55616">
        <ele>1460.86</ele>
        <time>2011-03-05T06:41:52Z</time>
      </trkpt>
      <trkpt lat="46.00783" lon="6.5562">
        <ele>1460.86</ele>
        <time>2011-03-05T06:41:55Z</time>
      </trkpt>
      <trkpt lat="46.00775" lon="6.55623">
        <ele>1463.26</ele>
        <time>2011-03-05T06:42:08Z</time>
      </trkpt>
      <trkpt lat="46.00775" lon="6.55622">
        <ele>1463.74</ele>
        <time>2011-03-05T06:42:10Z</time>
      </trkpt>
      <trkpt lat="46.00781" lon="6.55604">
        <ele>1467.11</ele>
        <time>2011-03-05T06:42:22Z</time>
      </trkpt>
      <trkpt lat="46.00781" lon="6.55593">
        <ele>1467.59</ele>
        <time>2011-03-05T06:42:29Z</time>
      </trkpt>
      <trkpt lat="46.00777" lon="6.55576">
        <ele>1470.47</ele>
        <time>2011-03-05T06:42:42Z</time>
      </trkpt>
      <trkpt lat="46.00772" lon="6.55567">
        <ele>1470.47</ele>
        <time>2011-03-05T06:42:51Z</time>
      </trkpt>
      <trkpt lat="46.00767" lon="6.55558">
        <ele>1470.95</ele>
        <time>2011-03-05T06:43:01Z</time>
      </trkpt>
      <trkpt lat="46.00766" lon="6.55556">
        <ele>1471.44</ele>
        <time>2011-03-05T06:43:03Z</time>
      </trkpt>
      <trkpt lat="46.00763" lon="6.55554">
        <ele>1471.92</ele>
        <time>2011-03-05T06:43:06Z</time>
      </trkpt>
      <trkpt lat="46.00755" lon="6.55568">
        <ele>1472.88</ele>
        <time>2011-03-05T06:43:19Z</time>
      </trkpt>
      <trkpt lat="46.00756" lon="6.55575">
        <ele>1473.36</ele>
        <time>2011-03-05T06:43:24Z</time>
      </trkpt>
      <trkpt lat="46.00754" lon="6.5559">
        <ele>1474.32</ele>
        <time>2011-03-05T06:43:35Z</time>
      </trkpt>
      <trkpt lat="46.00751" lon="6.55602">
        <ele>1476.72</ele>
        <time>2011-03-05T06:43:45Z</time>
      </trkpt>
      <trkpt lat="46.0075" lon="6.55614">
        <ele>1478.16</ele>
        <time>2011-03-05T06:43:55Z</time>
      </trkpt>
      <trkpt lat="46.00748" lon="6.55618">
        <ele>1480.09</ele>
        <time>2011-03-05T06:44:02Z</time>
      </trkpt>
      <trkpt lat="46.00747" lon="6.55616">
        <ele>1481.53</ele>
        <time>2011-03-05T06:44:07Z</time>
      </trkpt>
      <trkpt lat="46.00748" lon="6.55598">
        <ele>1484.89</ele>
        <time>2011-03-05T06:44:20Z</time>
      </trkpt>
      <trkpt lat="46.00746" lon="6.55583">
        <ele>1487.3</ele>
        <time>2011-03-05T06:44:32Z</time>
      </trkpt>
      <trkpt lat="46.00745" lon="6.5558">
        <ele>1487.3</ele>
        <time>2011-03-05T06:44:35Z</time>
      </trkpt>
      <trkpt lat="46.0074" lon="6.55567">
        <ele>1488.26</ele>
        <time>2011-03-05T06:44:47Z</time>
      </trkpt>
      <trkpt lat="46.00732" lon="6.55557">
        <ele>1491.14</ele>
        <time>2011-03-05T06:45:00Z</time>
      </trkpt>
      <trkpt lat="46.00721" lon="6.55564">
        <ele>1491.14</ele>
        <time>2011-03-05T06:45:09Z</time>
      </trkpt>
      <trkpt lat="46.00717" lon="6.55566">
        <ele>1490.66</ele>
        <time>2011-03-05T06:45:13Z</time>
      </trkpt>
      <trkpt lat="46.00709" lon="6.55569">
        <ele>1492.58</ele>
        <time>2011-03-05T06:45:26Z</time>
      </trkpt>
      <trkpt lat="46.00707" lon="6.5557">
        <ele>1493.55</ele>
        <time>2011-03-05T06:45:38Z</time>
      </trkpt>
      <trkpt lat="46.00702" lon="6.5557">
        <ele>1494.99</ele>
        <time>2011-03-05T06:45:48Z</time>
      </trkpt>
      <trkpt lat="46.00696" lon="6.5557">
        <ele>1496.91</ele>
        <time>2011-03-05T06:46:00Z</time>
      </trkpt>
      <trkpt lat="46.00696" lon="6.5557">
        <ele>1496.91</ele>
        <time>2011-03-05T06:46:08Z</time>
      </trkpt>
      <trkpt lat="46.00695" lon="6.55569">
        <ele>1496.91</ele>
        <time>2011-03-05T06:46:10Z</time>
      </trkpt>
      <trkpt lat="46.00689" lon="6.5556">
        <ele>1500.27</ele>
        <time>2011-03-05T06:46:20Z</time>
      </trkpt>
      <trkpt lat="46.00685" lon="6.5555">
        <ele>1503.16</ele>
        <time>2011-03-05T06:46:30Z</time>
      </trkpt>
      <trkpt lat="46.00681" lon="6.55541">
        <ele>1506.04</ele>
        <time>2011-03-05T06:46:42Z</time>
      </trkpt>
      <trkpt lat="46.00678" lon="6.55536">
        <ele>1507</ele>
        <time>2011-03-05T06:46:47Z</time>
      </trkpt>
      <trkpt lat="46.00674" lon="6.55521">
        <ele>1508.93</ele>
        <time>2011-03-05T06:46:59Z</time>
      </trkpt>
      <trkpt lat="46.00672" lon="6.55505">
        <ele>1512.29</ele>
        <time>2011-03-05T06:47:12Z</time>
      </trkpt>
      <trkpt lat="46.00671" lon="6.55488">
        <ele>1515.66</ele>
        <time>2011-03-05T06:47:26Z</time>
      </trkpt>
      <trkpt lat="46.0067" lon="6.55475">
        <ele>1519.02</ele>
        <time>2011-03-05T06:47:37Z</time>
      </trkpt>
      <trkpt lat="46.00666" lon="6.55462">
        <ele>1519.98</ele>
        <time>2011-03-05T06:47:49Z</time>
      </trkpt>
      <trkpt lat="46.00664" lon="6.55451">
        <ele>1523.35</ele>
        <time>2011-03-05T06:48:01Z</time>
      </trkpt>
      <trkpt lat="46.00656" lon="6.55438">
        <ele>1525.75</ele>
        <time>2011-03-05T06:48:15Z</time>
      </trkpt>
      <trkpt lat="46.00645" lon="6.55437">
        <ele>1526.23</ele>
        <time>2011-03-05T06:48:29Z</time>
      </trkpt>
      <trkpt lat="46.00641" lon="6.55434">
        <ele>1526.71</ele>
        <time>2011-03-05T06:48:35Z</time>
      </trkpt>
      <trkpt lat="46.0063" lon="6.5543">
        <ele>1527.19</ele>
        <time>2011-03-05T06:48:49Z</time>
      </trkpt>
      <trkpt lat="46.00624" lon="6.55423">
        <ele>1532</ele>
        <time>2011-03-05T06:49:01Z</time>
      </trkpt>
      <trkpt lat="46.00616" lon="6.55422">
        <ele>1532.96</ele>
        <time>2011-03-05T06:49:13Z</time>
      </trkpt>
      <trkpt lat="46.0061" lon="6.55423">
        <ele>1533.92</ele>
        <time>2011-03-05T06:49:25Z</time>
      </trkpt>
      <trkpt lat="46.00607" lon="6.55422">
        <ele>1534.4</ele>
        <time>2011-03-05T06:49:28Z</time>
      </trkpt>
      <trkpt lat="46.00604" lon="6.55425">
        <ele>1534.4</ele>
        <time>2011-03-05T06:49:31Z</time>
      </trkpt>
      <trkpt lat="46.00595" lon="6.55425">
        <ele>1536.8</ele>
        <time>2011-03-05T06:49:43Z</time>
      </trkpt>
      <trkpt lat="46.0059" lon="6.55435">
        <ele>1540.65</ele>
        <time>2011-03-05T06:49:55Z</time>
      </trkpt>
      <trkpt lat="46.00591" lon="6.55437">
        <ele>1541.13</ele>
        <time>2011-03-05T06:49:56Z</time>
      </trkpt>
      <trkpt lat="46.00599" lon="6.5544">
        <ele>1543.05</ele>
        <time>2011-03-05T06:50:03Z</time>
      </trkpt>
      <trkpt lat="46.00603" lon="6.55453">
        <ele>1546.9</ele>
        <time>2011-03-05T06:50:16Z</time>
      </trkpt>
      <trkpt lat="46.00606" lon="6.55464">
        <ele>1550.74</ele>
        <time>2011-03-05T06:50:28Z</time>
      </trkpt>
      <trkpt lat="46.00609" lon="6.55474">
        <ele>1554.59</ele>
        <time>2011-03-05T06:50:39Z</time>
      </trkpt>
      <trkpt lat="46.00607" lon="6.55471">
        <ele>1555.07</ele>
        <time>2011-03-05T06:50:51Z</time>
      </trkpt>
      <trkpt lat="46.00602" lon="6.55461">
        <ele>1558.43</ele>
        <time>2011-03-05T06:51:03Z</time>
      </trkpt>
      <trkpt lat="46.00594" lon="6.55452">
        <ele>1561.32</ele>
        <time>2011-03-05T06:51:18Z</time>
      </trkpt>
      <trkpt lat="46.00585" lon="6.5546">
        <ele>1562.28</ele>
        <time>2011-03-05T06:51:27Z</time>
      </trkpt>
      <trkpt lat="46.00588" lon="6.55473">
        <ele>1564.2</ele>
        <time>2011-03-05T06:51:35Z</time>
      </trkpt>
      <trkpt lat="46.0059" lon="6.55477">
        <ele>1565.16</ele>
        <time>2011-03-05T06:51:38Z</time>
      </trkpt>
      <trkpt lat="46.006" lon="6.55492">
        <ele>1567.09</ele>
        <time>2011-03-05T06:51:52Z</time>
      </trkpt>
      <trkpt lat="46.00605" lon="6.55501">
        <ele>1568.05</ele>
        <time>2011-03-05T06:52:04Z</time>
      </trkpt>
      <trkpt lat="46.00602" lon="6.55503">
        <ele>1569.97</ele>
        <time>2011-03-05T06:52:16Z</time>
      </trkpt>
      <trkpt lat="46.006" lon="6.555">
        <ele>1570.45</ele>
        <time>2011-03-05T06:52:19Z</time>
      </trkpt>
      <trkpt lat="46.00594" lon="6.55489">
        <ele>1572.37</ele>
        <time>2011-03-05T06:52:32Z</time>
      </trkpt>
      <trkpt lat="46.00586" lon="6.5548">
        <ele>1574.3</ele>
        <time>2011-03-05T06:52:45Z</time>
      </trkpt>
      <trkpt lat="46.00579" lon="6.55468">
        <ele>1576.7</ele>
        <time>2011-03-05T06:52:56Z</time>
      </trkpt>
      <trkpt lat="46.00571" lon="6.55461">
        <ele>1580.06</ele>
        <time>2011-03-05T06:53:07Z</time>
      </trkpt>
      <trkpt lat="46.0057" lon="6.5546">
        <ele>1580.06</ele>
        <time>2011-03-05T06:53:09Z</time>
      </trkpt>
      <trkpt lat="46.00567" lon="6.55458">
        <ele>1580.06</ele>
        <time>2011-03-05T06:53:11Z</time>
      </trkpt>
      <trkpt lat="46.00557" lon="6.55456">
        <ele>1581.03</ele>
        <time>2011-03-05T06:53:21Z</time>
      </trkpt>
      <trkpt lat="46.00545" lon="6.55451">
        <ele>1581.03</ele>
        <time>2011-03-05T06:53:33Z</time>
      </trkpt>
      <trkpt lat="46.00537" lon="6.55447">
        <ele>1581.51</ele>
        <time>2011-03-05T06:53:44Z</time>
      </trkpt>
      <trkpt lat="46.00529" lon="6.55442">
        <ele>1583.43</ele>
        <time>2011-03-05T06:53:57Z</time>
      </trkpt>
      <trkpt lat="46.00522" lon="6.55438">
        <ele>1584.39</ele>
        <time>2011-03-05T06:54:05Z</time>
      </trkpt>
      <trkpt lat="46.00511" lon="6.55428">
        <ele>1589.2</ele>
        <time>2011-03-05T06:54:20Z</time>
      </trkpt>
      <trkpt lat="46.00501" lon="6.55422">
        <ele>1593.04</ele>
        <time>2011-03-05T06:54:34Z</time>
      </trkpt>
      <trkpt lat="46.00492" lon="6.55417">
        <ele>1594.48</ele>
        <time>2011-03-05T06:54:44Z</time>
      </trkpt>
      <trkpt lat="46.00487" lon="6.55417">
        <ele>1595.45</ele>
        <time>2011-03-05T06:54:49Z</time>
      </trkpt>
      <trkpt lat="46.00481" lon="6.5542">
        <ele>1594.48</ele>
        <time>2011-03-05T06:54:55Z</time>
      </trkpt>
      <trkpt lat="46.00473" lon="6.55425">
        <ele>1594.48</ele>
        <time>2011-03-05T06:55:02Z</time>
      </trkpt>
      <trkpt lat="46.0047" lon="6.55433">
        <ele>1595.45</ele>
        <time>2011-03-05T06:55:09Z</time>
      </trkpt>
      <trkpt lat="46.00457" lon="6.55445">
        <ele>1600.25</ele>
        <time>2011-03-05T06:55:22Z</time>
      </trkpt>
      <trkpt lat="46.00453" lon="6.55451">
        <ele>1602.17</ele>
        <time>2011-03-05T06:55:28Z</time>
      </trkpt>
      <trkpt lat="46.00445" lon="6.55457">
        <ele>1604.58</ele>
        <time>2011-03-05T06:55:36Z</time>
      </trkpt>
      <trkpt lat="46.00438" lon="6.55458">
        <ele>1607.94</ele>
        <time>2011-03-05T06:55:44Z</time>
      </trkpt>
      <trkpt lat="46.00435" lon="6.55458">
        <ele>1611.31</ele>
        <time>2011-03-05T06:55:49Z</time>
      </trkpt>
      <trkpt lat="46.00425" lon="6.55458">
        <ele>1616.11</ele>
        <time>2011-03-05T06:56:02Z</time>
      </trkpt>
      <trkpt lat="46.00424" lon="6.55459">
        <ele>1617.07</ele>
        <time>2011-03-05T06:56:05Z</time>
      </trkpt>
      <trkpt lat="46.00423" lon="6.55459">
        <ele>1617.56</ele>
        <time>2011-03-05T06:56:07Z</time>
      </trkpt>
      <trkpt lat="46.0042" lon="6.55459">
        <ele>1618.52</ele>
        <time>2011-03-05T06:56:11Z</time>
      </trkpt>
      <trkpt lat="46.0042" lon="6.55462">
        <ele>1617.07</ele>
        <time>2011-03-05T06:56:24Z</time>
      </trkpt>
      <trkpt lat="46.0042" lon="6.55461">
        <ele>1617.07</ele>
        <time>2011-03-05T06:56:25Z</time>
      </trkpt>
      <trkpt lat="46.00412" lon="6.5546">
        <ele>1616.59</ele>
        <time>2011-03-05T06:56:38Z</time>
      </trkpt>
      <trkpt lat="46.00403" lon="6.55465">
        <ele>1615.63</ele>
        <time>2011-03-05T06:56:49Z</time>
      </trkpt>
      <trkpt lat="46.00394" lon="6.55471">
        <ele>1615.15</ele>
        <time>2011-03-05T06:57:01Z</time>
      </trkpt>
      <trkpt lat="46.00385" lon="6.5547">
        <ele>1615.63</ele>
        <time>2011-03-05T06:57:12Z</time>
      </trkpt>
      <trkpt lat="46.00376" lon="6.55464">
        <ele>1616.59</ele>
        <time>2011-03-05T06:57:24Z</time>
      </trkpt>
      <trkpt lat="46.00367" lon="6.55459">
        <ele>1617.07</ele>
        <time>2011-03-05T06:57:36Z</time>
      </trkpt>
      <trkpt lat="46.00362" lon="6.55456">
        <ele>1616.59</ele>
        <time>2011-03-05T06:57:50Z</time>
      </trkpt>
      <trkpt lat="46.0036" lon="6.55452">
        <ele>1618.52</ele>
        <time>2011-03-05T06:58:02Z</time>
      </trkpt>
      <trkpt lat="46.0036" lon="6.55452">
        <ele>1618.52</ele>
        <time>2011-03-05T06:58:17Z</time>
      </trkpt>
      <trkpt lat="46.0036" lon="6.55452">
        <ele>1618.52</ele>
        <time>2011-03-05T06:58:36Z</time>
      </trkpt>
      <trkpt lat="46.0036" lon="6.55452">
        <ele>1618.52</ele>
        <time>2011-03-05T06:58:56Z</time>
      </trkpt>
      <trkpt lat="46.0036" lon="6.55452">
        <ele>1618.52</ele>
        <time>2011-03-05T06:59:08Z</time>
      </trkpt>
      <trkpt lat="46.00359" lon="6.55453">
        <ele>1618.52</ele>
        <time>2011-03-05T06:59:25Z</time>
      </trkpt>
      <trkpt lat="46.00359" lon="6.55453">
        <ele>1618.52</ele>
        <time>2011-03-05T06:59:49Z</time>
      </trkpt>
      <trkpt lat="46.00356" lon="6.55452">
        <ele>1619</ele>
        <time>2011-03-05T06:59:57Z</time>
      </trkpt>
      <trkpt lat="46.00351" lon="6.55446">
        <ele>1618.52</ele>
        <time>2011-03-05T07:00:14Z</time>
      </trkpt>
      <trkpt lat="46.0035" lon="6.55445">
        <ele>1618.52</ele>
        <time>2011-03-05T07:00:15Z</time>
      </trkpt>
      <trkpt lat="46.00349" lon="6.55444">
        <ele>1618.52</ele>
        <time>2011-03-05T07:00:17Z</time>
      </trkpt>
      <trkpt lat="46.00334" lon="6.55437">
        <ele>1620.44</ele>
        <time>2011-03-05T07:00:29Z</time>
      </trkpt>
      <trkpt lat="46.00331" lon="6.55435">
        <ele>1621.4</ele>
        <time>2011-03-05T07:00:32Z</time>
      </trkpt>
      <trkpt lat="46.00329" lon="6.55433">
        <ele>1621.88</ele>
        <time>2011-03-05T07:00:34Z</time>
      </trkpt>
      <trkpt lat="46.00324" lon="6.55427">
        <ele>1622.36</ele>
        <time>2011-03-05T07:00:44Z</time>
      </trkpt>
      <trkpt lat="46.00321" lon="6.55426">
        <ele>1621.88</ele>
        <time>2011-03-05T07:00:47Z</time>
      </trkpt>
      <trkpt lat="46.00317" lon="6.55424">
        <ele>1622.36</ele>
        <time>2011-03-05T07:00:51Z</time>
      </trkpt>
      <trkpt lat="46.00306" lon="6.5542">
        <ele>1623.32</ele>
        <time>2011-03-05T07:01:02Z</time>
      </trkpt>
      <trkpt lat="46.00302" lon="6.55422">
        <ele>1624.28</ele>
        <time>2011-03-05T07:01:08Z</time>
      </trkpt>
      <trkpt lat="46.00296" lon="6.55418">
        <ele>1626.21</ele>
        <time>2011-03-05T07:01:18Z</time>
      </trkpt>
      <trkpt lat="46.00291" lon="6.55412">
        <ele>1628.13</ele>
        <time>2011-03-05T07:01:28Z</time>
      </trkpt>
      <trkpt lat="46.00286" lon="6.55406">
        <ele>1629.57</ele>
        <time>2011-03-05T07:01:36Z</time>
      </trkpt>
      <trkpt lat="46.0028" lon="6.55398">
        <ele>1631.49</ele>
        <time>2011-03-05T07:01:48Z</time>
      </trkpt>
      <trkpt lat="46.00272" lon="6.55389">
        <ele>1633.42</ele>
        <time>2011-03-05T07:02:01Z</time>
      </trkpt>
      <trkpt lat="46.00262" lon="6.5538">
        <ele>1637.74</ele>
        <time>2011-03-05T07:02:12Z</time>
      </trkpt>
      <trkpt lat="46.00257" lon="6.55379">
        <ele>1639.19</ele>
        <time>2011-03-05T07:02:17Z</time>
      </trkpt>
      <trkpt lat="46.00247" lon="6.5538">
        <ele>1643.03</ele>
        <time>2011-03-05T07:02:29Z</time>
      </trkpt>
      <trkpt lat="46.00238" lon="6.55379">
        <ele>1647.84</ele>
        <time>2011-03-05T07:02:42Z</time>
      </trkpt>
      <trkpt lat="46.00232" lon="6.55374">
        <ele>1648.32</ele>
        <time>2011-03-05T07:02:49Z</time>
      </trkpt>
      <trkpt lat="46.0022" lon="6.55367">
        <ele>1649.76</ele>
        <time>2011-03-05T07:03:00Z</time>
      </trkpt>
      <trkpt lat="46.00209" lon="6.55361">
        <ele>1649.76</ele>
        <time>2011-03-05T07:03:15Z</time>
      </trkpt>
      <trkpt lat="46.00203" lon="6.55355">
        <ele>1650.72</ele>
        <time>2011-03-05T07:03:25Z</time>
      </trkpt>
      <trkpt lat="46.00194" lon="6.55347">
        <ele>1652.64</ele>
        <time>2011-03-05T07:03:38Z</time>
      </trkpt>
      <trkpt lat="46.00185" lon="6.55342">
        <ele>1656.97</ele>
        <time>2011-03-05T07:03:50Z</time>
      </trkpt>
      <trkpt lat="46.00177" lon="6.55334">
        <ele>1660.81</ele>
        <time>2011-03-05T07:04:03Z</time>
      </trkpt>
      <trkpt lat="46.00167" lon="6.55332">
        <ele>1663.7</ele>
        <time>2011-03-05T07:04:11Z</time>
      </trkpt>
      <trkpt lat="46.00163" lon="6.55331">
        <ele>1665.62</ele>
        <time>2011-03-05T07:04:16Z</time>
      </trkpt>
      <trkpt lat="46.00152" lon="6.55328">
        <ele>1667.06</ele>
        <time>2011-03-05T07:04:28Z</time>
      </trkpt>
      <trkpt lat="46.00145" lon="6.55328">
        <ele>1668.51</ele>
        <time>2011-03-05T07:04:38Z</time>
      </trkpt>
      <trkpt lat="46.00144" lon="6.55329">
        <ele>1668.51</ele>
        <time>2011-03-05T07:04:39Z</time>
      </trkpt>
      <trkpt lat="46.00147" lon="6.55342">
        <ele>1667.06</ele>
        <time>2011-03-05T07:04:50Z</time>
      </trkpt>
      <trkpt lat="46.00154" lon="6.55349">
        <ele>1666.1</ele>
        <time>2011-03-05T07:05:02Z</time>
      </trkpt>
      <trkpt lat="46.00159" lon="6.55362">
        <ele>1667.54</ele>
        <time>2011-03-05T07:05:13Z</time>
      </trkpt>
      <trkpt lat="46.0016" lon="6.55368">
        <ele>1668.02</ele>
        <time>2011-03-05T07:05:17Z</time>
      </trkpt>
      <trkpt lat="46.00165" lon="6.55384">
        <ele>1668.99</ele>
        <time>2011-03-05T07:05:28Z</time>
      </trkpt>
      <trkpt lat="46.00169" lon="6.55393">
        <ele>1668.99</ele>
        <time>2011-03-05T07:05:40Z</time>
      </trkpt>
      <trkpt lat="46.00172" lon="6.55404">
        <ele>1670.43</ele>
        <time>2011-03-05T07:05:51Z</time>
      </trkpt>
      <trkpt lat="46.00177" lon="6.55415">
        <ele>1671.87</ele>
        <time>2011-03-05T07:06:01Z</time>
      </trkpt>
      <trkpt lat="46.00182" lon="6.55428">
        <ele>1672.83</ele>
        <time>2011-03-05T07:06:12Z</time>
      </trkpt>
      <trkpt lat="46.00189" lon="6.55437">
        <ele>1675.23</ele>
        <time>2011-03-05T07:06:23Z</time>
      </trkpt>
      <trkpt lat="46.00201" lon="6.55445">
        <ele>1679.56</ele>
        <time>2011-03-05T07:06:38Z</time>
      </trkpt>
      <trkpt lat="46.00202" lon="6.55458">
        <ele>1681.48</ele>
        <time>2011-03-05T07:06:50Z</time>
      </trkpt>
      <trkpt lat="46.00202" lon="6.55459">
        <ele>1681.96</ele>
        <time>2011-03-05T07:06:52Z</time>
      </trkpt>
      <trkpt lat="46.00196" lon="6.55464">
        <ele>1684.37</ele>
        <time>2011-03-05T07:06:58Z</time>
      </trkpt>
      <trkpt lat="46.00184" lon="6.55459">
        <ele>1690.14</ele>
        <time>2011-03-05T07:07:10Z</time>
      </trkpt>
      <trkpt lat="46.00174" lon="6.55459">
        <ele>1692.06</ele>
        <time>2011-03-05T07:07:22Z</time>
      </trkpt>
      <trkpt lat="46.00161" lon="6.55459">
        <ele>1694.94</ele>
        <time>2011-03-05T07:07:34Z</time>
      </trkpt>
      <trkpt lat="46.00153" lon="6.55456">
        <ele>1697.34</ele>
        <time>2011-03-05T07:07:44Z</time>
      </trkpt>
      <trkpt lat="46.00152" lon="6.55455">
        <ele>1697.34</ele>
        <time>2011-03-05T07:07:45Z</time>
      </trkpt>
      <trkpt lat="46.00144" lon="6.55448">
        <ele>1698.79</ele>
        <time>2011-03-05T07:07:56Z</time>
      </trkpt>
      <trkpt lat="46.00135" lon="6.55446">
        <ele>1699.75</ele>
        <time>2011-03-05T07:08:06Z</time>
      </trkpt>
      <trkpt lat="46.00128" lon="6.55445">
        <ele>1700.71</ele>
        <time>2011-03-05T07:08:15Z</time>
      </trkpt>
      <trkpt lat="46.00121" lon="6.55441">
        <ele>1702.63</ele>
        <time>2011-03-05T07:08:25Z</time>
      </trkpt>
      <trkpt lat="46.00113" lon="6.55431">
        <ele>1704.07</ele>
        <time>2011-03-05T07:08:37Z</time>
      </trkpt>
      <trkpt lat="46.00111" lon="6.55427">
        <ele>1703.11</ele>
        <time>2011-03-05T07:08:41Z</time>
      </trkpt>
      <trkpt lat="46.00104" lon="6.55415">
        <ele>1702.63</ele>
        <time>2011-03-05T07:08:54Z</time>
      </trkpt>
      <trkpt lat="46.001" lon="6.55409">
        <ele>1704.07</ele>
        <time>2011-03-05T07:09:00Z</time>
      </trkpt>
      <trkpt lat="46.00088" lon="6.55406">
        <ele>1706</ele>
        <time>2011-03-05T07:09:12Z</time>
      </trkpt>
      <trkpt lat="46.00079" lon="6.55403">
        <ele>1707.44</ele>
        <time>2011-03-05T07:09:22Z</time>
      </trkpt>
      <trkpt lat="46.00069" lon="6.55399">
        <ele>1710.32</ele>
        <time>2011-03-05T07:09:35Z</time>
      </trkpt>
      <trkpt lat="46.00069" lon="6.55399">
        <ele>1710.32</ele>
        <time>2011-03-05T07:09:55Z</time>
      </trkpt>
      <trkpt lat="46.00069" lon="6.55398">
        <ele>1710.8</ele>
        <time>2011-03-05T07:10:10Z</time>
      </trkpt>
      <trkpt lat="46.00069" lon="6.55398">
        <ele>1710.8</ele>
        <time>2011-03-05T07:10:32Z</time>
      </trkpt>
      <trkpt lat="46.00069" lon="6.55398">
        <ele>1710.8</ele>
        <time>2011-03-05T07:10:53Z</time>
      </trkpt>
      <trkpt lat="46.00069" lon="6.55398">
        <ele>1710.8</ele>
        <time>2011-03-05T07:11:11Z</time>
      </trkpt>
      <trkpt lat="46.00067" lon="6.55399">
        <ele>1711.76</ele>
        <time>2011-03-05T07:11:25Z</time>
      </trkpt>
      <trkpt lat="46.00067" lon="6.55399">
        <ele>1712.25</ele>
        <time>2011-03-05T07:11:43Z</time>
      </trkpt>
      <trkpt lat="46.00067" lon="6.55399">
        <ele>1712.25</ele>
        <time>2011-03-05T07:12:09Z</time>
      </trkpt>
      <trkpt lat="46.00067" lon="6.55399">
        <ele>1712.25</ele>
        <time>2011-03-05T07:12:38Z</time>
      </trkpt>
      <trkpt lat="46.00066" lon="6.55399">
        <ele>1712.73</ele>
        <time>2011-03-05T07:13:00Z</time>
      </trkpt>
      <trkpt lat="46.00066" lon="6.55399">
        <ele>1712.73</ele>
        <time>2011-03-05T07:13:19Z</time>
      </trkpt>
      <trkpt lat="46.00066" lon="6.55399">
        <ele>1712.73</ele>
        <time>2011-03-05T07:13:40Z</time>
      </trkpt>
      <trkpt lat="46.00061" lon="6.55398">
        <ele>1713.21</ele>
        <time>2011-03-05T07:13:57Z</time>
      </trkpt>
      <trkpt lat="46.00055" lon="6.55399">
        <ele>1713.21</ele>
        <time>2011-03-05T07:14:04Z</time>
      </trkpt>
      <trkpt lat="46.00039" lon="6.55395">
        <ele>1714.17</ele>
        <time>2011-03-05T07:14:17Z</time>
      </trkpt>
      <trkpt lat="46.00021" lon="6.55382">
        <ele>1715.61</ele>
        <time>2011-03-05T07:14:32Z</time>
      </trkpt>
      <trkpt lat="46.00008" lon="6.55371">
        <ele>1715.13</ele>
        <time>2011-03-05T07:14:43Z</time>
      </trkpt>
      <trkpt lat="45.99996" lon="6.55364">
        <ele>1715.13</ele>
        <time>2011-03-05T07:14:54Z</time>
      </trkpt>
      <trkpt lat="45.99986" lon="6.55359">
        <ele>1714.65</ele>
        <time>2011-03-05T07:15:04Z</time>
      </trkpt>
      <trkpt lat="45.99976" lon="6.55354">
        <ele>1716.09</ele>
        <time>2011-03-05T07:15:15Z</time>
      </trkpt>
      <trkpt lat="45.99963" lon="6.55351">
        <ele>1718.01</ele>
        <time>2011-03-05T07:15:29Z</time>
      </trkpt>
      <trkpt lat="45.99957" lon="6.55351">
        <ele>1718.97</ele>
        <time>2011-03-05T07:15:35Z</time>
      </trkpt>
      <trkpt lat="45.99943" lon="6.55352">
        <ele>1718.97</ele>
        <time>2011-03-05T07:15:47Z</time>
      </trkpt>
      <trkpt lat="45.99939" lon="6.55352">
        <ele>1719.46</ele>
        <time>2011-03-05T07:15:51Z</time>
      </trkpt>
      <trkpt lat="45.99937" lon="6.55352">
        <ele>1719.94</ele>
        <time>2011-03-05T07:15:53Z</time>
      </trkpt>
      <trkpt lat="45.99921" lon="6.55349">
        <ele>1722.34</ele>
        <time>2011-03-05T07:16:05Z</time>
      </trkpt>
      <trkpt lat="45.99911" lon="6.55348">
        <ele>1722.34</ele>
        <time>2011-03-05T07:16:14Z</time>
      </trkpt>
      <trkpt lat="45.99899" lon="6.55346">
        <ele>1722.34</ele>
        <time>2011-03-05T07:16:24Z</time>
      </trkpt>
      <trkpt lat="45.99889" lon="6.55345">
        <ele>1722.82</ele>
        <time>2011-03-05T07:16:34Z</time>
      </trkpt>
      <trkpt lat="45.9988" lon="6.5534">
        <ele>1724.26</ele>
        <time>2011-03-05T07:16:43Z</time>
      </trkpt>
      <trkpt lat="45.99877" lon="6.55338">
        <ele>1724.74</ele>
        <time>2011-03-05T07:16:55Z</time>
      </trkpt>
      <trkpt lat="45.99872" lon="6.55338">
        <ele>1725.22</ele>
        <time>2011-03-05T07:17:09Z</time>
      </trkpt>
      <trkpt lat="45.99866" lon="6.55339">
        <ele>1726.67</ele>
        <time>2011-03-05T07:17:18Z</time>
      </trkpt>
      <trkpt lat="45.99863" lon="6.55338">
        <ele>1727.63</ele>
        <time>2011-03-05T07:17:35Z</time>
      </trkpt>
      <trkpt lat="45.99847" lon="6.55337">
        <ele>1729.07</ele>
        <time>2011-03-05T07:17:47Z</time>
      </trkpt>
      <trkpt lat="45.99833" lon="6.55337">
        <ele>1729.07</ele>
        <time>2011-03-05T07:17:58Z</time>
      </trkpt>
      <trkpt lat="45.99825" lon="6.55342">
        <ele>1730.51</ele>
        <time>2011-03-05T07:18:09Z</time>
      </trkpt>
      <trkpt lat="45.99822" lon="6.55345">
        <ele>1730.99</ele>
        <time>2011-03-05T07:18:19Z</time>
      </trkpt>
      <trkpt lat="45.99821" lon="6.55346">
        <ele>1730.99</ele>
        <time>2011-03-05T07:18:33Z</time>
      </trkpt>
      <trkpt lat="45.99816" lon="6.55349">
        <ele>1731.95</ele>
        <time>2011-03-05T07:18:50Z</time>
      </trkpt>
      <trkpt lat="45.9981" lon="6.55355">
        <ele>1734.36</ele>
        <time>2011-03-05T07:19:00Z</time>
      </trkpt>
      <trkpt lat="45.9981" lon="6.55355">
        <ele>1734.36</ele>
        <time>2011-03-05T07:19:17Z</time>
      </trkpt>
      <trkpt lat="45.9981" lon="6.55355">
        <ele>1734.36</ele>
        <time>2011-03-05T07:19:35Z</time>
      </trkpt>
      <trkpt lat="45.99808" lon="6.55357">
        <ele>1734.84</ele>
        <time>2011-03-05T07:19:48Z</time>
      </trkpt>
      <trkpt lat="45.99803" lon="6.55363">
        <ele>1737.24</ele>
        <time>2011-03-05T07:19:58Z</time>
      </trkpt>
      <trkpt lat="45.99801" lon="6.55365">
        <ele>1738.2</ele>
        <time>2011-03-05T07:20:11Z</time>
      </trkpt>
      <trkpt lat="45.99801" lon="6.55365">
        <ele>1738.2</ele>
        <time>2011-03-05T07:20:36Z</time>
      </trkpt>
      <trkpt lat="45.99801" lon="6.55365">
        <ele>1738.2</ele>
        <time>2011-03-05T07:20:57Z</time>
      </trkpt>
      <trkpt lat="45.998" lon="6.55365">
        <ele>1738.68</ele>
        <time>2011-03-05T07:21:23Z</time>
      </trkpt>
      <trkpt lat="45.998" lon="6.55365">
        <ele>1738.68</ele>
        <time>2011-03-05T07:21:51Z</time>
      </trkpt>
      <trkpt lat="45.99797" lon="6.55367">
        <ele>1740.6</ele>
        <time>2011-03-05T07:22:08Z</time>
      </trkpt>
      <trkpt lat="45.99791" lon="6.55374">
        <ele>1742.53</ele>
        <time>2011-03-05T07:22:18Z</time>
      </trkpt>
      <trkpt lat="45.99785" lon="6.5538">
        <ele>1745.41</ele>
        <time>2011-03-05T07:22:28Z</time>
      </trkpt>
      <trkpt lat="45.99781" lon="6.55387">
        <ele>1748.29</ele>
        <time>2011-03-05T07:22:38Z</time>
      </trkpt>
      <trkpt lat="45.9978" lon="6.5539">
        <ele>1749.74</ele>
        <time>2011-03-05T07:22:52Z</time>
      </trkpt>
      <trkpt lat="45.99775" lon="6.55398">
        <ele>1751.66</ele>
        <time>2011-03-05T07:23:03Z</time>
      </trkpt>
      <trkpt lat="45.9977" lon="6.55406">
        <ele>1755.02</ele>
        <time>2011-03-05T07:23:15Z</time>
      </trkpt>
      <trkpt lat="45.99765" lon="6.55415">
        <ele>1757.91</ele>
        <time>2011-03-05T07:23:27Z</time>
      </trkpt>
      <trkpt lat="45.99761" lon="6.55421">
        <ele>1760.79</ele>
        <time>2011-03-05T07:23:38Z</time>
      </trkpt>
      <trkpt lat="45.99759" lon="6.55426">
        <ele>1761.75</ele>
        <time>2011-03-05T07:23:49Z</time>
      </trkpt>
      <trkpt lat="45.99756" lon="6.55431">
        <ele>1764.64</ele>
        <time>2011-03-05T07:24:00Z</time>
      </trkpt>
      <trkpt lat="45.9975" lon="6.55438">
        <ele>1767.04</ele>
        <time>2011-03-05T07:24:13Z</time>
      </trkpt>
      <trkpt lat="45.99746" lon="6.55446">
        <ele>1769.44</ele>
        <time>2011-03-05T07:24:24Z</time>
      </trkpt>
      <trkpt lat="45.99742" lon="6.55454">
        <ele>1770.89</ele>
        <time>2011-03-05T07:24:35Z</time>
      </trkpt>
      <trkpt lat="45.99737" lon="6.5546">
        <ele>1773.77</ele>
        <time>2011-03-05T07:24:46Z</time>
      </trkpt>
      <trkpt lat="45.99736" lon="6.55464">
        <ele>1775.69</ele>
        <time>2011-03-05T07:25:02Z</time>
      </trkpt>
      <trkpt lat="45.99732" lon="6.55469">
        <ele>1778.1</ele>
        <time>2011-03-05T07:25:12Z</time>
      </trkpt>
      <trkpt lat="45.99727" lon="6.55476">
        <ele>1780.5</ele>
        <time>2011-03-05T07:25:23Z</time>
      </trkpt>
      <trkpt lat="45.99723" lon="6.55483">
        <ele>1784.34</ele>
        <time>2011-03-05T07:25:35Z</time>
      </trkpt>
      <trkpt lat="45.9972" lon="6.55488">
        <ele>1785.79</ele>
        <time>2011-03-05T07:25:45Z</time>
      </trkpt>
      <trkpt lat="45.99717" lon="6.55492">
        <ele>1787.23</ele>
        <time>2011-03-05T07:25:58Z</time>
      </trkpt>
      <trkpt lat="45.99714" lon="6.55499">
        <ele>1789.15</ele>
        <time>2011-03-05T07:26:09Z</time>
      </trkpt>
      <trkpt lat="45.9971" lon="6.55507">
        <ele>1792.03</ele>
        <time>2011-03-05T07:26:20Z</time>
      </trkpt>
      <trkpt lat="45.99706" lon="6.55514">
        <ele>1794.92</ele>
        <time>2011-03-05T07:26:31Z</time>
      </trkpt>
      <trkpt lat="45.99705" lon="6.55516">
        <ele>1794.92</ele>
        <time>2011-03-05T07:26:45Z</time>
      </trkpt>
      <trkpt lat="45.99701" lon="6.55522">
        <ele>1796.84</ele>
        <time>2011-03-05T07:26:55Z</time>
      </trkpt>
      <trkpt lat="45.99697" lon="6.55534">
        <ele>1798.28</ele>
        <time>2011-03-05T07:27:08Z</time>
      </trkpt>
      <trkpt lat="45.99694" lon="6.55541">
        <ele>1800.21</ele>
        <time>2011-03-05T07:27:19Z</time>
      </trkpt>
      <trkpt lat="45.99692" lon="6.55545">
        <ele>1800.69</ele>
        <time>2011-03-05T07:27:30Z</time>
      </trkpt>
      <trkpt lat="45.9969" lon="6.55548">
        <ele>1801.65</ele>
        <time>2011-03-05T07:27:47Z</time>
      </trkpt>
      <trkpt lat="45.99686" lon="6.55556">
        <ele>1802.13</ele>
        <time>2011-03-05T07:27:58Z</time>
      </trkpt>
      <trkpt lat="45.99682" lon="6.55564">
        <ele>1805.49</ele>
        <time>2011-03-05T07:28:09Z</time>
      </trkpt>
      <trkpt lat="45.99679" lon="6.55572">
        <ele>1807.9</ele>
        <time>2011-03-05T07:28:20Z</time>
      </trkpt>
      <trkpt lat="45.99676" lon="6.55579">
        <ele>1811.26</ele>
        <time>2011-03-05T07:28:30Z</time>
      </trkpt>
      <trkpt lat="45.99675" lon="6.55582">
        <ele>1811.74</ele>
        <time>2011-03-05T07:28:42Z</time>
      </trkpt>
      <trkpt lat="45.99673" lon="6.55589">
        <ele>1814.15</ele>
        <time>2011-03-05T07:28:54Z</time>
      </trkpt>
      <trkpt lat="45.9967" lon="6.55597">
        <ele>1816.55</ele>
        <time>2011-03-05T07:29:05Z</time>
      </trkpt>
      <trkpt lat="45.99669" lon="6.55607">
        <ele>1819.43</ele>
        <time>2011-03-05T07:29:16Z</time>
      </trkpt>
      <trkpt lat="45.99667" lon="6.55615">
        <ele>1821.84</ele>
        <time>2011-03-05T07:29:27Z</time>
      </trkpt>
      <trkpt lat="45.99664" lon="6.55623">
        <ele>1823.76</ele>
        <time>2011-03-05T07:29:42Z</time>
      </trkpt>
      <trkpt lat="45.99662" lon="6.55632">
        <ele>1825.2</ele>
        <time>2011-03-05T07:29:52Z</time>
      </trkpt>
      <trkpt lat="45.99659" lon="6.55642">
        <ele>1826.64</ele>
        <time>2011-03-05T07:30:03Z</time>
      </trkpt>
      <trkpt lat="45.99656" lon="6.55653">
        <ele>1828.56</ele>
        <time>2011-03-05T07:30:15Z</time>
      </trkpt>
      <trkpt lat="45.99654" lon="6.55664">
        <ele>1830.97</ele>
        <time>2011-03-05T07:30:27Z</time>
      </trkpt>
      <trkpt lat="45.9965" lon="6.5567">
        <ele>1833.37</ele>
        <time>2011-03-05T07:30:37Z</time>
      </trkpt>
      <trkpt lat="45.9965" lon="6.5567">
        <ele>1833.37</ele>
        <time>2011-03-05T07:30:54Z</time>
      </trkpt>
      <trkpt lat="45.99646" lon="6.55678">
        <ele>1834.33</ele>
        <time>2011-03-05T07:31:05Z</time>
      </trkpt>
      <trkpt lat="45.99641" lon="6.55685">
        <ele>1836.26</ele>
        <time>2011-03-05T07:31:17Z</time>
      </trkpt>
      <trkpt lat="45.99639" lon="6.55694">
        <ele>1838.66</ele>
        <time>2011-03-05T07:31:29Z</time>
      </trkpt>
      <trkpt lat="45.99635" lon="6.55701">
        <ele>1842.5</ele>
        <time>2011-03-05T07:31:40Z</time>
      </trkpt>
      <trkpt lat="45.99635" lon="6.55702">
        <ele>1842.5</ele>
        <time>2011-03-05T07:31:54Z</time>
      </trkpt>
      <trkpt lat="45.99633" lon="6.55709">
        <ele>1843.47</ele>
        <time>2011-03-05T07:32:04Z</time>
      </trkpt>
      <trkpt lat="45.99629" lon="6.55716">
        <ele>1844.91</ele>
        <time>2011-03-05T07:32:14Z</time>
      </trkpt>
      <trkpt lat="45.99627" lon="6.55725">
        <ele>1846.83</ele>
        <time>2011-03-05T07:32:24Z</time>
      </trkpt>
      <trkpt lat="45.99624" lon="6.55732">
        <ele>1851.16</ele>
        <time>2011-03-05T07:32:34Z</time>
      </trkpt>
      <trkpt lat="45.99622" lon="6.55738">
        <ele>1853.56</ele>
        <time>2011-03-05T07:32:46Z</time>
      </trkpt>
      <trkpt lat="45.99621" lon="6.55741">
        <ele>1854.52</ele>
        <time>2011-03-05T07:33:03Z</time>
      </trkpt>
      <trkpt lat="45.9962" lon="6.5575">
        <ele>1856.44</ele>
        <time>2011-03-05T07:33:13Z</time>
      </trkpt>
      <trkpt lat="45.99617" lon="6.55759">
        <ele>1860.29</ele>
        <time>2011-03-05T07:33:23Z</time>
      </trkpt>
      <trkpt lat="45.99617" lon="6.55768">
        <ele>1862.69</ele>
        <time>2011-03-05T07:33:33Z</time>
      </trkpt>
      <trkpt lat="45.99616" lon="6.55777">
        <ele>1865.58</ele>
        <time>2011-03-05T07:33:44Z</time>
      </trkpt>
      <trkpt lat="45.99614" lon="6.5578">
        <ele>1866.06</ele>
        <time>2011-03-05T07:34:03Z</time>
      </trkpt>
      <trkpt lat="45.99611" lon="6.55791">
        <ele>1867.5</ele>
        <time>2011-03-05T07:34:14Z</time>
      </trkpt>
      <trkpt lat="45.99608" lon="6.55802">
        <ele>1869.9</ele>
        <time>2011-03-05T07:34:25Z</time>
      </trkpt>
      <trkpt lat="45.99606" lon="6.5581">
        <ele>1873.27</ele>
        <time>2011-03-05T07:34:34Z</time>
      </trkpt>
      <trkpt lat="45.99603" lon="6.55821">
        <ele>1876.15</ele>
        <time>2011-03-05T07:34:44Z</time>
      </trkpt>
      <trkpt lat="45.99601" lon="6.55832">
        <ele>1877.59</ele>
        <time>2011-03-05T07:34:56Z</time>
      </trkpt>
      <trkpt lat="45.99599" lon="6.55842">
        <ele>1880</ele>
        <time>2011-03-05T07:35:06Z</time>
      </trkpt>
      <trkpt lat="45.99595" lon="6.55853">
        <ele>1881.92</ele>
        <time>2011-03-05T07:35:17Z</time>
      </trkpt>
      <trkpt lat="45.99593" lon="6.55863">
        <ele>1883.36</ele>
        <time>2011-03-05T07:35:28Z</time>
      </trkpt>
      <trkpt lat="45.99592" lon="6.55865">
        <ele>1883.84</ele>
        <time>2011-03-05T07:35:41Z</time>
      </trkpt>
      <trkpt lat="45.99592" lon="6.55873">
        <ele>1884.8</ele>
        <time>2011-03-05T07:35:55Z</time>
      </trkpt>
      <trkpt lat="45.99588" lon="6.5588">
        <ele>1885.28</ele>
        <time>2011-03-05T07:36:05Z</time>
      </trkpt>
      <trkpt lat="45.99583" lon="6.55887">
        <ele>1886.24</ele>
        <time>2011-03-05T07:36:16Z</time>
      </trkpt>
      <trkpt lat="45.99578" lon="6.55896">
        <ele>1889.13</ele>
        <time>2011-03-05T07:36:26Z</time>
      </trkpt>
      <trkpt lat="45.99576" lon="6.55907">
        <ele>1892.49</ele>
        <time>2011-03-05T07:36:38Z</time>
      </trkpt>
      <trkpt lat="45.99574" lon="6.55914">
        <ele>1894.9</ele>
        <time>2011-03-05T07:36:50Z</time>
      </trkpt>
      <trkpt lat="45.99571" lon="6.5592">
        <ele>1895.38</ele>
        <time>2011-03-05T07:37:05Z</time>
      </trkpt>
      <trkpt lat="45.99567" lon="6.55928">
        <ele>1897.78</ele>
        <time>2011-03-05T07:37:15Z</time>
      </trkpt>
      <trkpt lat="45.99564" lon="6.55939">
        <ele>1899.7</ele>
        <time>2011-03-05T07:37:27Z</time>
      </trkpt>
      <trkpt lat="45.99562" lon="6.55943">
        <ele>1900.66</ele>
        <time>2011-03-05T07:37:39Z</time>
      </trkpt>
      <trkpt lat="45.9956" lon="6.55945">
        <ele>1900.66</ele>
        <time>2011-03-05T07:37:58Z</time>
      </trkpt>
      <trkpt lat="45.99556" lon="6.55953">
        <ele>1903.07</ele>
        <time>2011-03-05T07:38:09Z</time>
      </trkpt>
      <trkpt lat="45.99551" lon="6.55962">
        <ele>1904.99</ele>
        <time>2011-03-05T07:38:19Z</time>
      </trkpt>
      <trkpt lat="45.99546" lon="6.55971">
        <ele>1907.39</ele>
        <time>2011-03-05T07:38:30Z</time>
      </trkpt>
      <trkpt lat="45.99543" lon="6.5598">
        <ele>1909.8</ele>
        <time>2011-03-05T07:38:40Z</time>
      </trkpt>
      <trkpt lat="45.9954" lon="6.55986">
        <ele>1912.2</ele>
        <time>2011-03-05T07:38:49Z</time>
      </trkpt>
      <trkpt lat="45.99538" lon="6.5599">
        <ele>1912.68</ele>
        <time>2011-03-05T07:39:04Z</time>
      </trkpt>
      <trkpt lat="45.99534" lon="6.56">
        <ele>1915.56</ele>
        <time>2011-03-05T07:39:16Z</time>
      </trkpt>
      <trkpt lat="45.9953" lon="6.5601">
        <ele>1917.97</ele>
        <time>2011-03-05T07:39:27Z</time>
      </trkpt>
      <trkpt lat="45.99527" lon="6.56019">
        <ele>1919.89</ele>
        <time>2011-03-05T07:39:38Z</time>
      </trkpt>
      <trkpt lat="45.99523" lon="6.56028">
        <ele>1922.29</ele>
        <time>2011-03-05T07:39:48Z</time>
      </trkpt>
      <trkpt lat="45.99519" lon="6.56036">
        <ele>1923.74</ele>
        <time>2011-03-05T07:39:58Z</time>
      </trkpt>
      <trkpt lat="45.99513" lon="6.56043">
        <ele>1928.54</ele>
        <time>2011-03-05T07:40:09Z</time>
      </trkpt>
      <trkpt lat="45.99512" lon="6.56045">
        <ele>1929.5</ele>
        <time>2011-03-05T07:40:21Z</time>
      </trkpt>
      <trkpt lat="45.99509" lon="6.56051">
        <ele>1930.46</ele>
        <time>2011-03-05T07:40:37Z</time>
      </trkpt>
      <trkpt lat="45.99506" lon="6.56054">
        <ele>1930.46</ele>
        <time>2011-03-05T07:40:41Z</time>
      </trkpt>
      <trkpt lat="45.99502" lon="6.56064">
        <ele>1931.91</ele>
        <time>2011-03-05T07:40:53Z</time>
      </trkpt>
      <trkpt lat="45.99498" lon="6.56073">
        <ele>1933.83</ele>
        <time>2011-03-05T07:41:03Z</time>
      </trkpt>
      <trkpt lat="45.99493" lon="6.56084">
        <ele>1936.23</ele>
        <time>2011-03-05T07:41:15Z</time>
      </trkpt>
      <trkpt lat="45.99488" lon="6.56095">
        <ele>1937.67</ele>
        <time>2011-03-05T07:41:26Z</time>
      </trkpt>
      <trkpt lat="45.99483" lon="6.56103">
        <ele>1939.6</ele>
        <time>2011-03-05T07:41:37Z</time>
      </trkpt>
      <trkpt lat="45.9948" lon="6.56112">
        <ele>1941.04</ele>
        <time>2011-03-05T07:41:46Z</time>
      </trkpt>
      <trkpt lat="45.99476" lon="6.56121">
        <ele>1943.92</ele>
        <time>2011-03-05T07:41:57Z</time>
      </trkpt>
      <trkpt lat="45.99474" lon="6.56126">
        <ele>1945.36</ele>
        <time>2011-03-05T07:42:13Z</time>
      </trkpt>
      <trkpt lat="45.99471" lon="6.56135">
        <ele>1946.81</ele>
        <time>2011-03-05T07:42:23Z</time>
      </trkpt>
      <trkpt lat="45.99466" lon="6.56148">
        <ele>1948.25</ele>
        <time>2011-03-05T07:42:34Z</time>
      </trkpt>
      <trkpt lat="45.99462" lon="6.56159">
        <ele>1950.65</ele>
        <time>2011-03-05T07:42:45Z</time>
      </trkpt>
      <trkpt lat="45.99458" lon="6.56171">
        <ele>1953.06</ele>
        <time>2011-03-05T07:42:58Z</time>
      </trkpt>
      <trkpt lat="45.99456" lon="6.56182">
        <ele>1954.5</ele>
        <time>2011-03-05T07:43:09Z</time>
      </trkpt>
      <trkpt lat="45.99454" lon="6.56191">
        <ele>1956.42</ele>
        <time>2011-03-05T07:43:18Z</time>
      </trkpt>
      <trkpt lat="45.99451" lon="6.562">
        <ele>1958.82</ele>
        <time>2011-03-05T07:43:27Z</time>
      </trkpt>
      <trkpt lat="45.99451" lon="6.562">
        <ele>1959.3</ele>
        <time>2011-03-05T07:43:41Z</time>
      </trkpt>
      <trkpt lat="45.9945" lon="6.56208">
        <ele>1959.3</ele>
        <time>2011-03-05T07:43:52Z</time>
      </trkpt>
      <trkpt lat="45.99448" lon="6.5622">
        <ele>1961.23</ele>
        <time>2011-03-05T07:44:02Z</time>
      </trkpt>
      <trkpt lat="45.99446" lon="6.56231">
        <ele>1962.67</ele>
        <time>2011-03-05T07:44:12Z</time>
      </trkpt>
      <trkpt lat="45.99444" lon="6.56242">
        <ele>1963.63</ele>
        <time>2011-03-05T07:44:21Z</time>
      </trkpt>
      <trkpt lat="45.99441" lon="6.56253">
        <ele>1966.51</ele>
        <time>2011-03-05T07:44:32Z</time>
      </trkpt>
      <trkpt lat="45.99439" lon="6.56263">
        <ele>1967.96</ele>
        <time>2011-03-05T07:44:42Z</time>
      </trkpt>
      <trkpt lat="45.99436" lon="6.56275">
        <ele>1968.92</ele>
        <time>2011-03-05T07:44:52Z</time>
      </trkpt>
      <trkpt lat="45.99435" lon="6.56286">
        <ele>1969.88</ele>
        <time>2011-03-05T07:45:02Z</time>
      </trkpt>
      <trkpt lat="45.99435" lon="6.5629">
        <ele>1970.36</ele>
        <time>2011-03-05T07:45:15Z</time>
      </trkpt>
      <trkpt lat="45.99434" lon="6.56294">
        <ele>1970.84</ele>
        <time>2011-03-05T07:45:18Z</time>
      </trkpt>
      <trkpt lat="45.99434" lon="6.5631">
        <ele>1971.32</ele>
        <time>2011-03-05T07:45:31Z</time>
      </trkpt>
      <trkpt lat="45.99434" lon="6.5632">
        <ele>1972.76</ele>
        <time>2011-03-05T07:45:39Z</time>
      </trkpt>
      <trkpt lat="45.99431" lon="6.56332">
        <ele>1974.69</ele>
        <time>2011-03-05T07:45:50Z</time>
      </trkpt>
      <trkpt lat="45.99429" lon="6.56348">
        <ele>1976.61</ele>
        <time>2011-03-05T07:46:03Z</time>
      </trkpt>
      <trkpt lat="45.99425" lon="6.5636">
        <ele>1978.53</ele>
        <time>2011-03-05T07:46:14Z</time>
      </trkpt>
      <trkpt lat="45.9942" lon="6.56371">
        <ele>1980.45</ele>
        <time>2011-03-05T07:46:24Z</time>
      </trkpt>
      <trkpt lat="45.99419" lon="6.56376">
        <ele>1982.38</ele>
        <time>2011-03-05T07:46:36Z</time>
      </trkpt>
      <trkpt lat="45.99416" lon="6.56382">
        <ele>1982.38</ele>
        <time>2011-03-05T07:46:49Z</time>
      </trkpt>
      <trkpt lat="45.99414" lon="6.56386">
        <ele>1982.38</ele>
        <time>2011-03-05T07:46:53Z</time>
      </trkpt>
      <trkpt lat="45.99413" lon="6.5639">
        <ele>1982.38</ele>
        <time>2011-03-05T07:46:57Z</time>
      </trkpt>
      <trkpt lat="45.99409" lon="6.56404">
        <ele>1983.34</ele>
        <time>2011-03-05T07:47:08Z</time>
      </trkpt>
      <trkpt lat="45.99404" lon="6.56421">
        <ele>1985.26</ele>
        <time>2011-03-05T07:47:20Z</time>
      </trkpt>
      <trkpt lat="45.99398" lon="6.56434">
        <ele>1986.7</ele>
        <time>2011-03-05T07:47:30Z</time>
      </trkpt>
      <trkpt lat="45.99394" lon="6.56444">
        <ele>1988.14</ele>
        <time>2011-03-05T07:47:40Z</time>
      </trkpt>
      <trkpt lat="45.99389" lon="6.56457">
        <ele>1988.14</ele>
        <time>2011-03-05T07:47:51Z</time>
      </trkpt>
      <trkpt lat="45.99383" lon="6.5647">
        <ele>1989.59</ele>
        <time>2011-03-05T07:48:02Z</time>
      </trkpt>
      <trkpt lat="45.9938" lon="6.56487">
        <ele>1989.59</ele>
        <time>2011-03-05T07:48:15Z</time>
      </trkpt>
      <trkpt lat="45.99376" lon="6.56501">
        <ele>1989.59</ele>
        <time>2011-03-05T07:48:26Z</time>
      </trkpt>
      <trkpt lat="45.99369" lon="6.56515">
        <ele>1990.55</ele>
        <time>2011-03-05T07:48:39Z</time>
      </trkpt>
      <trkpt lat="45.99365" lon="6.5653">
        <ele>1992.95</ele>
        <time>2011-03-05T07:48:51Z</time>
      </trkpt>
      <trkpt lat="45.99363" lon="6.5654">
        <ele>1994.39</ele>
        <time>2011-03-05T07:49:00Z</time>
      </trkpt>
      <trkpt lat="45.99358" lon="6.56552">
        <ele>1995.35</ele>
        <time>2011-03-05T07:49:12Z</time>
      </trkpt>
      <trkpt lat="45.99353" lon="6.56564">
        <ele>1998.24</ele>
        <time>2011-03-05T07:49:23Z</time>
      </trkpt>
      <trkpt lat="45.99351" lon="6.5657">
        <ele>1999.2</ele>
        <time>2011-03-05T07:49:29Z</time>
      </trkpt>
      <trkpt lat="45.99346" lon="6.56583">
        <ele>2000.16</ele>
        <time>2011-03-05T07:49:40Z</time>
      </trkpt>
      <trkpt lat="45.99344" lon="6.56592">
        <ele>2001.12</ele>
        <time>2011-03-05T07:49:50Z</time>
      </trkpt>
      <trkpt lat="45.9934" lon="6.56603">
        <ele>2004.49</ele>
        <time>2011-03-05T07:50:01Z</time>
      </trkpt>
      <trkpt lat="45.99336" lon="6.56612">
        <ele>2005.93</ele>
        <time>2011-03-05T07:50:11Z</time>
      </trkpt>
      <trkpt lat="45.99336" lon="6.56615">
        <ele>2005.93</ele>
        <time>2011-03-05T07:50:20Z</time>
      </trkpt>
      <trkpt lat="45.99332" lon="6.56628">
        <ele>2007.37</ele>
        <time>2011-03-05T07:50:32Z</time>
      </trkpt>
      <trkpt lat="45.9933" lon="6.56632">
        <ele>2007.37</ele>
        <time>2011-03-05T07:50:42Z</time>
      </trkpt>
      <trkpt lat="45.9933" lon="6.56633">
        <ele>2007.37</ele>
        <time>2011-03-05T07:51:02Z</time>
      </trkpt>
      <trkpt lat="45.99324" lon="6.56644">
        <ele>2008.33</ele>
        <time>2011-03-05T07:51:12Z</time>
      </trkpt>
      <trkpt lat="45.9932" lon="6.56655">
        <ele>2010.25</ele>
        <time>2011-03-05T07:51:23Z</time>
      </trkpt>
      <trkpt lat="45.99319" lon="6.56657">
        <ele>2010.73</ele>
        <time>2011-03-05T07:51:25Z</time>
      </trkpt>
      <trkpt lat="45.99314" lon="6.56667">
        <ele>2013.14</ele>
        <time>2011-03-05T07:51:36Z</time>
      </trkpt>
      <trkpt lat="45.99309" lon="6.56674">
        <ele>2014.1</ele>
        <time>2011-03-05T07:51:47Z</time>
      </trkpt>
      <trkpt lat="45.99302" lon="6.56682">
        <ele>2016.02</ele>
        <time>2011-03-05T07:51:59Z</time>
      </trkpt>
      <trkpt lat="45.993" lon="6.56686">
        <ele>2016.98</ele>
        <time>2011-03-05T07:52:10Z</time>
      </trkpt>
      <trkpt lat="45.99297" lon="6.56692">
        <ele>2016.98</ele>
        <time>2011-03-05T07:52:26Z</time>
      </trkpt>
      <trkpt lat="45.99293" lon="6.56705">
        <ele>2019.39</ele>
        <time>2011-03-05T07:52:38Z</time>
      </trkpt>
      <trkpt lat="45.9929" lon="6.56715">
        <ele>2021.79</ele>
        <time>2011-03-05T07:52:48Z</time>
      </trkpt>
      <trkpt lat="45.99286" lon="6.56724">
        <ele>2023.23</ele>
        <time>2011-03-05T07:52:58Z</time>
      </trkpt>
      <trkpt lat="45.9928" lon="6.5673">
        <ele>2027.08</ele>
        <time>2011-03-05T07:53:10Z</time>
      </trkpt>
      <trkpt lat="45.99271" lon="6.56734">
        <ele>2029.96</ele>
        <time>2011-03-05T07:53:23Z</time>
      </trkpt>
      <trkpt lat="45.99265" lon="6.56735">
        <ele>2032.36</ele>
        <time>2011-03-05T07:53:35Z</time>
      </trkpt>
      <trkpt lat="45.99268" lon="6.56741">
        <ele>2032.36</ele>
        <time>2011-03-05T07:53:50Z</time>
      </trkpt>
      <trkpt lat="45.99273" lon="6.56751">
        <ele>2033.81</ele>
        <time>2011-03-05T07:54:01Z</time>
      </trkpt>
      <trkpt lat="45.9928" lon="6.56756">
        <ele>2037.17</ele>
        <time>2011-03-05T07:54:14Z</time>
      </trkpt>
      <trkpt lat="45.99284" lon="6.56759">
        <ele>2040.05</ele>
        <time>2011-03-05T07:54:26Z</time>
      </trkpt>
      <trkpt lat="45.99285" lon="6.56759">
        <ele>2040.05</ele>
        <time>2011-03-05T07:54:46Z</time>
      </trkpt>
      <trkpt lat="45.99291" lon="6.56765">
        <ele>2041.5</ele>
        <time>2011-03-05T07:54:58Z</time>
      </trkpt>
      <trkpt lat="45.99297" lon="6.56771">
        <ele>2043.42</ele>
        <time>2011-03-05T07:55:09Z</time>
      </trkpt>
      <trkpt lat="45.99296" lon="6.5678">
        <ele>2044.38</ele>
        <time>2011-03-05T07:55:21Z</time>
      </trkpt>
      <trkpt lat="45.99292" lon="6.56788">
        <ele>2043.9</ele>
        <time>2011-03-05T07:55:32Z</time>
      </trkpt>
      <trkpt lat="45.99289" lon="6.56798">
        <ele>2044.38</ele>
        <time>2011-03-05T07:55:44Z</time>
      </trkpt>
      <trkpt lat="45.99286" lon="6.56806">
        <ele>2047.26</ele>
        <time>2011-03-05T07:55:56Z</time>
      </trkpt>
      <trkpt lat="45.99286" lon="6.56807">
        <ele>2047.26</ele>
        <time>2011-03-05T07:56:10Z</time>
      </trkpt>
      <trkpt lat="45.9929" lon="6.5681">
        <ele>2049.67</ele>
        <time>2011-03-05T07:56:23Z</time>
      </trkpt>
      <trkpt lat="45.99296" lon="6.56814">
        <ele>2053.51</ele>
        <time>2011-03-05T07:56:35Z</time>
      </trkpt>
      <trkpt lat="45.993" lon="6.56817">
        <ele>2056.88</ele>
        <time>2011-03-05T07:56:47Z</time>
      </trkpt>
      <trkpt lat="45.993" lon="6.56821">
        <ele>2058.8</ele>
        <time>2011-03-05T07:57:05Z</time>
      </trkpt>
      <trkpt lat="45.99295" lon="6.56832">
        <ele>2063.61</ele>
        <time>2011-03-05T07:57:18Z</time>
      </trkpt>
      <trkpt lat="45.99294" lon="6.56838">
        <ele>2066.49</ele>
        <time>2011-03-05T07:57:29Z</time>
      </trkpt>
      <trkpt lat="45.99293" lon="6.56842">
        <ele>2067.45</ele>
        <time>2011-03-05T07:57:46Z</time>
      </trkpt>
      <trkpt lat="45.9929" lon="6.56852">
        <ele>2068.41</ele>
        <time>2011-03-05T07:57:58Z</time>
      </trkpt>
      <trkpt lat="45.99288" lon="6.5686">
        <ele>2070.82</ele>
        <time>2011-03-05T07:58:08Z</time>
      </trkpt>
      <trkpt lat="45.99287" lon="6.56863">
        <ele>2070.82</ele>
        <time>2011-03-05T07:58:20Z</time>
      </trkpt>
      <trkpt lat="45.99287" lon="6.56863">
        <ele>2071.3</ele>
        <time>2011-03-05T07:58:38Z</time>
      </trkpt>
      <trkpt lat="45.99287" lon="6.56863">
        <ele>2071.3</ele>
        <time>2011-03-05T07:58:56Z</time>
      </trkpt>
      <trkpt lat="45.99287" lon="6.56862">
        <ele>2071.3</ele>
        <time>2011-03-05T07:59:15Z</time>
      </trkpt>
      <trkpt lat="45.99287" lon="6.56867">
        <ele>2073.22</ele>
        <time>2011-03-05T07:59:27Z</time>
      </trkpt>
      <trkpt lat="45.99287" lon="6.56867">
        <ele>2073.22</ele>
        <time>2011-03-05T07:59:45Z</time>
      </trkpt>
      <trkpt lat="45.99287" lon="6.56867">
        <ele>2073.22</ele>
        <time>2011-03-05T08:00:08Z</time>
      </trkpt>
      <trkpt lat="45.99289" lon="6.56867">
        <ele>2073.22</ele>
        <time>2011-03-05T08:00:27Z</time>
      </trkpt>
      <trkpt lat="45.99295" lon="6.56872">
        <ele>2076.1</ele>
        <time>2011-03-05T08:00:39Z</time>
      </trkpt>
      <trkpt lat="45.99299" lon="6.56873">
        <ele>2078.03</ele>
        <time>2011-03-05T08:00:51Z</time>
      </trkpt>
      <trkpt lat="45.99304" lon="6.56876">
        <ele>2079.47</ele>
        <time>2011-03-05T08:01:01Z</time>
      </trkpt>
      <trkpt lat="45.99301" lon="6.56886">
        <ele>2082.35</ele>
        <time>2011-03-05T08:01:11Z</time>
      </trkpt>
      <trkpt lat="45.99297" lon="6.56897">
        <ele>2085.24</ele>
        <time>2011-03-05T08:01:23Z</time>
      </trkpt>
      <trkpt lat="45.99296" lon="6.56904">
        <ele>2087.64</ele>
        <time>2011-03-05T08:01:35Z</time>
      </trkpt>
      <trkpt lat="45.99294" lon="6.56915">
        <ele>2091.49</ele>
        <time>2011-03-05T08:01:47Z</time>
      </trkpt>
      <trkpt lat="45.99293" lon="6.56917">
        <ele>2091.97</ele>
        <time>2011-03-05T08:01:49Z</time>
      </trkpt>
      <trkpt lat="45.9929" lon="6.56929">
        <ele>2095.81</ele>
        <time>2011-03-05T08:02:01Z</time>
      </trkpt>
      <trkpt lat="45.99287" lon="6.56941">
        <ele>2096.77</ele>
        <time>2011-03-05T08:02:11Z</time>
      </trkpt>
      <trkpt lat="45.99287" lon="6.56949">
        <ele>2099.66</ele>
        <time>2011-03-05T08:02:20Z</time>
      </trkpt>
      <trkpt lat="45.99288" lon="6.56957">
        <ele>2101.58</ele>
        <time>2011-03-05T08:02:28Z</time>
      </trkpt>
      <trkpt lat="45.99293" lon="6.56969">
        <ele>2103.98</ele>
        <time>2011-03-05T08:02:40Z</time>
      </trkpt>
      <trkpt lat="45.99297" lon="6.56976">
        <ele>2103.98</ele>
        <time>2011-03-05T08:02:54Z</time>
      </trkpt>
      <trkpt lat="45.99297" lon="6.56976">
        <ele>2103.98</ele>
        <time>2011-03-05T08:03:13Z</time>
      </trkpt>
      <trkpt lat="45.99297" lon="6.56976">
        <ele>2104.46</ele>
        <time>2011-03-05T08:03:36Z</time>
      </trkpt>
      <trkpt lat="45.99297" lon="6.56976">
        <ele>2104.46</ele>
        <time>2011-03-05T08:03:52Z</time>
      </trkpt>
      <trkpt lat="45.99297" lon="6.56976">
        <ele>2103.98</ele>
        <time>2011-03-05T08:04:18Z</time>
      </trkpt>
      <trkpt lat="45.99297" lon="6.56976">
        <ele>2103.98</ele>
        <time>2011-03-05T08:04:37Z</time>
      </trkpt>
      <trkpt lat="45.99297" lon="6.56976">
        <ele>2103.98</ele>
        <time>2011-03-05T08:04:56Z</time>
      </trkpt>
      <trkpt lat="45.99297" lon="6.56976">
        <ele>2103.98</ele>
        <time>2011-03-05T08:05:08Z</time>
      </trkpt>
      <trkpt lat="45.99294" lon="6.56978">
        <ele>2103.98</ele>
        <time>2011-03-05T08:05:21Z</time>
      </trkpt>
      <trkpt lat="45.99287" lon="6.56979">
        <ele>2103.5</ele>
        <time>2011-03-05T08:05:35Z</time>
      </trkpt>
      <trkpt lat="45.99277" lon="6.5698">
        <ele>2104.94</ele>
        <time>2011-03-05T08:05:46Z</time>
      </trkpt>
      <trkpt lat="45.99271" lon="6.56988">
        <ele>2107.35</ele>
        <time>2011-03-05T08:05:56Z</time>
      </trkpt>
      <trkpt lat="45.99264" lon="6.56995">
        <ele>2109.75</ele>
        <time>2011-03-05T08:06:07Z</time>
      </trkpt>
      <trkpt lat="45.99256" lon="6.56994">
        <ele>2112.15</ele>
        <time>2011-03-05T08:06:18Z</time>
      </trkpt>
      <trkpt lat="45.99249" lon="6.56992">
        <ele>2114.08</ele>
        <time>2011-03-05T08:06:29Z</time>
      </trkpt>
      <trkpt lat="45.99243" lon="6.5699">
        <ele>2116</ele>
        <time>2011-03-05T08:06:38Z</time>
      </trkpt>
      <trkpt lat="45.99236" lon="6.56989">
        <ele>2117.92</ele>
        <time>2011-03-05T08:06:48Z</time>
      </trkpt>
      <trkpt lat="45.9923" lon="6.56987">
        <ele>2120.81</ele>
        <time>2011-03-05T08:06:58Z</time>
      </trkpt>
      <trkpt lat="45.99231" lon="6.56998">
        <ele>2125.13</ele>
        <time>2011-03-05T08:07:10Z</time>
      </trkpt>
      <trkpt lat="45.99231" lon="6.57005">
        <ele>2126.09</ele>
        <time>2011-03-05T08:07:17Z</time>
      </trkpt>
      <trkpt lat="45.99231" lon="6.57013">
        <ele>2127.05</ele>
        <time>2011-03-05T08:07:29Z</time>
      </trkpt>
      <trkpt lat="45.99228" lon="6.57016">
        <ele>2127.53</ele>
        <time>2011-03-05T08:07:40Z</time>
      </trkpt>
      <trkpt lat="45.99222" lon="6.57013">
        <ele>2128.5</ele>
        <time>2011-03-05T08:07:50Z</time>
      </trkpt>
      <trkpt lat="45.99215" lon="6.5701">
        <ele>2130.42</ele>
        <time>2011-03-05T08:07:59Z</time>
      </trkpt>
      <trkpt lat="45.99208" lon="6.57006">
        <ele>2133.3</ele>
        <time>2011-03-05T08:08:10Z</time>
      </trkpt>
      <trkpt lat="45.99201" lon="6.57003">
        <ele>2135.23</ele>
        <time>2011-03-05T08:08:21Z</time>
      </trkpt>
      <trkpt lat="45.99194" lon="6.57">
        <ele>2138.59</ele>
        <time>2011-03-05T08:08:33Z</time>
      </trkpt>
      <trkpt lat="45.99192" lon="6.57006">
        <ele>2141.95</ele>
        <time>2011-03-05T08:08:43Z</time>
      </trkpt>
      <trkpt lat="45.99195" lon="6.57015">
        <ele>2145.32</ele>
        <time>2011-03-05T08:08:53Z</time>
      </trkpt>
      <trkpt lat="45.99196" lon="6.57024">
        <ele>2148.2</ele>
        <time>2011-03-05T08:09:03Z</time>
      </trkpt>
      <trkpt lat="45.99196" lon="6.57033">
        <ele>2150.13</ele>
        <time>2011-03-05T08:09:15Z</time>
      </trkpt>
      <trkpt lat="45.99194" lon="6.57041">
        <ele>2152.05</ele>
        <time>2011-03-05T08:09:25Z</time>
      </trkpt>
      <trkpt lat="45.99192" lon="6.57044">
        <ele>2152.53</ele>
        <time>2011-03-05T08:09:37Z</time>
      </trkpt>
      <trkpt lat="45.99192" lon="6.57044">
        <ele>2152.53</ele>
        <time>2011-03-05T08:09:49Z</time>
      </trkpt>
      <trkpt lat="45.99185" lon="6.57038">
        <ele>2153.01</ele>
        <time>2011-03-05T08:09:59Z</time>
      </trkpt>
      <trkpt lat="45.99182" lon="6.57037">
        <ele>2153.01</ele>
        <time>2011-03-05T08:10:02Z</time>
      </trkpt>
      <trkpt lat="45.99173" lon="6.5703">
        <ele>2153.97</ele>
        <time>2011-03-05T08:10:14Z</time>
      </trkpt>
      <trkpt lat="45.99166" lon="6.57025">
        <ele>2154.93</ele>
        <time>2011-03-05T08:10:24Z</time>
      </trkpt>
      <trkpt lat="45.99167" lon="6.57028">
        <ele>2154.93</ele>
        <time>2011-03-05T08:10:35Z</time>
      </trkpt>
      <trkpt lat="45.99166" lon="6.5704">
        <ele>2156.37</ele>
        <time>2011-03-05T08:10:45Z</time>
      </trkpt>
      <trkpt lat="45.99166" lon="6.57048">
        <ele>2158.3</ele>
        <time>2011-03-05T08:10:55Z</time>
      </trkpt>
      <trkpt lat="45.99165" lon="6.57058">
        <ele>2160.22</ele>
        <time>2011-03-05T08:11:06Z</time>
      </trkpt>
      <trkpt lat="45.99163" lon="6.57064">
        <ele>2161.66</ele>
        <time>2011-03-05T08:11:18Z</time>
      </trkpt>
      <trkpt lat="45.99161" lon="6.57061">
        <ele>2163.1</ele>
        <time>2011-03-05T08:11:28Z</time>
      </trkpt>
      <trkpt lat="45.99154" lon="6.57054">
        <ele>2165.51</ele>
        <time>2011-03-05T08:11:40Z</time>
      </trkpt>
      <trkpt lat="45.99152" lon="6.57053">
        <ele>2165.99</ele>
        <time>2011-03-05T08:11:42Z</time>
      </trkpt>
      <trkpt lat="45.99144" lon="6.57047">
        <ele>2168.87</ele>
        <time>2011-03-05T08:11:54Z</time>
      </trkpt>
      <trkpt lat="45.99138" lon="6.57043">
        <ele>2169.83</ele>
        <time>2011-03-05T08:12:05Z</time>
      </trkpt>
      <trkpt lat="45.99137" lon="6.57042">
        <ele>2169.83</ele>
        <time>2011-03-05T08:12:15Z</time>
      </trkpt>
      <trkpt lat="45.99139" lon="6.57054">
        <ele>2170.79</ele>
        <time>2011-03-05T08:12:24Z</time>
      </trkpt>
      <trkpt lat="45.99137" lon="6.57065">
        <ele>2171.76</ele>
        <time>2011-03-05T08:12:33Z</time>
      </trkpt>
      <trkpt lat="45.99137" lon="6.57077">
        <ele>2174.16</ele>
        <time>2011-03-05T08:12:44Z</time>
      </trkpt>
      <trkpt lat="45.99136" lon="6.57086">
        <ele>2176.56</ele>
        <time>2011-03-05T08:12:54Z</time>
      </trkpt>
      <trkpt lat="45.99135" lon="6.57092">
        <ele>2178</ele>
        <time>2011-03-05T08:13:07Z</time>
      </trkpt>
      <trkpt lat="45.99132" lon="6.57088">
        <ele>2178.97</ele>
        <time>2011-03-05T08:13:19Z</time>
      </trkpt>
      <trkpt lat="45.9913" lon="6.57086">
        <ele>2179.45</ele>
        <time>2011-03-05T08:13:22Z</time>
      </trkpt>
      <trkpt lat="45.99124" lon="6.57081">
        <ele>2182.81</ele>
        <time>2011-03-05T08:13:33Z</time>
      </trkpt>
      <trkpt lat="45.99119" lon="6.57075">
        <ele>2184.73</ele>
        <time>2011-03-05T08:13:43Z</time>
      </trkpt>
      <trkpt lat="45.99115" lon="6.57073">
        <ele>2186.18</ele>
        <time>2011-03-05T08:13:54Z</time>
      </trkpt>
      <trkpt lat="45.99115" lon="6.57073">
        <ele>2186.18</ele>
        <time>2011-03-05T08:14:10Z</time>
      </trkpt>
      <trkpt lat="45.99114" lon="6.57079">
        <ele>2187.14</ele>
        <time>2011-03-05T08:14:17Z</time>
      </trkpt>
      <trkpt lat="45.99113" lon="6.5709">
        <ele>2189.54</ele>
        <time>2011-03-05T08:14:27Z</time>
      </trkpt>
      <trkpt lat="45.99112" lon="6.571">
        <ele>2191.94</ele>
        <time>2011-03-05T08:14:36Z</time>
      </trkpt>
      <trkpt lat="45.99109" lon="6.57097">
        <ele>2191.94</ele>
        <time>2011-03-05T08:14:48Z</time>
      </trkpt>
      <trkpt lat="45.99103" lon="6.57094">
        <ele>2195.31</ele>
        <time>2011-03-05T08:14:58Z</time>
      </trkpt>
      <trkpt lat="45.99096" lon="6.57089">
        <ele>2197.23</ele>
        <time>2011-03-05T08:15:08Z</time>
      </trkpt>
      <trkpt lat="45.99089" lon="6.57085">
        <ele>2198.19</ele>
        <time>2011-03-05T08:15:18Z</time>
      </trkpt>
      <trkpt lat="45.99081" lon="6.57081">
        <ele>2200.11</ele>
        <time>2011-03-05T08:15:29Z</time>
      </trkpt>
      <trkpt lat="45.99075" lon="6.5708">
        <ele>2202.04</ele>
        <time>2011-03-05T08:15:37Z</time>
      </trkpt>
      <trkpt lat="45.99065" lon="6.57077">
        <ele>2204.92</ele>
        <time>2011-03-05T08:15:48Z</time>
      </trkpt>
      <trkpt lat="45.99057" lon="6.57078">
        <ele>2206.84</ele>
        <time>2011-03-05T08:15:59Z</time>
      </trkpt>
      <trkpt lat="45.99054" lon="6.57082">
        <ele>2208.29</ele>
        <time>2011-03-05T08:16:05Z</time>
      </trkpt>
      <trkpt lat="45.99052" lon="6.57084">
        <ele>2208.77</ele>
        <time>2011-03-05T08:16:07Z</time>
      </trkpt>
      <trkpt lat="45.99047" lon="6.57086">
        <ele>2209.73</ele>
        <time>2011-03-05T08:16:18Z</time>
      </trkpt>
      <trkpt lat="45.99047" lon="6.57086">
        <ele>2209.73</ele>
        <time>2011-03-05T08:16:35Z</time>
      </trkpt>
      <trkpt lat="45.99047" lon="6.57086">
        <ele>2209.25</ele>
        <time>2011-03-05T08:16:59Z</time>
      </trkpt>
      <trkpt lat="45.99046" lon="6.57084">
        <ele>2209.25</ele>
        <time>2011-03-05T08:17:08Z</time>
      </trkpt>
      <trkpt lat="45.99034" lon="6.57079">
        <ele>2211.17</ele>
        <time>2011-03-05T08:17:19Z</time>
      </trkpt>
      <trkpt lat="45.99023" lon="6.57073">
        <ele>2212.61</ele>
        <time>2011-03-05T08:17:30Z</time>
      </trkpt>
      <trkpt lat="45.99013" lon="6.57069">
        <ele>2214.53</ele>
        <time>2011-03-05T08:17:41Z</time>
      </trkpt>
      <trkpt lat="45.99002" lon="6.57064">
        <ele>2215.01</ele>
        <time>2011-03-05T08:17:52Z</time>
      </trkpt>
      <trkpt lat="45.98992" lon="6.57059">
        <ele>2215.98</ele>
        <time>2011-03-05T08:18:03Z</time>
      </trkpt>
      <trkpt lat="45.98984" lon="6.57054">
        <ele>2217.42</ele>
        <time>2011-03-05T08:18:14Z</time>
      </trkpt>
      <trkpt lat="45.98976" lon="6.5705">
        <ele>2220.3</ele>
        <time>2011-03-05T08:18:23Z</time>
      </trkpt>
      <trkpt lat="45.98966" lon="6.57045">
        <ele>2223.19</ele>
        <time>2011-03-05T08:18:34Z</time>
      </trkpt>
      <trkpt lat="45.98957" lon="6.5704">
        <ele>2224.63</ele>
        <time>2011-03-05T08:18:44Z</time>
      </trkpt>
      <trkpt lat="45.98947" lon="6.57035">
        <ele>2225.59</ele>
        <time>2011-03-05T08:18:57Z</time>
      </trkpt>
      <trkpt lat="45.98945" lon="6.57034">
        <ele>2225.59</ele>
        <time>2011-03-05T08:19:09Z</time>
      </trkpt>
      <trkpt lat="45.98944" lon="6.57032">
        <ele>2225.11</ele>
        <time>2011-03-05T08:19:21Z</time>
      </trkpt>
      <trkpt lat="45.98943" lon="6.57031">
        <ele>2224.63</ele>
        <time>2011-03-05T08:19:27Z</time>
      </trkpt>
      <trkpt lat="45.98926" lon="6.57022">
        <ele>2221.74</ele>
        <time>2011-03-05T08:19:40Z</time>
      </trkpt>
      <trkpt lat="45.98913" lon="6.57013">
        <ele>2220.3</ele>
        <time>2011-03-05T08:19:51Z</time>
      </trkpt>
      <trkpt lat="45.98896" lon="6.57011">
        <ele>2218.86</ele>
        <time>2011-03-05T08:20:03Z</time>
      </trkpt>
      <trkpt lat="45.98879" lon="6.57007">
        <ele>2218.86</ele>
        <time>2011-03-05T08:20:15Z</time>
      </trkpt>
      <trkpt lat="45.98867" lon="6.57003">
        <ele>2220.3</ele>
        <time>2011-03-05T08:20:25Z</time>
      </trkpt>
      <trkpt lat="45.98856" lon="6.57">
        <ele>2220.78</ele>
        <time>2011-03-05T08:20:36Z</time>
      </trkpt>
      <trkpt lat="45.98845" lon="6.56995">
        <ele>2221.74</ele>
        <time>2011-03-05T08:20:46Z</time>
      </trkpt>
      <trkpt lat="45.98832" lon="6.56989">
        <ele>2224.15</ele>
        <time>2011-03-05T08:20:57Z</time>
      </trkpt>
      <trkpt lat="45.98821" lon="6.56984">
        <ele>2224.63</ele>
        <time>2011-03-05T08:21:08Z</time>
      </trkpt>
      <trkpt lat="45.9881" lon="6.56978">
        <ele>2225.59</ele>
        <time>2011-03-05T08:21:19Z</time>
      </trkpt>
      <trkpt lat="45.98798" lon="6.56975">
        <ele>2227.51</ele>
        <time>2011-03-05T08:21:31Z</time>
      </trkpt>
      <trkpt lat="45.98787" lon="6.56974">
        <ele>2231.36</ele>
        <time>2011-03-05T08:21:42Z</time>
      </trkpt>
      <trkpt lat="45.98779" lon="6.56971">
        <ele>2235.2</ele>
        <time>2011-03-05T08:21:52Z</time>
      </trkpt>
      <trkpt lat="45.98778" lon="6.5697">
        <ele>2235.2</ele>
        <time>2011-03-05T08:22:06Z</time>
      </trkpt>
      <trkpt lat="45.98769" lon="6.56968">
        <ele>2235.2</ele>
        <time>2011-03-05T08:22:17Z</time>
      </trkpt>
      <trkpt lat="45.98762" lon="6.56963">
        <ele>2237.61</ele>
        <time>2011-03-05T08:22:27Z</time>
      </trkpt>
      <trkpt lat="45.98757" lon="6.56962">
        <ele>2238.57</ele>
        <time>2011-03-05T08:22:34Z</time>
      </trkpt>
      <trkpt lat="45.98748" lon="6.56959">
        <ele>2240.97</ele>
        <time>2011-03-05T08:22:44Z</time>
      </trkpt>
      <trkpt lat="45.98745" lon="6.56958">
        <ele>2242.41</ele>
        <time>2011-03-05T08:22:48Z</time>
      </trkpt>
      <trkpt lat="45.98742" lon="6.56957">
        <ele>2243.85</ele>
        <time>2011-03-05T08:22:53Z</time>
      </trkpt>
      <trkpt lat="45.9874" lon="6.56958">
        <ele>2244.82</ele>
        <time>2011-03-05T08:23:05Z</time>
      </trkpt>
      <trkpt lat="45.98733" lon="6.56957">
        <ele>2246.26</ele>
        <time>2011-03-05T08:23:15Z</time>
      </trkpt>
      <trkpt lat="45.98725" lon="6.56956">
        <ele>2248.66</ele>
        <time>2011-03-05T08:23:25Z</time>
      </trkpt>
      <trkpt lat="45.98717" lon="6.56954">
        <ele>2251.54</ele>
        <time>2011-03-05T08:23:36Z</time>
      </trkpt>
      <trkpt lat="45.98708" lon="6.56955">
        <ele>2252.99</ele>
        <time>2011-03-05T08:23:47Z</time>
      </trkpt>
      <trkpt lat="45.98699" lon="6.56956">
        <ele>2253.95</ele>
        <time>2011-03-05T08:23:58Z</time>
      </trkpt>
      <trkpt lat="45.98696" lon="6.56956">
        <ele>2254.91</ele>
        <time>2011-03-05T08:24:02Z</time>
      </trkpt>
      <trkpt lat="45.98693" lon="6.56957">
        <ele>2255.39</ele>
        <time>2011-03-05T08:24:05Z</time>
      </trkpt>
      <trkpt lat="45.9868" lon="6.56961">
        <ele>2257.31</ele>
        <time>2011-03-05T08:24:19Z</time>
      </trkpt>
      <trkpt lat="45.98673" lon="6.56963">
        <ele>2258.27</ele>
        <time>2011-03-05T08:24:28Z</time>
      </trkpt>
      <trkpt lat="45.98664" lon="6.56967">
        <ele>2260.68</ele>
        <time>2011-03-05T08:24:39Z</time>
      </trkpt>
      <trkpt lat="45.98655" lon="6.56972">
        <ele>2264.04</ele>
        <time>2011-03-05T08:24:50Z</time>
      </trkpt>
      <trkpt lat="45.98645" lon="6.56978">
        <ele>2265.96</ele>
        <time>2011-03-05T08:25:02Z</time>
      </trkpt>
      <trkpt lat="45.98637" lon="6.56982">
        <ele>2266.93</ele>
        <time>2011-03-05T08:25:12Z</time>
      </trkpt>
      <trkpt lat="45.9863" lon="6.56985">
        <ele>2267.41</ele>
        <time>2011-03-05T08:25:22Z</time>
      </trkpt>
      <trkpt lat="45.98625" lon="6.56987">
        <ele>2267.41</ele>
        <time>2011-03-05T08:25:32Z</time>
      </trkpt>
      <trkpt lat="45.98623" lon="6.56988">
        <ele>2267.41</ele>
        <time>2011-03-05T08:25:46Z</time>
      </trkpt>
      <trkpt lat="45.98623" lon="6.56989">
        <ele>2266.93</ele>
        <time>2011-03-05T08:25:47Z</time>
      </trkpt>
      <trkpt lat="45.98609" lon="6.56993">
        <ele>2265.48</ele>
        <time>2011-03-05T08:26:01Z</time>
      </trkpt>
      <trkpt lat="45.98598" lon="6.56997">
        <ele>2265.48</ele>
        <time>2011-03-05T08:26:11Z</time>
      </trkpt>
      <trkpt lat="45.98587" lon="6.56999">
        <ele>2266.45</ele>
        <time>2011-03-05T08:26:23Z</time>
      </trkpt>
      <trkpt lat="45.98577" lon="6.57">
        <ele>2268.37</ele>
        <time>2011-03-05T08:26:34Z</time>
      </trkpt>
      <trkpt lat="45.98568" lon="6.57001">
        <ele>2270.77</ele>
        <time>2011-03-05T08:26:44Z</time>
      </trkpt>
      <trkpt lat="45.98558" lon="6.57007">
        <ele>2273.66</ele>
        <time>2011-03-05T08:26:55Z</time>
      </trkpt>
      <trkpt lat="45.98547" lon="6.57018">
        <ele>2273.66</ele>
        <time>2011-03-05T08:27:06Z</time>
      </trkpt>
      <trkpt lat="45.98537" lon="6.57034">
        <ele>2273.66</ele>
        <time>2011-03-05T08:27:17Z</time>
      </trkpt>
      <trkpt lat="45.98529" lon="6.57047">
        <ele>2273.66</ele>
        <time>2011-03-05T08:27:28Z</time>
      </trkpt>
      <trkpt lat="45.98523" lon="6.57062">
        <ele>2272.69</ele>
        <time>2011-03-05T08:27:38Z</time>
      </trkpt>
      <trkpt lat="45.98516" lon="6.57076">
        <ele>2273.17</ele>
        <time>2011-03-05T08:27:49Z</time>
      </trkpt>
      <trkpt lat="45.98515" lon="6.57083">
        <ele>2273.17</ele>
        <time>2011-03-05T08:27:55Z</time>
      </trkpt>
      <trkpt lat="45.98509" lon="6.57099">
        <ele>2275.58</ele>
        <time>2011-03-05T08:28:07Z</time>
      </trkpt>
      <trkpt lat="45.98509" lon="6.57102">
        <ele>2276.06</ele>
        <time>2011-03-05T08:28:17Z</time>
      </trkpt>
      <trkpt lat="45.98506" lon="6.5711">
        <ele>2276.54</ele>
        <time>2011-03-05T08:28:22Z</time>
      </trkpt>
      <trkpt lat="45.98505" lon="6.57112">
        <ele>2277.02</ele>
        <time>2011-03-05T08:28:24Z</time>
      </trkpt>
      <trkpt lat="45.98501" lon="6.57126">
        <ele>2278.94</ele>
        <time>2011-03-05T08:28:35Z</time>
      </trkpt>
      <trkpt lat="45.98496" lon="6.57141">
        <ele>2279.9</ele>
        <time>2011-03-05T08:28:47Z</time>
      </trkpt>
      <trkpt lat="45.98491" lon="6.57152">
        <ele>2281.35</ele>
        <time>2011-03-05T08:28:58Z</time>
      </trkpt>
      <trkpt lat="45.98487" lon="6.57165">
        <ele>2283.75</ele>
        <time>2011-03-05T08:29:09Z</time>
      </trkpt>
      <trkpt lat="45.98486" lon="6.5717">
        <ele>2285.19</ele>
        <time>2011-03-05T08:29:22Z</time>
      </trkpt>
      <trkpt lat="45.98482" lon="6.5718">
        <ele>2285.19</ele>
        <time>2011-03-05T08:29:33Z</time>
      </trkpt>
      <trkpt lat="45.98478" lon="6.57191">
        <ele>2286.15</ele>
        <time>2011-03-05T08:29:43Z</time>
      </trkpt>
      <trkpt lat="45.98477" lon="6.57194">
        <ele>2286.15</ele>
        <time>2011-03-05T08:29:45Z</time>
      </trkpt>
      <trkpt lat="45.98471" lon="6.57209">
        <ele>2288.08</ele>
        <time>2011-03-05T08:29:58Z</time>
      </trkpt>
      <trkpt lat="45.9847" lon="6.57212">
        <ele>2289.04</ele>
        <time>2011-03-05T08:30:01Z</time>
      </trkpt>
      <trkpt lat="45.98465" lon="6.57224">
        <ele>2290.96</ele>
        <time>2011-03-05T08:30:15Z</time>
      </trkpt>
      <trkpt lat="45.9846" lon="6.57233">
        <ele>2293.36</ele>
        <time>2011-03-05T08:30:26Z</time>
      </trkpt>
      <trkpt lat="45.98459" lon="6.57234">
        <ele>2293.36</ele>
        <time>2011-03-05T08:30:40Z</time>
      </trkpt>
      <trkpt lat="45.98452" lon="6.57243">
        <ele>2294.32</ele>
        <time>2011-03-05T08:30:53Z</time>
      </trkpt>
      <trkpt lat="45.98449" lon="6.57245">
        <ele>2295.28</ele>
        <time>2011-03-05T08:31:06Z</time>
      </trkpt>
      <trkpt lat="45.98441" lon="6.5725">
        <ele>2297.69</ele>
        <time>2011-03-05T08:31:17Z</time>
      </trkpt>
      <trkpt lat="45.98433" lon="6.57254">
        <ele>2300.09</ele>
        <time>2011-03-05T08:31:28Z</time>
      </trkpt>
      <trkpt lat="45.9843" lon="6.57255">
        <ele>2301.05</ele>
        <time>2011-03-05T08:31:43Z</time>
      </trkpt>
      <trkpt lat="45.98422" lon="6.5726">
        <ele>2302.98</ele>
        <time>2011-03-05T08:31:55Z</time>
      </trkpt>
      <trkpt lat="45.98421" lon="6.57261">
        <ele>2302.98</ele>
        <time>2011-03-05T08:31:57Z</time>
      </trkpt>
      <trkpt lat="45.98412" lon="6.57264">
        <ele>2305.38</ele>
        <time>2011-03-05T08:32:10Z</time>
      </trkpt>
      <trkpt lat="45.9841" lon="6.57265">
        <ele>2305.86</ele>
        <time>2011-03-05T08:32:22Z</time>
      </trkpt>
      <trkpt lat="45.98412" lon="6.57273">
        <ele>2307.78</ele>
        <time>2011-03-05T08:32:34Z</time>
      </trkpt>
      <trkpt lat="45.98415" lon="6.57284">
        <ele>2311.15</ele>
        <time>2011-03-05T08:32:44Z</time>
      </trkpt>
      <trkpt lat="45.98413" lon="6.57286">
        <ele>2312.59</ele>
        <time>2011-03-05T08:32:54Z</time>
      </trkpt>
      <trkpt lat="45.98404" lon="6.57283">
        <ele>2314.99</ele>
        <time>2011-03-05T08:33:06Z</time>
      </trkpt>
      <trkpt lat="45.98395" lon="6.57281">
        <ele>2318.36</ele>
        <time>2011-03-05T08:33:19Z</time>
      </trkpt>
      <trkpt lat="45.98387" lon="6.5728">
        <ele>2320.76</ele>
        <time>2011-03-05T08:33:32Z</time>
      </trkpt>
      <trkpt lat="45.9838" lon="6.57278">
        <ele>2322.2</ele>
        <time>2011-03-05T08:33:44Z</time>
      </trkpt>
      <trkpt lat="45.98373" lon="6.57277">
        <ele>2323.64</ele>
        <time>2011-03-05T08:33:56Z</time>
      </trkpt>
      <trkpt lat="45.98367" lon="6.57278">
        <ele>2325.57</ele>
        <time>2011-03-05T08:34:09Z</time>
      </trkpt>
      <trkpt lat="45.98367" lon="6.57278">
        <ele>2325.57</ele>
        <time>2011-03-05T08:34:26Z</time>
      </trkpt>
      <trkpt lat="45.9837" lon="6.57285">
        <ele>2326.53</ele>
        <time>2011-03-05T08:34:36Z</time>
      </trkpt>
      <trkpt lat="45.98375" lon="6.57298">
        <ele>2329.41</ele>
        <time>2011-03-05T08:34:48Z</time>
      </trkpt>
      <trkpt lat="45.98375" lon="6.57299">
        <ele>2329.89</ele>
        <time>2011-03-05T08:35:04Z</time>
      </trkpt>
      <trkpt lat="45.98368" lon="6.57301">
        <ele>2330.85</ele>
        <time>2011-03-05T08:35:15Z</time>
      </trkpt>
      <trkpt lat="45.98367" lon="6.57301">
        <ele>2331.81</ele>
        <time>2011-03-05T08:35:26Z</time>
      </trkpt>
      <trkpt lat="45.98367" lon="6.57301">
        <ele>2331.81</ele>
        <time>2011-03-05T08:35:45Z</time>
      </trkpt>
      <trkpt lat="45.98367" lon="6.57301">
        <ele>2331.81</ele>
        <time>2011-03-05T08:36:07Z</time>
      </trkpt>
      <trkpt lat="45.98366" lon="6.57301">
        <ele>2332.78</ele>
        <time>2011-03-05T08:36:24Z</time>
      </trkpt>
      <trkpt lat="45.98357" lon="6.573">
        <ele>2335.18</ele>
        <time>2011-03-05T08:36:35Z</time>
      </trkpt>
      <trkpt lat="45.98349" lon="6.57302">
        <ele>2336.62</ele>
        <time>2011-03-05T08:36:47Z</time>
      </trkpt>
      <trkpt lat="45.98344" lon="6.57303">
        <ele>2338.06</ele>
        <time>2011-03-05T08:36:59Z</time>
      </trkpt>
      <trkpt lat="45.98335" lon="6.57305">
        <ele>2340.47</ele>
        <time>2011-03-05T08:37:12Z</time>
      </trkpt>
      <trkpt lat="45.98324" lon="6.57308">
        <ele>2343.35</ele>
        <time>2011-03-05T08:37:26Z</time>
      </trkpt>
      <trkpt lat="45.98315" lon="6.57312">
        <ele>2345.27</ele>
        <time>2011-03-05T08:37:38Z</time>
      </trkpt>
      <trkpt lat="45.98308" lon="6.57316">
        <ele>2346.72</ele>
        <time>2011-03-05T08:37:50Z</time>
      </trkpt>
      <trkpt lat="45.98304" lon="6.57319">
        <ele>2347.2</ele>
        <time>2011-03-05T08:38:02Z</time>
      </trkpt>
      <trkpt lat="45.98294" lon="6.57331">
        <ele>2344.79</ele>
        <time>2011-03-05T08:38:14Z</time>
      </trkpt>
      <trkpt lat="45.98287" lon="6.57337">
        <ele>2341.91</ele>
        <time>2011-03-05T08:38:25Z</time>
      </trkpt>
      <trkpt lat="45.98281" lon="6.57344">
        <ele>2340.47</ele>
        <time>2011-03-05T08:38:36Z</time>
      </trkpt>
      <trkpt lat="45.9827" lon="6.57349">
        <ele>2337.1</ele>
        <time>2011-03-05T08:38:48Z</time>
      </trkpt>
      <trkpt lat="45.98261" lon="6.57357">
        <ele>2334.22</ele>
        <time>2011-03-05T08:38:58Z</time>
      </trkpt>
      <trkpt lat="45.98254" lon="6.57365">
        <ele>2332.78</ele>
        <time>2011-03-05T08:39:10Z</time>
      </trkpt>
      <trkpt lat="45.98244" lon="6.57373">
        <ele>2332.3</ele>
        <time>2011-03-05T08:39:23Z</time>
      </trkpt>
      <trkpt lat="45.98241" lon="6.57375">
        <ele>2332.3</ele>
        <time>2011-03-05T08:39:28Z</time>
      </trkpt>
      <trkpt lat="45.9823" lon="6.57384">
        <ele>2331.81</ele>
        <time>2011-03-05T08:39:42Z</time>
      </trkpt>
      <trkpt lat="45.9822" lon="6.57387">
        <ele>2330.37</ele>
        <time>2011-03-05T08:39:53Z</time>
      </trkpt>
      <trkpt lat="45.98212" lon="6.57396">
        <ele>2329.89</ele>
        <time>2011-03-05T08:40:06Z</time>
      </trkpt>
      <trkpt lat="45.98207" lon="6.57404">
        <ele>2328.93</ele>
        <time>2011-03-05T08:40:17Z</time>
      </trkpt>
      <trkpt lat="45.982" lon="6.57412">
        <ele>2327.01</ele>
        <time>2011-03-05T08:40:31Z</time>
      </trkpt>
      <trkpt lat="45.98191" lon="6.57417">
        <ele>2327.01</ele>
        <time>2011-03-05T08:40:43Z</time>
      </trkpt>
      <trkpt lat="45.98181" lon="6.57419">
        <ele>2328.45</ele>
        <time>2011-03-05T08:40:55Z</time>
      </trkpt>
      <trkpt lat="45.98168" lon="6.57417">
        <ele>2329.89</ele>
        <time>2011-03-05T08:41:06Z</time>
      </trkpt>
      <trkpt lat="45.98164" lon="6.57417">
        <ele>2329.89</ele>
        <time>2011-03-05T08:41:17Z</time>
      </trkpt>
      <trkpt lat="45.98152" lon="6.57416">
        <ele>2327.97</ele>
        <time>2011-03-05T08:41:28Z</time>
      </trkpt>
      <trkpt lat="45.98142" lon="6.57419">
        <ele>2326.05</ele>
        <time>2011-03-05T08:41:40Z</time>
      </trkpt>
      <trkpt lat="45.98132" lon="6.5742">
        <ele>2325.09</ele>
        <time>2011-03-05T08:41:50Z</time>
      </trkpt>
      <trkpt lat="45.98119" lon="6.57428">
        <ele>2324.61</ele>
        <time>2011-03-05T08:42:01Z</time>
      </trkpt>
      <trkpt lat="45.98109" lon="6.57444">
        <ele>2323.16</ele>
        <time>2011-03-05T08:42:12Z</time>
      </trkpt>
      <trkpt lat="45.98103" lon="6.57452">
        <ele>2322.68</ele>
        <time>2011-03-05T08:42:29Z</time>
      </trkpt>
      <trkpt lat="45.98103" lon="6.57456">
        <ele>2322.68</ele>
        <time>2011-03-05T08:42:44Z</time>
      </trkpt>
      <trkpt lat="45.98103" lon="6.57456">
        <ele>2322.68</ele>
        <time>2011-03-05T08:43:03Z</time>
      </trkpt>
      <trkpt lat="45.981" lon="6.57444">
        <ele>2322.68</ele>
        <time>2011-03-05T08:43:14Z</time>
      </trkpt>
      <trkpt lat="45.98092" lon="6.57432">
        <ele>2321.72</ele>
        <time>2011-03-05T08:43:28Z</time>
      </trkpt>
      <trkpt lat="45.98092" lon="6.57432">
        <ele>2321.72</ele>
        <time>2011-03-05T08:43:39Z</time>
      </trkpt>
      <trkpt lat="45.98092" lon="6.57432">
        <ele>2321.72</ele>
        <time>2011-03-05T08:43:58Z</time>
      </trkpt>
      <trkpt lat="45.98092" lon="6.57432">
        <ele>2321.72</ele>
        <time>2011-03-05T08:44:12Z</time>
      </trkpt>
      <trkpt lat="45.98093" lon="6.57425">
        <ele>2318.84</ele>
        <time>2011-03-05T08:44:23Z</time>
      </trkpt>
      <trkpt lat="45.98093" lon="6.57425">
        <ele>2318.84</ele>
        <time>2011-03-05T08:44:38Z</time>
      </trkpt>
      <trkpt lat="45.98093" lon="6.57425">
        <ele>2318.84</ele>
        <time>2011-03-05T08:44:56Z</time>
      </trkpt>
      <trkpt lat="45.98093" lon="6.57426">
        <ele>2318.36</ele>
        <time>2011-03-05T08:45:11Z</time>
      </trkpt>
      <trkpt lat="45.98093" lon="6.57426">
        <ele>2318.36</ele>
        <time>2011-03-05T08:45:30Z</time>
      </trkpt>
      <trkpt lat="45.98094" lon="6.57426">
        <ele>2318.36</ele>
        <time>2011-03-05T08:45:45Z</time>
      </trkpt>
      <trkpt lat="45.98094" lon="6.57426">
        <ele>2318.36</ele>
        <time>2011-03-05T08:46:00Z</time>
      </trkpt>
      <trkpt lat="45.98094" lon="6.57426">
        <ele>2318.36</ele>
        <time>2011-03-05T08:46:20Z</time>
      </trkpt>
      <trkpt lat="45.98094" lon="6.57426">
        <ele>2318.36</ele>
        <time>2011-03-05T08:46:38Z</time>
      </trkpt>
      <trkpt lat="45.98094" lon="6.57426">
        <ele>2318.36</ele>
        <time>2011-03-05T08:46:55Z</time>
      </trkpt>
      <trkpt lat="45.98094" lon="6.57426">
        <ele>2317.88</ele>
        <time>2011-03-05T08:47:13Z</time>
      </trkpt>
      <trkpt lat="45.98094" lon="6.57426">
        <ele>2317.88</ele>
        <time>2011-03-05T08:47:32Z</time>
      </trkpt>
      <trkpt lat="45.98094" lon="6.57425">
        <ele>2317.4</ele>
        <time>2011-03-05T08:47:48Z</time>
      </trkpt>
      <trkpt lat="45.98094" lon="6.57425">
        <ele>2317.4</ele>
        <time>2011-03-05T08:48:05Z</time>
      </trkpt>
      <trkpt lat="45.98094" lon="6.57425">
        <ele>2317.4</ele>
        <time>2011-03-05T08:48:19Z</time>
      </trkpt>
      <trkpt lat="45.98094" lon="6.57426">
        <ele>2317.4</ele>
        <time>2011-03-05T08:48:33Z</time>
      </trkpt>
      <trkpt lat="45.98094" lon="6.57426">
        <ele>2317.4</ele>
        <time>2011-03-05T08:48:49Z</time>
      </trkpt>
      <trkpt lat="45.98094" lon="6.57425">
        <ele>2317.4</ele>
        <time>2011-03-05T08:49:04Z</time>
      </trkpt>
      <trkpt lat="45.98094" lon="6.57425">
        <ele>2317.4</ele>
        <time>2011-03-05T08:49:23Z</time>
      </trkpt>
      <trkpt lat="45.98094" lon="6.57425">
        <ele>2317.4</ele>
        <time>2011-03-05T08:49:41Z</time>
      </trkpt>
      <trkpt lat="45.98094" lon="6.57425">
        <ele>2317.88</ele>
        <time>2011-03-05T08:49:59Z</time>
      </trkpt>
      <trkpt lat="45.98094" lon="6.57425">
        <ele>2317.88</ele>
        <time>2011-03-05T08:50:22Z</time>
      </trkpt>
      <trkpt lat="45.98094" lon="6.57426">
        <ele>2317.88</ele>
        <time>2011-03-05T08:50:36Z</time>
      </trkpt>
      <trkpt lat="45.98094" lon="6.57426">
        <ele>2317.88</ele>
        <time>2011-03-05T08:50:58Z</time>
      </trkpt>
      <trkpt lat="45.98093" lon="6.57426">
        <ele>2317.4</ele>
        <time>2011-03-05T08:51:21Z</time>
      </trkpt>
      <trkpt lat="45.98093" lon="6.57426">
        <ele>2317.4</ele>
        <time>2011-03-05T08:51:33Z</time>
      </trkpt>
      <trkpt lat="45.98093" lon="6.57425">
        <ele>2317.4</ele>
        <time>2011-03-05T08:51:53Z</time>
      </trkpt>
      <trkpt lat="45.98093" lon="6.57425">
        <ele>2317.4</ele>
        <time>2011-03-05T08:52:10Z</time>
      </trkpt>
      <trkpt lat="45.98093" lon="6.57425">
        <ele>2317.4</ele>
        <time>2011-03-05T08:52:26Z</time>
      </trkpt>
      <trkpt lat="45.98093" lon="6.57425">
        <ele>2317.4</ele>
        <time>2011-03-05T08:52:52Z</time>
      </trkpt>
      <trkpt lat="45.98094" lon="6.57427">
        <ele>2315.95</ele>
        <time>2011-03-05T08:53:08Z</time>
      </trkpt>
      <trkpt lat="45.98094" lon="6.57427">
        <ele>2315.95</ele>
        <time>2011-03-05T08:53:24Z</time>
      </trkpt>
      <trkpt lat="45.98094" lon="6.57427">
        <ele>2315.95</ele>
        <time>2011-03-05T08:53:27Z</time>
      </trkpt>
      <trkpt lat="45.98097" lon="6.57447">
        <ele>2315.95</ele>
        <time>2011-03-05T08:53:39Z</time>
      </trkpt>
      <trkpt lat="45.98099" lon="6.57458">
        <ele>2315.47</ele>
        <time>2011-03-05T08:53:51Z</time>
      </trkpt>
      <trkpt lat="45.98094" lon="6.57465">
        <ele>2314.03</ele>
        <time>2011-03-05T08:54:05Z</time>
      </trkpt>
      <trkpt lat="45.98091" lon="6.57468">
        <ele>2312.59</ele>
        <time>2011-03-05T08:54:17Z</time>
      </trkpt>
      <trkpt lat="45.98095" lon="6.57484">
        <ele>2311.63</ele>
        <time>2011-03-05T08:54:32Z</time>
      </trkpt>
      <trkpt lat="45.98097" lon="6.57513">
        <ele>2311.63</ele>
        <time>2011-03-05T08:54:46Z</time>
      </trkpt>
      <trkpt lat="45.98097" lon="6.57513">
        <ele>2311.63</ele>
        <time>2011-03-05T08:54:57Z</time>
      </trkpt>
      <trkpt lat="45.98097" lon="6.57513">
        <ele>2311.63</ele>
        <time>2011-03-05T08:55:10Z</time>
      </trkpt>
      <trkpt lat="45.98094" lon="6.57521">
        <ele>2306.82</ele>
        <time>2011-03-05T08:55:20Z</time>
      </trkpt>
      <trkpt lat="45.98079" lon="6.57537">
        <ele>2300.09</ele>
        <time>2011-03-05T08:55:33Z</time>
      </trkpt>
      <trkpt lat="45.98071" lon="6.57549">
        <ele>2296.73</ele>
        <time>2011-03-05T08:55:41Z</time>
      </trkpt>
      <trkpt lat="45.98068" lon="6.57561">
        <ele>2292.4</ele>
        <time>2011-03-05T08:55:45Z</time>
      </trkpt>
      <trkpt lat="45.9805" lon="6.57572">
        <ele>2284.71</ele>
        <time>2011-03-05T08:55:59Z</time>
      </trkpt>
      <trkpt lat="45.98042" lon="6.57596">
        <ele>2280.87</ele>
        <time>2011-03-05T08:56:12Z</time>
      </trkpt>
      <trkpt lat="45.98042" lon="6.57595">
        <ele>2280.38</ele>
        <time>2011-03-05T08:56:28Z</time>
      </trkpt>
      <trkpt lat="45.98042" lon="6.57595">
        <ele>2280.38</ele>
        <time>2011-03-05T08:56:44Z</time>
      </trkpt>
      <trkpt lat="45.9804" lon="6.57608">
        <ele>2277.98</ele>
        <time>2011-03-05T08:56:49Z</time>
      </trkpt>
      <trkpt lat="45.98027" lon="6.57633">
        <ele>2266.45</ele>
        <time>2011-03-05T08:57:01Z</time>
      </trkpt>
      <trkpt lat="45.98026" lon="6.57635">
        <ele>2264.52</ele>
        <time>2011-03-05T08:57:10Z</time>
      </trkpt>
      <trkpt lat="45.98019" lon="6.57637">
        <ele>2258.75</ele>
        <time>2011-03-05T08:57:19Z</time>
      </trkpt>
      <trkpt lat="45.9797" lon="6.57421">
        <ele>2186.66</ele>
        <time>2011-03-05T08:57:27Z</time>
      </trkpt>
      <trkpt lat="45.97971" lon="6.57444">
        <ele>2185.69</ele>
        <time>2011-03-05T08:57:29Z</time>
      </trkpt>
      <trkpt lat="45.97971" lon="6.57464">
        <ele>2185.69</ele>
        <time>2011-03-05T08:57:33Z</time>
      </trkpt>
      <trkpt lat="45.97972" lon="6.5747">
        <ele>2185.69</ele>
        <time>2011-03-05T08:57:35Z</time>
      </trkpt>
      <trkpt lat="45.97973" lon="6.57492">
        <ele>2185.69</ele>
        <time>2011-03-05T08:57:38Z</time>
      </trkpt>
      <trkpt lat="45.97976" lon="6.57519">
        <ele>2186.18</ele>
        <time>2011-03-05T08:57:41Z</time>
      </trkpt>
      <trkpt lat="45.97978" lon="6.57546">
        <ele>2186.18</ele>
        <time>2011-03-05T08:57:44Z</time>
      </trkpt>
      <trkpt lat="45.97979" lon="6.57574">
        <ele>2184.25</ele>
        <time>2011-03-05T08:57:48Z</time>
      </trkpt>
      <trkpt lat="45.9798" lon="6.57593">
        <ele>2182.33</ele>
        <time>2011-03-05T08:57:51Z</time>
      </trkpt>
      <trkpt lat="45.9798" lon="6.57639">
        <ele>2178</ele>
        <time>2011-03-05T08:57:58Z</time>
      </trkpt>
      <trkpt lat="45.97981" lon="6.57651">
        <ele>2176.08</ele>
        <time>2011-03-05T08:58:00Z</time>
      </trkpt>
      <trkpt lat="45.97983" lon="6.57662">
        <ele>2176.08</ele>
        <time>2011-03-05T08:58:02Z</time>
      </trkpt>
      <trkpt lat="45.97981" lon="6.57668">
        <ele>2174.16</ele>
        <time>2011-03-05T08:58:06Z</time>
      </trkpt>
      <trkpt lat="45.97981" lon="6.57668">
        <ele>2173.68</ele>
        <time>2011-03-05T08:58:08Z</time>
      </trkpt>
      <trkpt lat="45.9793" lon="6.57503">
        <ele>2149.65</ele>
        <time>2011-03-05T08:58:17Z</time>
      </trkpt>
      <trkpt lat="45.97931" lon="6.57543">
        <ele>2153.97</ele>
        <time>2011-03-05T08:58:28Z</time>
      </trkpt>
      <trkpt lat="45.97931" lon="6.57546">
        <ele>2154.45</ele>
        <time>2011-03-05T08:58:40Z</time>
      </trkpt>
      <trkpt lat="45.97928" lon="6.57544">
        <ele>2154.93</ele>
        <time>2011-03-05T08:58:59Z</time>
      </trkpt>
      <trkpt lat="45.97926" lon="6.57556">
        <ele>2153.49</ele>
        <time>2011-03-05T08:59:05Z</time>
      </trkpt>
      <trkpt lat="45.97923" lon="6.57576">
        <ele>2153.49</ele>
        <time>2011-03-05T08:59:10Z</time>
      </trkpt>
      <trkpt lat="45.97922" lon="6.57579">
        <ele>2153.49</ele>
        <time>2011-03-05T08:59:12Z</time>
      </trkpt>
      <trkpt lat="45.97921" lon="6.57581">
        <ele>2153.01</ele>
        <time>2011-03-05T08:59:20Z</time>
      </trkpt>
      <trkpt lat="45.97914" lon="6.5759">
        <ele>2147.24</ele>
        <time>2011-03-05T08:59:28Z</time>
      </trkpt>
      <trkpt lat="45.97913" lon="6.57593">
        <ele>2146.76</ele>
        <time>2011-03-05T08:59:29Z</time>
      </trkpt>
      <trkpt lat="45.97911" lon="6.57611">
        <ele>2144.36</ele>
        <time>2011-03-05T08:59:38Z</time>
      </trkpt>
      <trkpt lat="45.97906" lon="6.57632">
        <ele>2143.4</ele>
        <time>2011-03-05T08:59:44Z</time>
      </trkpt>
      <trkpt lat="45.97906" lon="6.57635">
        <ele>2142.92</ele>
        <time>2011-03-05T08:59:45Z</time>
      </trkpt>
      <trkpt lat="45.97902" lon="6.5765">
        <ele>2141.47</ele>
        <time>2011-03-05T08:59:48Z</time>
      </trkpt>
      <trkpt lat="45.97902" lon="6.57678">
        <ele>2137.63</ele>
        <time>2011-03-05T08:59:53Z</time>
      </trkpt>
      <trkpt lat="45.97901" lon="6.57692">
        <ele>2137.63</ele>
        <time>2011-03-05T08:59:55Z</time>
      </trkpt>
      <trkpt lat="45.97906" lon="6.57715">
        <ele>2137.63</ele>
        <time>2011-03-05T08:59:59Z</time>
      </trkpt>
      <trkpt lat="45.97905" lon="6.57729">
        <ele>2136.67</ele>
        <time>2011-03-05T09:00:01Z</time>
      </trkpt>
      <trkpt lat="45.97904" lon="6.57744">
        <ele>2136.67</ele>
        <time>2011-03-05T09:00:04Z</time>
      </trkpt>
      <trkpt lat="45.97907" lon="6.57759">
        <ele>2136.67</ele>
        <time>2011-03-05T09:00:06Z</time>
      </trkpt>
      <trkpt lat="45.97908" lon="6.57765">
        <ele>2136.67</ele>
        <time>2011-03-05T09:00:07Z</time>
      </trkpt>
      <trkpt lat="45.97909" lon="6.5778">
        <ele>2135.23</ele>
        <time>2011-03-05T09:00:09Z</time>
      </trkpt>
      <trkpt lat="45.97911" lon="6.57814">
        <ele>2134.26</ele>
        <time>2011-03-05T09:00:14Z</time>
      </trkpt>
      <trkpt lat="45.97911" lon="6.57822">
        <ele>2134.26</ele>
        <time>2011-03-05T09:00:15Z</time>
      </trkpt>
      <trkpt lat="45.97912" lon="6.57821">
        <ele>2132.34</ele>
        <time>2011-03-05T09:00:21Z</time>
      </trkpt>
      <trkpt lat="45.97912" lon="6.57818">
        <ele>2131.38</ele>
        <time>2011-03-05T09:00:34Z</time>
      </trkpt>
      <trkpt lat="45.97912" lon="6.57818">
        <ele>2131.38</ele>
        <time>2011-03-05T09:00:36Z</time>
      </trkpt>
      <trkpt lat="45.97896" lon="6.5781">
        <ele>2129.46</ele>
        <time>2011-03-05T09:00:46Z</time>
      </trkpt>
      <trkpt lat="45.97881" lon="6.57812">
        <ele>2128.5</ele>
        <time>2011-03-05T09:00:54Z</time>
      </trkpt>
      <trkpt lat="45.97876" lon="6.57816">
        <ele>2128.5</ele>
        <time>2011-03-05T09:00:56Z</time>
      </trkpt>
      <trkpt lat="45.97866" lon="6.57828">
        <ele>2127.53</ele>
        <time>2011-03-05T09:01:01Z</time>
      </trkpt>
      <trkpt lat="45.97945" lon="6.58117">
        <ele>2123.69</ele>
        <time>2011-03-05T09:01:02Z</time>
      </trkpt>
      <trkpt lat="45.97927" lon="6.58074">
        <ele>2120.32</ele>
        <time>2011-03-05T09:01:06Z</time>
      </trkpt>
      <trkpt lat="45.97901" lon="6.58054">
        <ele>2120.81</ele>
        <time>2011-03-05T09:01:12Z</time>
      </trkpt>
      <trkpt lat="45.97896" lon="6.58054">
        <ele>2120.81</ele>
        <time>2011-03-05T09:01:14Z</time>
      </trkpt>
      <trkpt lat="45.97887" lon="6.58054">
        <ele>2117.92</ele>
        <time>2011-03-05T09:01:21Z</time>
      </trkpt>
      <trkpt lat="45.97884" lon="6.58053">
        <ele>2117.92</ele>
        <time>2011-03-05T09:01:23Z</time>
      </trkpt>
      <trkpt lat="45.97882" lon="6.58058">
        <ele>2117.92</ele>
        <time>2011-03-05T09:01:27Z</time>
      </trkpt>
      <trkpt lat="45.97868" lon="6.58029">
        <ele>2116.48</ele>
        <time>2011-03-05T09:01:32Z</time>
      </trkpt>
      <trkpt lat="45.9786" lon="6.58037">
        <ele>2114.08</ele>
        <time>2011-03-05T09:01:37Z</time>
      </trkpt>
      <trkpt lat="45.9785" lon="6.58037">
        <ele>2111.67</ele>
        <time>2011-03-05T09:01:42Z</time>
      </trkpt>
      <trkpt lat="45.97895" lon="6.58222">
        <ele>2103.5</ele>
        <time>2011-03-05T09:01:55Z</time>
      </trkpt>
      <trkpt lat="45.97895" lon="6.58222">
        <ele>2103.5</ele>
        <time>2011-03-05T09:02:06Z</time>
      </trkpt>
      <trkpt lat="45.97885" lon="6.58205">
        <ele>2108.31</ele>
        <time>2011-03-05T09:02:11Z</time>
      </trkpt>
      <trkpt lat="45.97875" lon="6.58201">
        <ele>2108.31</ele>
        <time>2011-03-05T09:02:15Z</time>
      </trkpt>
      <trkpt lat="45.97867" lon="6.58209">
        <ele>2107.35</ele>
        <time>2011-03-05T09:02:18Z</time>
      </trkpt>
      <trkpt lat="45.97862" lon="6.58227">
        <ele>2106.39</ele>
        <time>2011-03-05T09:02:22Z</time>
      </trkpt>
      <trkpt lat="45.97859" lon="6.58248">
        <ele>2105.91</ele>
        <time>2011-03-05T09:02:24Z</time>
      </trkpt>
      <trkpt lat="45.97859" lon="6.58246">
        <ele>2106.39</ele>
        <time>2011-03-05T09:02:25Z</time>
      </trkpt>
      <trkpt lat="45.97856" lon="6.58281">
        <ele>2105.42</ele>
        <time>2011-03-05T09:02:31Z</time>
      </trkpt>
      <trkpt lat="45.97856" lon="6.58292">
        <ele>2105.42</ele>
        <time>2011-03-05T09:02:32Z</time>
      </trkpt>
      <trkpt lat="45.97855" lon="6.58309">
        <ele>2104.94</ele>
        <time>2011-03-05T09:02:34Z</time>
      </trkpt>
      <trkpt lat="45.97843" lon="6.58301">
        <ele>2104.94</ele>
        <time>2011-03-05T09:02:39Z</time>
      </trkpt>
      <trkpt lat="45.97835" lon="6.583">
        <ele>2103.02</ele>
        <time>2011-03-05T09:02:44Z</time>
      </trkpt>
      <trkpt lat="45.97831" lon="6.583">
        <ele>2102.06</ele>
        <time>2011-03-05T09:02:46Z</time>
      </trkpt>
      <trkpt lat="45.97827" lon="6.58327">
        <ele>2102.06</ele>
        <time>2011-03-05T09:02:50Z</time>
      </trkpt>
      <trkpt lat="45.9782" lon="6.58334">
        <ele>2102.06</ele>
        <time>2011-03-05T09:02:52Z</time>
      </trkpt>
      <trkpt lat="45.97818" lon="6.58339">
        <ele>2102.06</ele>
        <time>2011-03-05T09:02:53Z</time>
      </trkpt>
      <trkpt lat="45.97819" lon="6.58366">
        <ele>2100.62</ele>
        <time>2011-03-05T09:02:58Z</time>
      </trkpt>
      <trkpt lat="45.97815" lon="6.58393">
        <ele>2099.18</ele>
        <time>2011-03-05T09:03:02Z</time>
      </trkpt>
      <trkpt lat="45.9773" lon="6.5791">
        <ele>1989.1</ele>
        <time>2011-03-05T09:03:03Z</time>
      </trkpt>
      <trkpt lat="45.97715" lon="6.57923">
        <ele>1981.41</ele>
        <time>2011-03-05T09:03:08Z</time>
      </trkpt>
      <trkpt lat="45.97706" lon="6.57937">
        <ele>1980.93</ele>
        <time>2011-03-05T09:03:11Z</time>
      </trkpt>
      <trkpt lat="45.97695" lon="6.57942">
        <ele>1980.45</ele>
        <time>2011-03-05T09:03:14Z</time>
      </trkpt>
      <trkpt lat="45.97695" lon="6.57955">
        <ele>1980.45</ele>
        <time>2011-03-05T09:03:17Z</time>
      </trkpt>
      <trkpt lat="45.97686" lon="6.57962">
        <ele>1979.49</ele>
        <time>2011-03-05T09:03:20Z</time>
      </trkpt>
      <trkpt lat="45.97682" lon="6.57967">
        <ele>1977.57</ele>
        <time>2011-03-05T09:03:23Z</time>
      </trkpt>
      <trkpt lat="45.97682" lon="6.57969">
        <ele>1977.09</ele>
        <time>2011-03-05T09:03:33Z</time>
      </trkpt>
      <trkpt lat="45.97682" lon="6.57969">
        <ele>1977.09</ele>
        <time>2011-03-05T09:03:52Z</time>
      </trkpt>
      <trkpt lat="45.97668" lon="6.57969">
        <ele>1973.24</ele>
        <time>2011-03-05T09:03:57Z</time>
      </trkpt>
      <trkpt lat="45.9764" lon="6.57972">
        <ele>1965.55</ele>
        <time>2011-03-05T09:04:06Z</time>
      </trkpt>
      <trkpt lat="45.97638" lon="6.57971">
        <ele>1966.03</ele>
        <time>2011-03-05T09:04:12Z</time>
      </trkpt>
      <trkpt lat="45.97638" lon="6.57971">
        <ele>1966.03</ele>
        <time>2011-03-05T09:04:24Z</time>
      </trkpt>
      <trkpt lat="45.97638" lon="6.57971">
        <ele>1966.03</ele>
        <time>2011-03-05T09:04:47Z</time>
      </trkpt>
      <trkpt lat="45.97638" lon="6.57971">
        <ele>1965.55</ele>
        <time>2011-03-05T09:05:05Z</time>
      </trkpt>
      <trkpt lat="45.97638" lon="6.57971">
        <ele>1965.55</ele>
        <time>2011-03-05T09:05:20Z</time>
      </trkpt>
      <trkpt lat="45.97638" lon="6.57972">
        <ele>1965.07</ele>
        <time>2011-03-05T09:05:28Z</time>
      </trkpt>
      <trkpt lat="45.97667" lon="6.57993">
        <ele>1959.78</ele>
        <time>2011-03-05T09:05:41Z</time>
      </trkpt>
      <trkpt lat="45.97672" lon="6.57997">
        <ele>1959.78</ele>
        <time>2011-03-05T09:05:50Z</time>
      </trkpt>
      <trkpt lat="45.97672" lon="6.57997">
        <ele>1959.78</ele>
        <time>2011-03-05T09:06:07Z</time>
      </trkpt>
      <trkpt lat="45.97672" lon="6.57997">
        <ele>1959.78</ele>
        <time>2011-03-05T09:06:24Z</time>
      </trkpt>
      <trkpt lat="45.97672" lon="6.57998">
        <ele>1959.78</ele>
        <time>2011-03-05T09:06:38Z</time>
      </trkpt>
      <trkpt lat="45.97672" lon="6.57998">
        <ele>1959.78</ele>
        <time>2011-03-05T09:06:56Z</time>
      </trkpt>
      <trkpt lat="45.97673" lon="6.57998">
        <ele>1959.78</ele>
        <time>2011-03-05T09:07:11Z</time>
      </trkpt>
      <trkpt lat="45.9767" lon="6.57994">
        <ele>1961.23</ele>
        <time>2011-03-05T09:07:26Z</time>
      </trkpt>
      <trkpt lat="45.9767" lon="6.57994">
        <ele>1961.23</ele>
        <time>2011-03-05T09:07:43Z</time>
      </trkpt>
      <trkpt lat="45.97671" lon="6.57995">
        <ele>1961.23</ele>
        <time>2011-03-05T09:08:00Z</time>
      </trkpt>
      <trkpt lat="45.97671" lon="6.57995">
        <ele>1961.23</ele>
        <time>2011-03-05T09:08:18Z</time>
      </trkpt>
      <trkpt lat="45.97671" lon="6.57995">
        <ele>1961.23</ele>
        <time>2011-03-05T09:08:33Z</time>
      </trkpt>
      <trkpt lat="45.97671" lon="6.57995">
        <ele>1961.23</ele>
        <time>2011-03-05T09:08:49Z</time>
      </trkpt>
      <trkpt lat="45.97671" lon="6.57995">
        <ele>1961.23</ele>
        <time>2011-03-05T09:09:03Z</time>
      </trkpt>
      <trkpt lat="45.97672" lon="6.57995">
        <ele>1961.71</ele>
        <time>2011-03-05T09:09:22Z</time>
      </trkpt>
      <trkpt lat="45.97672" lon="6.57995">
        <ele>1961.71</ele>
        <time>2011-03-05T09:09:42Z</time>
      </trkpt>
      <trkpt lat="45.97672" lon="6.57997">
        <ele>1962.19</ele>
        <time>2011-03-05T09:10:03Z</time>
      </trkpt>
      <trkpt lat="45.97672" lon="6.57997">
        <ele>1962.19</ele>
        <time>2011-03-05T09:10:19Z</time>
      </trkpt>
      <trkpt lat="45.97672" lon="6.57997">
        <ele>1961.71</ele>
        <time>2011-03-05T09:10:37Z</time>
      </trkpt>
      <trkpt lat="45.97672" lon="6.57997">
        <ele>1961.71</ele>
        <time>2011-03-05T09:10:56Z</time>
      </trkpt>
      <trkpt lat="45.9767" lon="6.57993">
        <ele>1963.15</ele>
        <time>2011-03-05T09:11:17Z</time>
      </trkpt>
      <trkpt lat="45.9767" lon="6.57993">
        <ele>1963.15</ele>
        <time>2011-03-05T09:11:32Z</time>
      </trkpt>
      <trkpt lat="45.9767" lon="6.57993">
        <ele>1963.15</ele>
        <time>2011-03-05T09:11:42Z</time>
      </trkpt>
      <trkpt lat="45.9767" lon="6.57994">
        <ele>1963.15</ele>
        <time>2011-03-05T09:11:56Z</time>
      </trkpt>
      <trkpt lat="45.9767" lon="6.57992">
        <ele>1963.63</ele>
        <time>2011-03-05T09:12:09Z</time>
      </trkpt>
      <trkpt lat="45.9767" lon="6.57992">
        <ele>1963.63</ele>
        <time>2011-03-05T09:12:24Z</time>
      </trkpt>
      <trkpt lat="45.9767" lon="6.57992">
        <ele>1963.63</ele>
        <time>2011-03-05T09:12:40Z</time>
      </trkpt>
      <trkpt lat="45.9767" lon="6.57992">
        <ele>1963.63</ele>
        <time>2011-03-05T09:12:46Z</time>
      </trkpt>
      <trkpt lat="45.97669" lon="6.57992">
        <ele>1963.15</ele>
        <time>2011-03-05T09:13:13Z</time>
      </trkpt>
      <trkpt lat="45.97669" lon="6.57992">
        <ele>1964.11</ele>
        <time>2011-03-05T09:13:34Z</time>
      </trkpt>
      <trkpt lat="45.97669" lon="6.57992">
        <ele>1964.11</ele>
        <time>2011-03-05T09:13:49Z</time>
      </trkpt>
      <trkpt lat="45.97669" lon="6.57992">
        <ele>1964.11</ele>
        <time>2011-03-05T09:13:59Z</time>
      </trkpt>
      <trkpt lat="45.9767" lon="6.57992">
        <ele>1964.11</ele>
        <time>2011-03-05T09:14:10Z</time>
      </trkpt>
      <trkpt lat="45.97671" lon="6.57992">
        <ele>1963.63</ele>
        <time>2011-03-05T09:14:21Z</time>
      </trkpt>
      <trkpt lat="45.97671" lon="6.57992">
        <ele>1963.63</ele>
        <time>2011-03-05T09:14:31Z</time>
      </trkpt>
      <trkpt lat="45.97679" lon="6.57991">
        <ele>1962.67</ele>
        <time>2011-03-05T09:14:42Z</time>
      </trkpt>
      <trkpt lat="45.97679" lon="6.57991">
        <ele>1962.67</ele>
        <time>2011-03-05T09:14:56Z</time>
      </trkpt>
      <trkpt lat="45.97681" lon="6.5799">
        <ele>1963.15</ele>
        <time>2011-03-05T09:15:07Z</time>
      </trkpt>
      <trkpt lat="45.97685" lon="6.57984">
        <ele>1964.59</ele>
        <time>2011-03-05T09:15:15Z</time>
      </trkpt>
      <trkpt lat="45.97691" lon="6.57968">
        <ele>1967.48</ele>
        <time>2011-03-05T09:15:27Z</time>
      </trkpt>
      <trkpt lat="45.97692" lon="6.57967">
        <ele>1967.96</ele>
        <time>2011-03-05T09:15:41Z</time>
      </trkpt>
      <trkpt lat="45.97695" lon="6.57963">
        <ele>1968.92</ele>
        <time>2011-03-05T09:15:44Z</time>
      </trkpt>
      <trkpt lat="45.977" lon="6.57955">
        <ele>1970.84</ele>
        <time>2011-03-05T09:15:49Z</time>
      </trkpt>
      <trkpt lat="45.97703" lon="6.57945">
        <ele>1974.2</ele>
        <time>2011-03-05T09:15:56Z</time>
      </trkpt>
      <trkpt lat="45.97705" lon="6.57933">
        <ele>1977.57</ele>
        <time>2011-03-05T09:16:08Z</time>
      </trkpt>
      <trkpt lat="45.97705" lon="6.57933">
        <ele>1977.57</ele>
        <time>2011-03-05T09:16:23Z</time>
      </trkpt>
      <trkpt lat="45.97705" lon="6.57933">
        <ele>1977.57</ele>
        <time>2011-03-05T09:16:36Z</time>
      </trkpt>
      <trkpt lat="45.97705" lon="6.57934">
        <ele>1977.57</ele>
        <time>2011-03-05T09:16:52Z</time>
      </trkpt>
      <trkpt lat="45.97705" lon="6.57934">
        <ele>1977.57</ele>
        <time>2011-03-05T09:17:03Z</time>
      </trkpt>
      <trkpt lat="45.97707" lon="6.57933">
        <ele>1978.05</ele>
        <time>2011-03-05T09:17:14Z</time>
      </trkpt>
      <trkpt lat="45.97714" lon="6.57931">
        <ele>1979.97</ele>
        <time>2011-03-05T09:17:28Z</time>
      </trkpt>
      <trkpt lat="45.97717" lon="6.57927">
        <ele>1980.45</ele>
        <time>2011-03-05T09:17:41Z</time>
      </trkpt>
      <trkpt lat="45.97723" lon="6.5792">
        <ele>1981.9</ele>
        <time>2011-03-05T09:17:53Z</time>
      </trkpt>
      <trkpt lat="45.97726" lon="6.57917">
        <ele>1982.38</ele>
        <time>2011-03-05T09:17:57Z</time>
      </trkpt>
      <trkpt lat="45.97728" lon="6.57915">
        <ele>1982.86</ele>
        <time>2011-03-05T09:18:14Z</time>
      </trkpt>
      <trkpt lat="45.97731" lon="6.57912">
        <ele>1982.38</ele>
        <time>2011-03-05T09:18:24Z</time>
      </trkpt>
      <trkpt lat="45.97735" lon="6.57907">
        <ele>1983.34</ele>
        <time>2011-03-05T09:18:28Z</time>
      </trkpt>
      <trkpt lat="45.97738" lon="6.57903">
        <ele>1983.82</ele>
        <time>2011-03-05T09:18:38Z</time>
      </trkpt>
      <trkpt lat="45.97741" lon="6.57898">
        <ele>1983.82</ele>
        <time>2011-03-05T09:18:41Z</time>
      </trkpt>
      <trkpt lat="45.97744" lon="6.57894">
        <ele>1983.82</ele>
        <time>2011-03-05T09:18:56Z</time>
      </trkpt>
      <trkpt lat="45.97744" lon="6.57894">
        <ele>1983.82</ele>
        <time>2011-03-05T09:19:10Z</time>
      </trkpt>
      <trkpt lat="45.97755" lon="6.57895">
        <ele>1984.3</ele>
        <time>2011-03-05T09:19:23Z</time>
      </trkpt>
      <trkpt lat="45.97758" lon="6.57895">
        <ele>1983.82</ele>
        <time>2011-03-05T09:19:25Z</time>
      </trkpt>
      <trkpt lat="45.97771" lon="6.57906">
        <ele>1986.22</ele>
        <time>2011-03-05T09:19:36Z</time>
      </trkpt>
      <trkpt lat="45.97771" lon="6.57907">
        <ele>1986.7</ele>
        <time>2011-03-05T09:19:57Z</time>
      </trkpt>
      <trkpt lat="45.97771" lon="6.57907">
        <ele>1986.7</ele>
        <time>2011-03-05T09:20:09Z</time>
      </trkpt>
      <trkpt lat="45.97773" lon="6.57898">
        <ele>1988.14</ele>
        <time>2011-03-05T09:20:20Z</time>
      </trkpt>
      <trkpt lat="45.97774" lon="6.57893">
        <ele>1988.62</ele>
        <time>2011-03-05T09:20:28Z</time>
      </trkpt>
      <trkpt lat="45.97779" lon="6.57883">
        <ele>1991.99</ele>
        <time>2011-03-05T09:20:43Z</time>
      </trkpt>
      <trkpt lat="45.9778" lon="6.57883">
        <ele>1991.99</ele>
        <time>2011-03-05T09:20:51Z</time>
      </trkpt>
      <trkpt lat="45.97785" lon="6.57883">
        <ele>1991.51</ele>
        <time>2011-03-05T09:20:55Z</time>
      </trkpt>
      <trkpt lat="45.97796" lon="6.57888">
        <ele>1990.55</ele>
        <time>2011-03-05T09:21:07Z</time>
      </trkpt>
      <trkpt lat="45.97799" lon="6.57891">
        <ele>1991.03</ele>
        <time>2011-03-05T09:21:19Z</time>
      </trkpt>
      <trkpt lat="45.97799" lon="6.57891">
        <ele>1991.03</ele>
        <time>2011-03-05T09:21:31Z</time>
      </trkpt>
      <trkpt lat="45.97799" lon="6.5788">
        <ele>1992.47</ele>
        <time>2011-03-05T09:21:41Z</time>
      </trkpt>
      <trkpt lat="45.97801" lon="6.57853">
        <ele>1993.91</ele>
        <time>2011-03-05T09:21:53Z</time>
      </trkpt>
      <trkpt lat="45.97801" lon="6.57852">
        <ele>1993.91</ele>
        <time>2011-03-05T09:22:05Z</time>
      </trkpt>
      <trkpt lat="45.97801" lon="6.57852">
        <ele>1993.91</ele>
        <time>2011-03-05T09:22:21Z</time>
      </trkpt>
      <trkpt lat="45.97802" lon="6.57854">
        <ele>1993.91</ele>
        <time>2011-03-05T09:22:37Z</time>
      </trkpt>
      <trkpt lat="45.97811" lon="6.57854">
        <ele>1993.91</ele>
        <time>2011-03-05T09:22:49Z</time>
      </trkpt>
      <trkpt lat="45.97819" lon="6.57864">
        <ele>1997.28</ele>
        <time>2011-03-05T09:23:02Z</time>
      </trkpt>
      <trkpt lat="45.97826" lon="6.57869">
        <ele>1999.2</ele>
        <time>2011-03-05T09:23:14Z</time>
      </trkpt>
      <trkpt lat="45.97826" lon="6.57869">
        <ele>1999.2</ele>
        <time>2011-03-05T09:23:29Z</time>
      </trkpt>
      <trkpt lat="45.97826" lon="6.57869">
        <ele>1999.2</ele>
        <time>2011-03-05T09:23:39Z</time>
      </trkpt>
      <trkpt lat="45.97828" lon="6.57857">
        <ele>2001.12</ele>
        <time>2011-03-05T09:23:53Z</time>
      </trkpt>
      <trkpt lat="45.97829" lon="6.57853">
        <ele>2001.12</ele>
        <time>2011-03-05T09:23:55Z</time>
      </trkpt>
      <trkpt lat="45.97834" lon="6.57834">
        <ele>2002.08</ele>
        <time>2011-03-05T09:24:08Z</time>
      </trkpt>
      <trkpt lat="45.97837" lon="6.57822">
        <ele>2002.56</ele>
        <time>2011-03-05T09:24:17Z</time>
      </trkpt>
      <trkpt lat="45.97838" lon="6.57823">
        <ele>2002.56</ele>
        <time>2011-03-05T09:24:37Z</time>
      </trkpt>
      <trkpt lat="45.9784" lon="6.57811">
        <ele>2004.01</ele>
        <time>2011-03-05T09:24:49Z</time>
      </trkpt>
      <trkpt lat="45.97841" lon="6.57801">
        <ele>2004.49</ele>
        <time>2011-03-05T09:25:00Z</time>
      </trkpt>
      <trkpt lat="45.97842" lon="6.57794">
        <ele>2004.97</ele>
        <time>2011-03-05T09:25:13Z</time>
      </trkpt>
      <trkpt lat="45.97842" lon="6.57794">
        <ele>2004.97</ele>
        <time>2011-03-05T09:25:30Z</time>
      </trkpt>
      <trkpt lat="45.97842" lon="6.57793">
        <ele>2004.97</ele>
        <time>2011-03-05T09:25:48Z</time>
      </trkpt>
      <trkpt lat="45.97842" lon="6.57793">
        <ele>2004.97</ele>
        <time>2011-03-05T09:26:06Z</time>
      </trkpt>
      <trkpt lat="45.97842" lon="6.57793">
        <ele>2004.97</ele>
        <time>2011-03-05T09:26:20Z</time>
      </trkpt>
      <trkpt lat="45.9784" lon="6.57794">
        <ele>2006.41</ele>
        <time>2011-03-05T09:26:36Z</time>
      </trkpt>
      <trkpt lat="45.97841" lon="6.57795">
        <ele>2007.37</ele>
        <time>2011-03-05T09:26:47Z</time>
      </trkpt>
      <trkpt lat="45.97849" lon="6.578">
        <ele>2013.62</ele>
        <time>2011-03-05T09:26:57Z</time>
      </trkpt>
      <trkpt lat="45.97855" lon="6.57802">
        <ele>2019.87</ele>
        <time>2011-03-05T09:27:08Z</time>
      </trkpt>
      <trkpt lat="45.97858" lon="6.57805">
        <ele>2021.79</ele>
        <time>2011-03-05T09:27:15Z</time>
      </trkpt>
      <trkpt lat="45.97863" lon="6.57809">
        <ele>2026.12</ele>
        <time>2011-03-05T09:27:26Z</time>
      </trkpt>
      <trkpt lat="45.97867" lon="6.57812">
        <ele>2027.08</ele>
        <time>2011-03-05T09:27:40Z</time>
      </trkpt>
      <trkpt lat="45.97874" lon="6.57816">
        <ele>2031.4</ele>
        <time>2011-03-05T09:27:52Z</time>
      </trkpt>
      <trkpt lat="45.97879" lon="6.57821">
        <ele>2035.25</ele>
        <time>2011-03-05T09:28:04Z</time>
      </trkpt>
      <trkpt lat="45.97879" lon="6.57821">
        <ele>2035.25</ele>
        <time>2011-03-05T09:28:21Z</time>
      </trkpt>
      <trkpt lat="45.97879" lon="6.57821">
        <ele>2035.25</ele>
        <time>2011-03-05T09:28:33Z</time>
      </trkpt>
      <trkpt lat="45.97879" lon="6.57821">
        <ele>2035.25</ele>
        <time>2011-03-05T09:28:49Z</time>
      </trkpt>
      <trkpt lat="45.97879" lon="6.57821">
        <ele>2035.25</ele>
        <time>2011-03-05T09:29:07Z</time>
      </trkpt>
      <trkpt lat="45.97878" lon="6.57821">
        <ele>2035.73</ele>
        <time>2011-03-05T09:29:24Z</time>
      </trkpt>
      <trkpt lat="45.97878" lon="6.57816">
        <ele>2036.69</ele>
        <time>2011-03-05T09:29:36Z</time>
      </trkpt>
      <trkpt lat="45.97877" lon="6.57806">
        <ele>2038.61</ele>
        <time>2011-03-05T09:29:44Z</time>
      </trkpt>
      <trkpt lat="45.97877" lon="6.57796">
        <ele>2040.54</ele>
        <time>2011-03-05T09:29:53Z</time>
      </trkpt>
      <trkpt lat="45.97878" lon="6.5779">
        <ele>2041.98</ele>
        <time>2011-03-05T09:30:02Z</time>
      </trkpt>
      <trkpt lat="45.97878" lon="6.57789">
        <ele>2041.98</ele>
        <time>2011-03-05T09:30:14Z</time>
      </trkpt>
      <trkpt lat="45.97876" lon="6.57779">
        <ele>2046.3</ele>
        <time>2011-03-05T09:30:25Z</time>
      </trkpt>
      <trkpt lat="45.97872" lon="6.57769">
        <ele>2053.03</ele>
        <time>2011-03-05T09:30:36Z</time>
      </trkpt>
      <trkpt lat="45.9787" lon="6.57766">
        <ele>2055.44</ele>
        <time>2011-03-05T09:30:48Z</time>
      </trkpt>
      <trkpt lat="45.9787" lon="6.57766">
        <ele>2055.44</ele>
        <time>2011-03-05T09:31:02Z</time>
      </trkpt>
      <trkpt lat="45.9787" lon="6.57766">
        <ele>2055.44</ele>
        <time>2011-03-05T09:31:14Z</time>
      </trkpt>
      <trkpt lat="45.97865" lon="6.57762">
        <ele>2060.24</ele>
        <time>2011-03-05T09:31:25Z</time>
      </trkpt>
      <trkpt lat="45.97868" lon="6.57763">
        <ele>2062.65</ele>
        <time>2011-03-05T09:31:35Z</time>
      </trkpt>
      <trkpt lat="45.9787" lon="6.57765">
        <ele>2063.61</ele>
        <time>2011-03-05T09:31:38Z</time>
      </trkpt>
      <trkpt lat="45.97881" lon="6.57785">
        <ele>2068.89</ele>
        <time>2011-03-05T09:31:51Z</time>
      </trkpt>
      <trkpt lat="45.97884" lon="6.57788">
        <ele>2072.26</ele>
        <time>2011-03-05T09:32:02Z</time>
      </trkpt>
      <trkpt lat="45.97884" lon="6.57788">
        <ele>2072.26</ele>
        <time>2011-03-05T09:32:20Z</time>
      </trkpt>
      <trkpt lat="45.97884" lon="6.57788">
        <ele>2072.26</ele>
        <time>2011-03-05T09:32:31Z</time>
      </trkpt>
      <trkpt lat="45.97887" lon="6.57762">
        <ele>2078.03</ele>
        <time>2011-03-05T09:32:42Z</time>
      </trkpt>
      <trkpt lat="45.97895" lon="6.57765">
        <ele>2083.31</ele>
        <time>2011-03-05T09:32:52Z</time>
      </trkpt>
      <trkpt lat="45.97901" lon="6.57766">
        <ele>2087.16</ele>
        <time>2011-03-05T09:33:02Z</time>
      </trkpt>
      <trkpt lat="45.97903" lon="6.57767">
        <ele>2088.6</ele>
        <time>2011-03-05T09:33:13Z</time>
      </trkpt>
      <trkpt lat="45.97903" lon="6.57767">
        <ele>2088.6</ele>
        <time>2011-03-05T09:33:28Z</time>
      </trkpt>
      <trkpt lat="45.97902" lon="6.57764">
        <ele>2090.04</ele>
        <time>2011-03-05T09:33:36Z</time>
      </trkpt>
      <trkpt lat="45.979" lon="6.57752">
        <ele>2095.33</ele>
        <time>2011-03-05T09:33:47Z</time>
      </trkpt>
      <trkpt lat="45.97899" lon="6.57743">
        <ele>2098.21</ele>
        <time>2011-03-05T09:33:57Z</time>
      </trkpt>
      <trkpt lat="45.97897" lon="6.57736">
        <ele>2101.58</ele>
        <time>2011-03-05T09:34:06Z</time>
      </trkpt>
      <trkpt lat="45.97896" lon="6.57734">
        <ele>2102.54</ele>
        <time>2011-03-05T09:34:16Z</time>
      </trkpt>
      <trkpt lat="45.97896" lon="6.57734">
        <ele>2102.54</ele>
        <time>2011-03-05T09:34:30Z</time>
      </trkpt>
      <trkpt lat="45.97896" lon="6.57734">
        <ele>2102.54</ele>
        <time>2011-03-05T09:34:42Z</time>
      </trkpt>
      <trkpt lat="45.97896" lon="6.57734">
        <ele>2102.54</ele>
        <time>2011-03-05T09:34:54Z</time>
      </trkpt>
      <trkpt lat="45.97896" lon="6.57734">
        <ele>2102.54</ele>
        <time>2011-03-05T09:35:04Z</time>
      </trkpt>
      <trkpt lat="45.97896" lon="6.57734">
        <ele>2102.54</ele>
        <time>2011-03-05T09:35:16Z</time>
      </trkpt>
      <trkpt lat="45.97896" lon="6.57735">
        <ele>2102.54</ele>
        <time>2011-03-05T09:35:33Z</time>
      </trkpt>
      <trkpt lat="45.979" lon="6.57738">
        <ele>2103.02</ele>
        <time>2011-03-05T09:35:47Z</time>
      </trkpt>
      <trkpt lat="45.97905" lon="6.57737">
        <ele>2103.5</ele>
        <time>2011-03-05T09:35:53Z</time>
      </trkpt>
      <trkpt lat="45.97906" lon="6.57721">
        <ele>2104.46</ele>
        <time>2011-03-05T09:35:57Z</time>
      </trkpt>
      <trkpt lat="45.97912" lon="6.57713">
        <ele>2106.87</ele>
        <time>2011-03-05T09:36:07Z</time>
      </trkpt>
      <trkpt lat="45.97921" lon="6.5771">
        <ele>2109.27</ele>
        <time>2011-03-05T09:36:20Z</time>
      </trkpt>
      <trkpt lat="45.97921" lon="6.57711">
        <ele>2110.23</ele>
        <time>2011-03-05T09:36:32Z</time>
      </trkpt>
      <trkpt lat="45.97921" lon="6.57711">
        <ele>2110.23</ele>
        <time>2011-03-05T09:36:46Z</time>
      </trkpt>
      <trkpt lat="45.97926" lon="6.57713">
        <ele>2113.6</ele>
        <time>2011-03-05T09:36:57Z</time>
      </trkpt>
      <trkpt lat="45.97933" lon="6.57715">
        <ele>2116.48</ele>
        <time>2011-03-05T09:37:08Z</time>
      </trkpt>
      <trkpt lat="45.97938" lon="6.57718">
        <ele>2119.36</ele>
        <time>2011-03-05T09:37:19Z</time>
      </trkpt>
      <trkpt lat="45.97944" lon="6.57722">
        <ele>2122.73</ele>
        <time>2011-03-05T09:37:32Z</time>
      </trkpt>
      <trkpt lat="45.97949" lon="6.57727">
        <ele>2126.57</ele>
        <time>2011-03-05T09:37:43Z</time>
      </trkpt>
      <trkpt lat="45.97949" lon="6.57727">
        <ele>2126.57</ele>
        <time>2011-03-05T09:38:01Z</time>
      </trkpt>
      <trkpt lat="45.97948" lon="6.57725">
        <ele>2127.05</ele>
        <time>2011-03-05T09:38:10Z</time>
      </trkpt>
      <trkpt lat="45.97948" lon="6.57725">
        <ele>2127.05</ele>
        <time>2011-03-05T09:38:21Z</time>
      </trkpt>
      <trkpt lat="45.97944" lon="6.57717">
        <ele>2129.94</ele>
        <time>2011-03-05T09:38:33Z</time>
      </trkpt>
      <trkpt lat="45.9794" lon="6.57705">
        <ele>2134.26</ele>
        <time>2011-03-05T09:38:44Z</time>
      </trkpt>
      <trkpt lat="45.97939" lon="6.577">
        <ele>2136.67</ele>
        <time>2011-03-05T09:38:54Z</time>
      </trkpt>
      <trkpt lat="45.97939" lon="6.577">
        <ele>2136.67</ele>
        <time>2011-03-05T09:39:12Z</time>
      </trkpt>
      <trkpt lat="45.97939" lon="6.57696">
        <ele>2136.67</ele>
        <time>2011-03-05T09:39:23Z</time>
      </trkpt>
      <trkpt lat="45.9794" lon="6.5769">
        <ele>2136.67</ele>
        <time>2011-03-05T09:39:33Z</time>
      </trkpt>
      <trkpt lat="45.9794" lon="6.5769">
        <ele>2136.67</ele>
        <time>2011-03-05T09:39:43Z</time>
      </trkpt>
      <trkpt lat="45.97938" lon="6.57686">
        <ele>2137.63</ele>
        <time>2011-03-05T09:39:52Z</time>
      </trkpt>
      <trkpt lat="45.97938" lon="6.57686">
        <ele>2137.63</ele>
        <time>2011-03-05T09:40:08Z</time>
      </trkpt>
      <trkpt lat="45.97938" lon="6.57685">
        <ele>2137.63</ele>
        <time>2011-03-05T09:40:13Z</time>
      </trkpt>
      <trkpt lat="45.97934" lon="6.57671">
        <ele>2138.59</ele>
        <time>2011-03-05T09:40:25Z</time>
      </trkpt>
      <trkpt lat="45.97931" lon="6.57662">
        <ele>2140.03</ele>
        <time>2011-03-05T09:40:35Z</time>
      </trkpt>
      <trkpt lat="45.9793" lon="6.57659">
        <ele>2141.47</ele>
        <time>2011-03-05T09:40:49Z</time>
      </trkpt>
      <trkpt lat="45.9793" lon="6.57659">
        <ele>2141.47</ele>
        <time>2011-03-05T09:41:04Z</time>
      </trkpt>
      <trkpt lat="45.9793" lon="6.57659">
        <ele>2141.47</ele>
        <time>2011-03-05T09:41:23Z</time>
      </trkpt>
      <trkpt lat="45.97932" lon="6.5766">
        <ele>2142.44</ele>
        <time>2011-03-05T09:41:26Z</time>
      </trkpt>
      <trkpt lat="45.97941" lon="6.57652">
        <ele>2145.32</ele>
        <time>2011-03-05T09:41:39Z</time>
      </trkpt>
      <trkpt lat="45.97949" lon="6.57651">
        <ele>2147.24</ele>
        <time>2011-03-05T09:41:50Z</time>
      </trkpt>
      <trkpt lat="45.97949" lon="6.57651">
        <ele>2147.24</ele>
        <time>2011-03-05T09:42:10Z</time>
      </trkpt>
      <trkpt lat="45.97949" lon="6.57651">
        <ele>2147.24</ele>
        <time>2011-03-05T09:42:23Z</time>
      </trkpt>
      <trkpt lat="45.97957" lon="6.57651">
        <ele>2150.13</ele>
        <time>2011-03-05T09:42:35Z</time>
      </trkpt>
      <trkpt lat="45.97961" lon="6.57652">
        <ele>2154.45</ele>
        <time>2011-03-05T09:42:46Z</time>
      </trkpt>
      <trkpt lat="45.97966" lon="6.57653">
        <ele>2157.34</ele>
        <time>2011-03-05T09:42:58Z</time>
      </trkpt>
      <trkpt lat="45.97966" lon="6.57653">
        <ele>2157.34</ele>
        <time>2011-03-05T09:43:15Z</time>
      </trkpt>
      <trkpt lat="45.97971" lon="6.57654">
        <ele>2158.3</ele>
        <time>2011-03-05T09:43:33Z</time>
      </trkpt>
      <trkpt lat="45.97975" lon="6.57654">
        <ele>2159.74</ele>
        <time>2011-03-05T09:43:41Z</time>
      </trkpt>
      <trkpt lat="45.97978" lon="6.57655">
        <ele>2160.7</ele>
        <time>2011-03-05T09:43:51Z</time>
      </trkpt>
      <trkpt lat="45.97978" lon="6.57655">
        <ele>2160.7</ele>
        <time>2011-03-05T09:44:06Z</time>
      </trkpt>
      <trkpt lat="45.97976" lon="6.57651">
        <ele>2162.14</ele>
        <time>2011-03-05T09:44:20Z</time>
      </trkpt>
      <trkpt lat="45.97974" lon="6.57645">
        <ele>2164.06</ele>
        <time>2011-03-05T09:44:29Z</time>
      </trkpt>
      <trkpt lat="45.97972" lon="6.57638">
        <ele>2165.99</ele>
        <time>2011-03-05T09:44:39Z</time>
      </trkpt>
      <trkpt lat="45.97972" lon="6.57638">
        <ele>2166.47</ele>
        <time>2011-03-05T09:44:49Z</time>
      </trkpt>
      <trkpt lat="45.97972" lon="6.57638">
        <ele>2166.47</ele>
        <time>2011-03-05T09:45:05Z</time>
      </trkpt>
      <trkpt lat="45.97972" lon="6.57638">
        <ele>2166.47</ele>
        <time>2011-03-05T09:45:16Z</time>
      </trkpt>
      <trkpt lat="45.97972" lon="6.57638">
        <ele>2166.47</ele>
        <time>2011-03-05T09:45:26Z</time>
      </trkpt>
      <trkpt lat="45.9797" lon="6.57631">
        <ele>2168.39</ele>
        <time>2011-03-05T09:45:31Z</time>
      </trkpt>
      <trkpt lat="45.97968" lon="6.57626">
        <ele>2169.83</ele>
        <time>2011-03-05T09:45:38Z</time>
      </trkpt>
      <trkpt lat="45.97964" lon="6.57616">
        <ele>2172.24</ele>
        <time>2011-03-05T09:45:49Z</time>
      </trkpt>
      <trkpt lat="45.97964" lon="6.57616">
        <ele>2172.24</ele>
        <time>2011-03-05T09:46:06Z</time>
      </trkpt>
      <trkpt lat="45.97964" lon="6.57616">
        <ele>2172.24</ele>
        <time>2011-03-05T09:46:23Z</time>
      </trkpt>
      <trkpt lat="45.97973" lon="6.57614">
        <ele>2174.64</ele>
        <time>2011-03-05T09:46:35Z</time>
      </trkpt>
      <trkpt lat="45.97975" lon="6.57614">
        <ele>2175.12</ele>
        <time>2011-03-05T09:46:38Z</time>
      </trkpt>
      <trkpt lat="45.97984" lon="6.57614">
        <ele>2178</ele>
        <time>2011-03-05T09:46:51Z</time>
      </trkpt>
      <trkpt lat="45.97984" lon="6.57614">
        <ele>2178</ele>
        <time>2011-03-05T09:47:13Z</time>
      </trkpt>
      <trkpt lat="45.97984" lon="6.57614">
        <ele>2178</ele>
        <time>2011-03-05T09:47:32Z</time>
      </trkpt>
      <trkpt lat="45.9799" lon="6.57615">
        <ele>2181.85</ele>
        <time>2011-03-05T09:47:43Z</time>
      </trkpt>
      <trkpt lat="45.97997" lon="6.57615">
        <ele>2186.66</ele>
        <time>2011-03-05T09:47:56Z</time>
      </trkpt>
      <trkpt lat="45.98002" lon="6.57614">
        <ele>2189.54</ele>
        <time>2011-03-05T09:48:09Z</time>
      </trkpt>
      <trkpt lat="45.98002" lon="6.57614">
        <ele>2189.54</ele>
        <time>2011-03-05T09:48:24Z</time>
      </trkpt>
      <trkpt lat="45.98001" lon="6.57612">
        <ele>2190.02</ele>
        <time>2011-03-05T09:48:40Z</time>
      </trkpt>
      <trkpt lat="45.98" lon="6.57609">
        <ele>2191.46</ele>
        <time>2011-03-05T09:48:50Z</time>
      </trkpt>
      <trkpt lat="45.97996" lon="6.57599">
        <ele>2196.75</ele>
        <time>2011-03-05T09:49:01Z</time>
      </trkpt>
      <trkpt lat="45.97993" lon="6.57593">
        <ele>2200.59</ele>
        <time>2011-03-05T09:49:11Z</time>
      </trkpt>
      <trkpt lat="45.97989" lon="6.57588">
        <ele>2202.52</ele>
        <time>2011-03-05T09:49:22Z</time>
      </trkpt>
      <trkpt lat="45.97989" lon="6.57588">
        <ele>2203</ele>
        <time>2011-03-05T09:49:37Z</time>
      </trkpt>
      <trkpt lat="45.97989" lon="6.57588">
        <ele>2203</ele>
        <time>2011-03-05T09:49:52Z</time>
      </trkpt>
      <trkpt lat="45.97989" lon="6.57587">
        <ele>2203</ele>
        <time>2011-03-05T09:50:04Z</time>
      </trkpt>
      <trkpt lat="45.97994" lon="6.57585">
        <ele>2204.92</ele>
        <time>2011-03-05T09:50:22Z</time>
      </trkpt>
      <trkpt lat="45.98001" lon="6.57583">
        <ele>2206.84</ele>
        <time>2011-03-05T09:50:33Z</time>
      </trkpt>
      <trkpt lat="45.98006" lon="6.57583">
        <ele>2208.77</ele>
        <time>2011-03-05T09:50:44Z</time>
      </trkpt>
      <trkpt lat="45.98006" lon="6.57583">
        <ele>2208.77</ele>
        <time>2011-03-05T09:51:03Z</time>
      </trkpt>
      <trkpt lat="45.98013" lon="6.57583">
        <ele>2214.05</ele>
        <time>2011-03-05T09:51:15Z</time>
      </trkpt>
      <trkpt lat="45.98016" lon="6.57584">
        <ele>2217.42</ele>
        <time>2011-03-05T09:51:28Z</time>
      </trkpt>
      <trkpt lat="45.98015" lon="6.57584">
        <ele>2218.38</ele>
        <time>2011-03-05T09:51:45Z</time>
      </trkpt>
      <trkpt lat="45.98019" lon="6.57584">
        <ele>2218.86</ele>
        <time>2011-03-05T09:52:01Z</time>
      </trkpt>
      <trkpt lat="45.98022" lon="6.57586">
        <ele>2219.34</ele>
        <time>2011-03-05T09:52:05Z</time>
      </trkpt>
      <trkpt lat="45.9803" lon="6.57591">
        <ele>2222.22</ele>
        <time>2011-03-05T09:52:18Z</time>
      </trkpt>
      <trkpt lat="45.9803" lon="6.57591">
        <ele>2222.71</ele>
        <time>2011-03-05T09:52:33Z</time>
      </trkpt>
      <trkpt lat="45.98029" lon="6.57589">
        <ele>2222.22</ele>
        <time>2011-03-05T09:52:46Z</time>
      </trkpt>
      <trkpt lat="45.98028" lon="6.57586">
        <ele>2222.71</ele>
        <time>2011-03-05T09:52:56Z</time>
      </trkpt>
      <trkpt lat="45.98026" lon="6.57581">
        <ele>2224.15</ele>
        <time>2011-03-05T09:53:06Z</time>
      </trkpt>
      <trkpt lat="45.98025" lon="6.57574">
        <ele>2224.15</ele>
        <time>2011-03-05T09:53:16Z</time>
      </trkpt>
      <trkpt lat="45.98024" lon="6.57572">
        <ele>2224.63</ele>
        <time>2011-03-05T09:53:27Z</time>
      </trkpt>
      <trkpt lat="45.98024" lon="6.57572">
        <ele>2224.63</ele>
        <time>2011-03-05T09:53:44Z</time>
      </trkpt>
      <trkpt lat="45.98024" lon="6.57572">
        <ele>2224.63</ele>
        <time>2011-03-05T09:53:57Z</time>
      </trkpt>
      <trkpt lat="45.98029" lon="6.57571">
        <ele>2226.07</ele>
        <time>2011-03-05T09:54:12Z</time>
      </trkpt>
      <trkpt lat="45.98035" lon="6.57573">
        <ele>2229.92</ele>
        <time>2011-03-05T09:54:24Z</time>
      </trkpt>
      <trkpt lat="45.98037" lon="6.57574">
        <ele>2232.8</ele>
        <time>2011-03-05T09:54:35Z</time>
      </trkpt>
      <trkpt lat="45.98037" lon="6.57574">
        <ele>2232.8</ele>
        <time>2011-03-05T09:54:54Z</time>
      </trkpt>
      <trkpt lat="45.98041" lon="6.57575">
        <ele>2235.2</ele>
        <time>2011-03-05T09:55:06Z</time>
      </trkpt>
      <trkpt lat="45.98046" lon="6.57576">
        <ele>2237.13</ele>
        <time>2011-03-05T09:55:18Z</time>
      </trkpt>
      <trkpt lat="45.9805" lon="6.57577">
        <ele>2238.09</ele>
        <time>2011-03-05T09:55:29Z</time>
      </trkpt>
      <trkpt lat="45.9805" lon="6.57577">
        <ele>2238.57</ele>
        <time>2011-03-05T09:55:49Z</time>
      </trkpt>
      <trkpt lat="45.9805" lon="6.57577">
        <ele>2238.57</ele>
        <time>2011-03-05T09:56:02Z</time>
      </trkpt>
      <trkpt lat="45.9805" lon="6.57577">
        <ele>2238.57</ele>
        <time>2011-03-05T09:56:17Z</time>
      </trkpt>
      <trkpt lat="45.98049" lon="6.57572">
        <ele>2237.61</ele>
        <time>2011-03-05T09:56:28Z</time>
      </trkpt>
      <trkpt lat="45.98049" lon="6.57565">
        <ele>2239.05</ele>
        <time>2011-03-05T09:56:38Z</time>
      </trkpt>
      <trkpt lat="45.98048" lon="6.57558">
        <ele>2241.45</ele>
        <time>2011-03-05T09:56:48Z</time>
      </trkpt>
      <trkpt lat="45.98049" lon="6.57559">
        <ele>2241.93</ele>
        <time>2011-03-05T09:57:03Z</time>
      </trkpt>
      <trkpt lat="45.98048" lon="6.57553">
        <ele>2242.89</ele>
        <time>2011-03-05T09:57:14Z</time>
      </trkpt>
      <trkpt lat="45.98048" lon="6.57549">
        <ele>2243.85</ele>
        <time>2011-03-05T09:57:24Z</time>
      </trkpt>
      <trkpt lat="45.98047" lon="6.57542">
        <ele>2245.78</ele>
        <time>2011-03-05T09:57:34Z</time>
      </trkpt>
      <trkpt lat="45.98046" lon="6.57541">
        <ele>2246.26</ele>
        <time>2011-03-05T09:57:46Z</time>
      </trkpt>
      <trkpt lat="45.98046" lon="6.57541">
        <ele>2246.26</ele>
        <time>2011-03-05T09:57:50Z</time>
      </trkpt>
      <trkpt lat="45.98045" lon="6.5754">
        <ele>2246.26</ele>
        <time>2011-03-05T09:58:07Z</time>
      </trkpt>
      <trkpt lat="45.98046" lon="6.57539">
        <ele>2246.74</ele>
        <time>2011-03-05T09:58:17Z</time>
      </trkpt>
      <trkpt lat="45.98051" lon="6.57538">
        <ele>2247.22</ele>
        <time>2011-03-05T09:58:31Z</time>
      </trkpt>
      <trkpt lat="45.98059" lon="6.57539">
        <ele>2249.62</ele>
        <time>2011-03-05T09:58:44Z</time>
      </trkpt>
      <trkpt lat="45.9806" lon="6.57539">
        <ele>2250.1</ele>
        <time>2011-03-05T09:58:57Z</time>
      </trkpt>
      <trkpt lat="45.98062" lon="6.57541">
        <ele>2252.51</ele>
        <time>2011-03-05T09:59:15Z</time>
      </trkpt>
      <trkpt lat="45.98067" lon="6.57545">
        <ele>2256.83</ele>
        <time>2011-03-05T09:59:27Z</time>
      </trkpt>
      <trkpt lat="45.98068" lon="6.57548">
        <ele>2259.72</ele>
        <time>2011-03-05T09:59:40Z</time>
      </trkpt>
      <trkpt lat="45.98068" lon="6.57547">
        <ele>2259.72</ele>
        <time>2011-03-05T09:59:58Z</time>
      </trkpt>
      <trkpt lat="45.98067" lon="6.5754">
        <ele>2262.12</ele>
        <time>2011-03-05T10:00:08Z</time>
      </trkpt>
      <trkpt lat="45.98066" lon="6.57533">
        <ele>2265</ele>
        <time>2011-03-05T10:00:19Z</time>
      </trkpt>
      <trkpt lat="45.98064" lon="6.57526">
        <ele>2267.41</ele>
        <time>2011-03-05T10:00:29Z</time>
      </trkpt>
      <trkpt lat="45.98064" lon="6.57522">
        <ele>2268.85</ele>
        <time>2011-03-05T10:00:39Z</time>
      </trkpt>
      <trkpt lat="45.98064" lon="6.57522">
        <ele>2268.85</ele>
        <time>2011-03-05T10:00:51Z</time>
      </trkpt>
      <trkpt lat="45.98064" lon="6.57521">
        <ele>2268.37</ele>
        <time>2011-03-05T10:01:06Z</time>
      </trkpt>
      <trkpt lat="45.98069" lon="6.5752">
        <ele>2270.29</ele>
        <time>2011-03-05T10:01:22Z</time>
      </trkpt>
      <trkpt lat="45.98076" lon="6.57521">
        <ele>2272.21</ele>
        <time>2011-03-05T10:01:33Z</time>
      </trkpt>
      <trkpt lat="45.98079" lon="6.57522">
        <ele>2273.17</ele>
        <time>2011-03-05T10:01:44Z</time>
      </trkpt>
      <trkpt lat="45.98079" lon="6.57522">
        <ele>2273.17</ele>
        <time>2011-03-05T10:01:58Z</time>
      </trkpt>
      <trkpt lat="45.98077" lon="6.57517">
        <ele>2273.17</ele>
        <time>2011-03-05T10:02:08Z</time>
      </trkpt>
      <trkpt lat="45.98075" lon="6.5751">
        <ele>2273.66</ele>
        <time>2011-03-05T10:02:17Z</time>
      </trkpt>
      <trkpt lat="45.98075" lon="6.5751">
        <ele>2274.14</ele>
        <time>2011-03-05T10:02:29Z</time>
      </trkpt>
      <trkpt lat="45.98077" lon="6.57509">
        <ele>2274.62</ele>
        <time>2011-03-05T10:02:49Z</time>
      </trkpt>
      <trkpt lat="45.98087" lon="6.57511">
        <ele>2278.46</ele>
        <time>2011-03-05T10:03:02Z</time>
      </trkpt>
      <trkpt lat="45.98089" lon="6.57513">
        <ele>2279.42</ele>
        <time>2011-03-05T10:03:15Z</time>
      </trkpt>
      <trkpt lat="45.98088" lon="6.57511">
        <ele>2279.42</ele>
        <time>2011-03-05T10:03:29Z</time>
      </trkpt>
      <trkpt lat="45.98087" lon="6.5751">
        <ele>2279.9</ele>
        <time>2011-03-05T10:03:41Z</time>
      </trkpt>
      <trkpt lat="45.98087" lon="6.5751">
        <ele>2280.38</ele>
        <time>2011-03-05T10:03:52Z</time>
      </trkpt>
      <trkpt lat="45.98086" lon="6.57508">
        <ele>2281.35</ele>
        <time>2011-03-05T10:04:03Z</time>
      </trkpt>
      <trkpt lat="45.98086" lon="6.57504">
        <ele>2282.31</ele>
        <time>2011-03-05T10:04:12Z</time>
      </trkpt>
      <trkpt lat="45.98085" lon="6.57501">
        <ele>2282.79</ele>
        <time>2011-03-05T10:04:28Z</time>
      </trkpt>
      <trkpt lat="45.98082" lon="6.57495">
        <ele>2284.23</ele>
        <time>2011-03-05T10:04:38Z</time>
      </trkpt>
      <trkpt lat="45.9808" lon="6.57491">
        <ele>2284.71</ele>
        <time>2011-03-05T10:04:48Z</time>
      </trkpt>
      <trkpt lat="45.9808" lon="6.57491">
        <ele>2284.71</ele>
        <time>2011-03-05T10:05:02Z</time>
      </trkpt>
      <trkpt lat="45.9808" lon="6.57491">
        <ele>2284.71</ele>
        <time>2011-03-05T10:05:13Z</time>
      </trkpt>
      <trkpt lat="45.9808" lon="6.5749">
        <ele>2285.19</ele>
        <time>2011-03-05T10:05:28Z</time>
      </trkpt>
      <trkpt lat="45.9808" lon="6.5749">
        <ele>2285.19</ele>
        <time>2011-03-05T10:05:38Z</time>
      </trkpt>
      <trkpt lat="45.9808" lon="6.5749">
        <ele>2285.19</ele>
        <time>2011-03-05T10:05:46Z</time>
      </trkpt>
      <trkpt lat="45.98082" lon="6.5749">
        <ele>2285.67</ele>
        <time>2011-03-05T10:05:58Z</time>
      </trkpt>
      <trkpt lat="45.98085" lon="6.57493">
        <ele>2288.08</ele>
        <time>2011-03-05T10:06:10Z</time>
      </trkpt>
      <trkpt lat="45.9809" lon="6.57497">
        <ele>2292.4</ele>
        <time>2011-03-05T10:06:20Z</time>
      </trkpt>
      <trkpt lat="45.9809" lon="6.57497">
        <ele>2292.4</ele>
        <time>2011-03-05T10:06:34Z</time>
      </trkpt>
      <trkpt lat="45.98092" lon="6.57497">
        <ele>2293.36</ele>
        <time>2011-03-05T10:06:44Z</time>
      </trkpt>
      <trkpt lat="45.98093" lon="6.57496">
        <ele>2294.32</ele>
        <time>2011-03-05T10:07:03Z</time>
      </trkpt>
      <trkpt lat="45.98093" lon="6.57486">
        <ele>2295.77</ele>
        <time>2011-03-05T10:07:13Z</time>
      </trkpt>
      <trkpt lat="45.98092" lon="6.57483">
        <ele>2296.73</ele>
        <time>2011-03-05T10:07:21Z</time>
      </trkpt>
      <trkpt lat="45.9809" lon="6.57478">
        <ele>2298.65</ele>
        <time>2011-03-05T10:07:29Z</time>
      </trkpt>
      <trkpt lat="45.98089" lon="6.57476">
        <ele>2299.61</ele>
        <time>2011-03-05T10:07:40Z</time>
      </trkpt>
      <trkpt lat="45.98089" lon="6.57476">
        <ele>2299.61</ele>
        <time>2011-03-05T10:07:55Z</time>
      </trkpt>
      <trkpt lat="45.98089" lon="6.57476">
        <ele>2299.61</ele>
        <time>2011-03-05T10:08:04Z</time>
      </trkpt>
      <trkpt lat="45.98091" lon="6.57476">
        <ele>2300.57</ele>
        <time>2011-03-05T10:08:14Z</time>
      </trkpt>
      <trkpt lat="45.98092" lon="6.57477">
        <ele>2301.05</ele>
        <time>2011-03-05T10:08:24Z</time>
      </trkpt>
      <trkpt lat="45.98094" lon="6.57477">
        <ele>2301.53</ele>
        <time>2011-03-05T10:08:38Z</time>
      </trkpt>
      <trkpt lat="45.98095" lon="6.57476">
        <ele>2302.49</ele>
        <time>2011-03-05T10:08:45Z</time>
      </trkpt>
      <trkpt lat="45.98094" lon="6.57466">
        <ele>2305.86</ele>
        <time>2011-03-05T10:08:55Z</time>
      </trkpt>
      <trkpt lat="45.98089" lon="6.5746">
        <ele>2309.22</ele>
        <time>2011-03-05T10:09:05Z</time>
      </trkpt>
      <trkpt lat="45.98086" lon="6.57457">
        <ele>2310.19</ele>
        <time>2011-03-05T10:09:14Z</time>
      </trkpt>
      <trkpt lat="45.98086" lon="6.57457">
        <ele>2310.19</ele>
        <time>2011-03-05T10:09:24Z</time>
      </trkpt>
      <trkpt lat="45.98086" lon="6.57457">
        <ele>2310.19</ele>
        <time>2011-03-05T10:09:37Z</time>
      </trkpt>
      <trkpt lat="45.98086" lon="6.57457">
        <ele>2310.19</ele>
        <time>2011-03-05T10:09:51Z</time>
      </trkpt>
      <trkpt lat="45.98086" lon="6.57458">
        <ele>2310.19</ele>
        <time>2011-03-05T10:10:09Z</time>
      </trkpt>
      <trkpt lat="45.98086" lon="6.57458">
        <ele>2310.19</ele>
        <time>2011-03-05T10:10:24Z</time>
      </trkpt>
      <trkpt lat="45.98086" lon="6.57458">
        <ele>2310.19</ele>
        <time>2011-03-05T10:10:47Z</time>
      </trkpt>
      <trkpt lat="45.98086" lon="6.57458">
        <ele>2310.19</ele>
        <time>2011-03-05T10:11:03Z</time>
      </trkpt>
      <trkpt lat="45.98086" lon="6.57458">
        <ele>2310.19</ele>
        <time>2011-03-05T10:11:28Z</time>
      </trkpt>
      <trkpt lat="45.98086" lon="6.57458">
        <ele>2309.7</ele>
        <time>2011-03-05T10:11:47Z</time>
      </trkpt>
      <trkpt lat="45.98087" lon="6.57459">
        <ele>2309.7</ele>
        <time>2011-03-05T10:12:13Z</time>
      </trkpt>
      <trkpt lat="45.98087" lon="6.57459">
        <ele>2309.7</ele>
        <time>2011-03-05T10:12:39Z</time>
      </trkpt>
      <trkpt lat="45.98087" lon="6.57459">
        <ele>2309.7</ele>
        <time>2011-03-05T10:12:58Z</time>
      </trkpt>
      <trkpt lat="45.98087" lon="6.57458">
        <ele>2309.7</ele>
        <time>2011-03-05T10:13:13Z</time>
      </trkpt>
      <trkpt lat="45.98087" lon="6.57458">
        <ele>2309.7</ele>
        <time>2011-03-05T10:13:31Z</time>
      </trkpt>
      <trkpt lat="45.98087" lon="6.57458">
        <ele>2309.7</ele>
        <time>2011-03-05T10:13:32Z</time>
      </trkpt>
      <trkpt lat="45.98087" lon="6.57455">
        <ele>2308.26</ele>
        <time>2011-03-05T10:13:43Z</time>
      </trkpt>
      <trkpt lat="45.98088" lon="6.57447">
        <ele>2307.78</ele>
        <time>2011-03-05T10:13:56Z</time>
      </trkpt>
      <trkpt lat="45.9809" lon="6.57434">
        <ele>2307.78</ele>
        <time>2011-03-05T10:14:07Z</time>
      </trkpt>
      <trkpt lat="45.98096" lon="6.57424">
        <ele>2306.82</ele>
        <time>2011-03-05T10:14:19Z</time>
      </trkpt>
      <trkpt lat="45.98097" lon="6.57414">
        <ele>2306.82</ele>
        <time>2011-03-05T10:14:33Z</time>
      </trkpt>
      <trkpt lat="45.98099" lon="6.57413">
        <ele>2306.82</ele>
        <time>2011-03-05T10:14:46Z</time>
      </trkpt>
      <trkpt lat="45.98111" lon="6.57403">
        <ele>2305.86</ele>
        <time>2011-03-05T10:14:59Z</time>
      </trkpt>
      <trkpt lat="45.98119" lon="6.57396">
        <ele>2305.86</ele>
        <time>2011-03-05T10:15:11Z</time>
      </trkpt>
      <trkpt lat="45.98128" lon="6.57393">
        <ele>2304.9</ele>
        <time>2011-03-05T10:15:24Z</time>
      </trkpt>
      <trkpt lat="45.98137" lon="6.57392">
        <ele>2303.46</ele>
        <time>2011-03-05T10:15:38Z</time>
      </trkpt>
      <trkpt lat="45.98145" lon="6.57391">
        <ele>2302.98</ele>
        <time>2011-03-05T10:15:49Z</time>
      </trkpt>
      <trkpt lat="45.98154" lon="6.57394">
        <ele>2301.53</ele>
        <time>2011-03-05T10:16:01Z</time>
      </trkpt>
      <trkpt lat="45.98164" lon="6.57397">
        <ele>2299.13</ele>
        <time>2011-03-05T10:16:13Z</time>
      </trkpt>
      <trkpt lat="45.98172" lon="6.57396">
        <ele>2295.77</ele>
        <time>2011-03-05T10:16:27Z</time>
      </trkpt>
      <trkpt lat="45.9818" lon="6.57396">
        <ele>2292.88</ele>
        <time>2011-03-05T10:16:40Z</time>
      </trkpt>
      <trkpt lat="45.98192" lon="6.57403">
        <ele>2291.44</ele>
        <time>2011-03-05T10:16:55Z</time>
      </trkpt>
      <trkpt lat="45.98192" lon="6.57403">
        <ele>2291.44</ele>
        <time>2011-03-05T10:17:08Z</time>
      </trkpt>
      <trkpt lat="45.98192" lon="6.57403">
        <ele>2291.44</ele>
        <time>2011-03-05T10:17:24Z</time>
      </trkpt>
      <trkpt lat="45.98193" lon="6.57403">
        <ele>2291.44</ele>
        <time>2011-03-05T10:17:41Z</time>
      </trkpt>
      <trkpt lat="45.98201" lon="6.574">
        <ele>2290.48</ele>
        <time>2011-03-05T10:17:50Z</time>
      </trkpt>
      <trkpt lat="45.98215" lon="6.57404">
        <ele>2290.48</ele>
        <time>2011-03-05T10:18:02Z</time>
      </trkpt>
      <trkpt lat="45.98219" lon="6.57403">
        <ele>2290</ele>
        <time>2011-03-05T10:18:15Z</time>
      </trkpt>
      <trkpt lat="45.9822" lon="6.57403">
        <ele>2290</ele>
        <time>2011-03-05T10:18:33Z</time>
      </trkpt>
      <trkpt lat="45.98237" lon="6.57406">
        <ele>2290.96</ele>
        <time>2011-03-05T10:18:47Z</time>
      </trkpt>
      <trkpt lat="45.98238" lon="6.57406">
        <ele>2292.4</ele>
        <time>2011-03-05T10:19:04Z</time>
      </trkpt>
      <trkpt lat="45.98246" lon="6.57405">
        <ele>2291.92</ele>
        <time>2011-03-05T10:19:17Z</time>
      </trkpt>
      <trkpt lat="45.98257" lon="6.57402">
        <ele>2291.92</ele>
        <time>2011-03-05T10:19:30Z</time>
      </trkpt>
      <trkpt lat="45.98262" lon="6.57401">
        <ele>2294.32</ele>
        <time>2011-03-05T10:19:43Z</time>
      </trkpt>
      <trkpt lat="45.98262" lon="6.57401">
        <ele>2294.32</ele>
        <time>2011-03-05T10:20:04Z</time>
      </trkpt>
      <trkpt lat="45.98266" lon="6.57401">
        <ele>2294.32</ele>
        <time>2011-03-05T10:20:14Z</time>
      </trkpt>
      <trkpt lat="45.9827" lon="6.57401">
        <ele>2295.28</ele>
        <time>2011-03-05T10:20:18Z</time>
      </trkpt>
      <trkpt lat="45.98279" lon="6.57402">
        <ele>2296.73</ele>
        <time>2011-03-05T10:20:35Z</time>
      </trkpt>
      <trkpt lat="45.9828" lon="6.57402">
        <ele>2297.21</ele>
        <time>2011-03-05T10:20:52Z</time>
      </trkpt>
      <trkpt lat="45.98288" lon="6.57403">
        <ele>2297.21</ele>
        <time>2011-03-05T10:20:59Z</time>
      </trkpt>
      <trkpt lat="45.98299" lon="6.57405">
        <ele>2300.09</ele>
        <time>2011-03-05T10:21:13Z</time>
      </trkpt>
      <trkpt lat="45.98299" lon="6.57405">
        <ele>2300.09</ele>
        <time>2011-03-05T10:21:29Z</time>
      </trkpt>
      <trkpt lat="45.98299" lon="6.57405">
        <ele>2300.09</ele>
        <time>2011-03-05T10:21:45Z</time>
      </trkpt>
      <trkpt lat="45.98301" lon="6.57404">
        <ele>2300.57</ele>
        <time>2011-03-05T10:21:47Z</time>
      </trkpt>
      <trkpt lat="45.98313" lon="6.57395">
        <ele>2311.63</ele>
        <time>2011-03-05T10:22:01Z</time>
      </trkpt>
      <trkpt lat="45.98314" lon="6.57394">
        <ele>2314.03</ele>
        <time>2011-03-05T10:22:16Z</time>
      </trkpt>
      <trkpt lat="45.98313" lon="6.57388">
        <ele>2320.76</ele>
        <time>2011-03-05T10:22:26Z</time>
      </trkpt>
      <trkpt lat="45.98323" lon="6.57395">
        <ele>2344.79</ele>
        <time>2011-03-05T10:22:42Z</time>
      </trkpt>
      <trkpt lat="45.98326" lon="6.57408">
        <ele>2351.52</ele>
        <time>2011-03-05T10:22:56Z</time>
      </trkpt>
      <trkpt lat="45.98324" lon="6.57423">
        <ele>2357.77</ele>
        <time>2011-03-05T10:23:10Z</time>
      </trkpt>
      <trkpt lat="45.98323" lon="6.57434">
        <ele>2359.69</ele>
        <time>2011-03-05T10:23:25Z</time>
      </trkpt>
      <trkpt lat="45.98323" lon="6.57434">
        <ele>2359.69</ele>
        <time>2011-03-05T10:23:42Z</time>
      </trkpt>
      <trkpt lat="45.9832" lon="6.57442">
        <ele>2361.14</ele>
        <time>2011-03-05T10:23:57Z</time>
      </trkpt>
      <trkpt lat="45.9832" lon="6.57442">
        <ele>2361.14</ele>
        <time>2011-03-05T10:24:14Z</time>
      </trkpt>
      <trkpt lat="45.98317" lon="6.57454">
        <ele>2363.54</ele>
        <time>2011-03-05T10:24:26Z</time>
      </trkpt>
      <trkpt lat="45.98312" lon="6.57469">
        <ele>2365.94</ele>
        <time>2011-03-05T10:24:40Z</time>
      </trkpt>
      <trkpt lat="45.98311" lon="6.57471">
        <ele>2367.38</ele>
        <time>2011-03-05T10:24:54Z</time>
      </trkpt>
      <trkpt lat="45.9831" lon="6.57482">
        <ele>2369.79</ele>
        <time>2011-03-05T10:25:06Z</time>
      </trkpt>
      <trkpt lat="45.98309" lon="6.57495">
        <ele>2372.19</ele>
        <time>2011-03-05T10:25:20Z</time>
      </trkpt>
      <trkpt lat="45.98307" lon="6.575">
        <ele>2372.67</ele>
        <time>2011-03-05T10:25:36Z</time>
      </trkpt>
      <trkpt lat="45.98305" lon="6.57511">
        <ele>2374.59</ele>
        <time>2011-03-05T10:25:50Z</time>
      </trkpt>
      <trkpt lat="45.98305" lon="6.57515">
        <ele>2375.55</ele>
        <time>2011-03-05T10:26:07Z</time>
      </trkpt>
      <trkpt lat="45.98302" lon="6.57525">
        <ele>2377.96</ele>
        <time>2011-03-05T10:26:21Z</time>
      </trkpt>
      <trkpt lat="45.98301" lon="6.57536">
        <ele>2380.36</ele>
        <time>2011-03-05T10:26:33Z</time>
      </trkpt>
      <trkpt lat="45.98302" lon="6.57538">
        <ele>2380.84</ele>
        <time>2011-03-05T10:26:48Z</time>
      </trkpt>
      <trkpt lat="45.98301" lon="6.57545">
        <ele>2381.32</ele>
        <time>2011-03-05T10:27:02Z</time>
      </trkpt>
      <trkpt lat="45.98297" lon="6.57554">
        <ele>2382.28</ele>
        <time>2011-03-05T10:27:13Z</time>
      </trkpt>
      <trkpt lat="45.98295" lon="6.57556">
        <ele>2382.28</ele>
        <time>2011-03-05T10:27:26Z</time>
      </trkpt>
      <trkpt lat="45.98292" lon="6.57558">
        <ele>2382.76</ele>
        <time>2011-03-05T10:27:38Z</time>
      </trkpt>
      <trkpt lat="45.98288" lon="6.57562">
        <ele>2386.13</ele>
        <time>2011-03-05T10:27:49Z</time>
      </trkpt>
      <trkpt lat="45.98282" lon="6.57564">
        <ele>2403.43</ele>
        <time>2011-03-05T10:28:00Z</time>
      </trkpt>
      <trkpt lat="45.98282" lon="6.57565">
        <ele>2400.07</ele>
        <time>2011-03-05T10:28:16Z</time>
      </trkpt>
      <trkpt lat="45.9828" lon="6.57559">
        <ele>2399.11</ele>
        <time>2011-03-05T10:28:27Z</time>
      </trkpt>
      <trkpt lat="45.9828" lon="6.57551">
        <ele>2400.55</ele>
        <time>2011-03-05T10:28:36Z</time>
      </trkpt>
      <trkpt lat="45.98279" lon="6.57548">
        <ele>2402.95</ele>
        <time>2011-03-05T10:28:46Z</time>
      </trkpt>
      <trkpt lat="45.98278" lon="6.57549">
        <ele>2403.91</ele>
        <time>2011-03-05T10:29:01Z</time>
      </trkpt>
      <trkpt lat="45.98273" lon="6.57553">
        <ele>2404.39</ele>
        <time>2011-03-05T10:29:09Z</time>
      </trkpt>
      <trkpt lat="45.98269" lon="6.57558">
        <ele>2404.88</ele>
        <time>2011-03-05T10:29:19Z</time>
      </trkpt>
      <trkpt lat="45.98265" lon="6.57565">
        <ele>2406.32</ele>
        <time>2011-03-05T10:29:30Z</time>
      </trkpt>
      <trkpt lat="45.98262" lon="6.57573">
        <ele>2408.72</ele>
        <time>2011-03-05T10:29:40Z</time>
      </trkpt>
      <trkpt lat="45.98261" lon="6.57574">
        <ele>2409.2</ele>
        <time>2011-03-05T10:29:53Z</time>
      </trkpt>
      <trkpt lat="45.98261" lon="6.57573">
        <ele>2409.2</ele>
        <time>2011-03-05T10:30:04Z</time>
      </trkpt>
      <trkpt lat="45.98258" lon="6.57565">
        <ele>2409.68</ele>
        <time>2011-03-05T10:30:14Z</time>
      </trkpt>
      <trkpt lat="45.98256" lon="6.57558">
        <ele>2410.64</ele>
        <time>2011-03-05T10:30:25Z</time>
      </trkpt>
      <trkpt lat="45.98255" lon="6.57552">
        <ele>2412.09</ele>
        <time>2011-03-05T10:30:35Z</time>
      </trkpt>
      <trkpt lat="45.98254" lon="6.57553">
        <ele>2412.09</ele>
        <time>2011-03-05T10:30:47Z</time>
      </trkpt>
      <trkpt lat="45.98251" lon="6.57559">
        <ele>2412.57</ele>
        <time>2011-03-05T10:31:00Z</time>
      </trkpt>
      <trkpt lat="45.98248" lon="6.57566">
        <ele>2413.53</ele>
        <time>2011-03-05T10:31:09Z</time>
      </trkpt>
      <trkpt lat="45.98246" lon="6.57575">
        <ele>2416.41</ele>
        <time>2011-03-05T10:31:18Z</time>
      </trkpt>
      <trkpt lat="45.98246" lon="6.57578">
        <ele>2417.85</ele>
        <time>2011-03-05T10:31:28Z</time>
      </trkpt>
      <trkpt lat="45.98245" lon="6.57583">
        <ele>2418.81</ele>
        <time>2011-03-05T10:31:39Z</time>
      </trkpt>
      <trkpt lat="45.98243" lon="6.57595">
        <ele>2422.66</ele>
        <time>2011-03-05T10:31:51Z</time>
      </trkpt>
      <trkpt lat="45.98241" lon="6.57603">
        <ele>2424.58</ele>
        <time>2011-03-05T10:32:01Z</time>
      </trkpt>
      <trkpt lat="45.98241" lon="6.57608">
        <ele>2425.54</ele>
        <time>2011-03-05T10:32:10Z</time>
      </trkpt>
      <trkpt lat="45.98239" lon="6.57606">
        <ele>2424.58</ele>
        <time>2011-03-05T10:32:24Z</time>
      </trkpt>
      <trkpt lat="45.98239" lon="6.57601">
        <ele>2426.02</ele>
        <time>2011-03-05T10:32:38Z</time>
      </trkpt>
      <trkpt lat="45.98235" lon="6.57589">
        <ele>2427.95</ele>
        <time>2011-03-05T10:32:50Z</time>
      </trkpt>
      <trkpt lat="45.98233" lon="6.57584">
        <ele>2428.91</ele>
        <time>2011-03-05T10:33:00Z</time>
      </trkpt>
      <trkpt lat="45.98233" lon="6.57585">
        <ele>2428.91</ele>
        <time>2011-03-05T10:33:10Z</time>
      </trkpt>
      <trkpt lat="45.98231" lon="6.57589">
        <ele>2429.87</ele>
        <time>2011-03-05T10:33:21Z</time>
      </trkpt>
      <trkpt lat="45.98229" lon="6.57599">
        <ele>2430.35</ele>
        <time>2011-03-05T10:33:31Z</time>
      </trkpt>
      <trkpt lat="45.98227" lon="6.576">
        <ele>2430.35</ele>
        <time>2011-03-05T10:33:41Z</time>
      </trkpt>
      <trkpt lat="45.98227" lon="6.57599">
        <ele>2430.35</ele>
        <time>2011-03-05T10:33:51Z</time>
      </trkpt>
      <trkpt lat="45.98223" lon="6.57588">
        <ele>2431.31</ele>
        <time>2011-03-05T10:34:02Z</time>
      </trkpt>
      <trkpt lat="45.98218" lon="6.57579">
        <ele>2432.27</ele>
        <time>2011-03-05T10:34:13Z</time>
      </trkpt>
      <trkpt lat="45.98215" lon="6.57573">
        <ele>2433.71</ele>
        <time>2011-03-05T10:34:24Z</time>
      </trkpt>
      <trkpt lat="45.98214" lon="6.57571">
        <ele>2434.68</ele>
        <time>2011-03-05T10:34:40Z</time>
      </trkpt>
      <trkpt lat="45.98209" lon="6.57566">
        <ele>2437.08</ele>
        <time>2011-03-05T10:34:50Z</time>
      </trkpt>
      <trkpt lat="45.98204" lon="6.57565">
        <ele>2440.92</ele>
        <time>2011-03-05T10:35:00Z</time>
      </trkpt>
      <trkpt lat="45.98202" lon="6.57564">
        <ele>2442.37</ele>
        <time>2011-03-05T10:35:11Z</time>
      </trkpt>
      <trkpt lat="45.982" lon="6.57563">
        <ele>2442.85</ele>
        <time>2011-03-05T10:35:24Z</time>
      </trkpt>
      <trkpt lat="45.98192" lon="6.5756">
        <ele>2445.25</ele>
        <time>2011-03-05T10:35:35Z</time>
      </trkpt>
      <trkpt lat="45.98189" lon="6.57558">
        <ele>2447.17</ele>
        <time>2011-03-05T10:35:47Z</time>
      </trkpt>
      <trkpt lat="45.98186" lon="6.57565">
        <ele>2448.13</ele>
        <time>2011-03-05T10:35:58Z</time>
      </trkpt>
      <trkpt lat="45.98182" lon="6.5757">
        <ele>2450.54</ele>
        <time>2011-03-05T10:36:07Z</time>
      </trkpt>
      <trkpt lat="45.98183" lon="6.57574">
        <ele>2451.5</ele>
        <time>2011-03-05T10:36:21Z</time>
      </trkpt>
      <trkpt lat="45.98181" lon="6.57581">
        <ele>2453.9</ele>
        <time>2011-03-05T10:36:30Z</time>
      </trkpt>
      <trkpt lat="45.98176" lon="6.57581">
        <ele>2456.31</ele>
        <time>2011-03-05T10:36:40Z</time>
      </trkpt>
      <trkpt lat="45.98175" lon="6.57586">
        <ele>2456.79</ele>
        <time>2011-03-05T10:36:53Z</time>
      </trkpt>
      <trkpt lat="45.98175" lon="6.57592">
        <ele>2459.19</ele>
        <time>2011-03-05T10:37:02Z</time>
      </trkpt>
      <trkpt lat="45.98175" lon="6.57595">
        <ele>2459.19</ele>
        <time>2011-03-05T10:37:17Z</time>
      </trkpt>
      <trkpt lat="45.98174" lon="6.57602">
        <ele>2460.63</ele>
        <time>2011-03-05T10:37:26Z</time>
      </trkpt>
      <trkpt lat="45.98175" lon="6.57608">
        <ele>2462.07</ele>
        <time>2011-03-05T10:37:36Z</time>
      </trkpt>
      <trkpt lat="45.98176" lon="6.57614">
        <ele>2463.04</ele>
        <time>2011-03-05T10:37:51Z</time>
      </trkpt>
      <trkpt lat="45.98174" lon="6.57624">
        <ele>2465.44</ele>
        <time>2011-03-05T10:38:02Z</time>
      </trkpt>
      <trkpt lat="45.98174" lon="6.5763">
        <ele>2467.84</ele>
        <time>2011-03-05T10:38:11Z</time>
      </trkpt>
      <trkpt lat="45.98174" lon="6.57635">
        <ele>2468.32</ele>
        <time>2011-03-05T10:38:23Z</time>
      </trkpt>
      <trkpt lat="45.98174" lon="6.57638">
        <ele>2469.28</ele>
        <time>2011-03-05T10:38:33Z</time>
      </trkpt>
      <trkpt lat="45.98174" lon="6.57637">
        <ele>2470.24</ele>
        <time>2011-03-05T10:38:46Z</time>
      </trkpt>
      <trkpt lat="45.98174" lon="6.57637">
        <ele>2470.24</ele>
        <time>2011-03-05T10:39:03Z</time>
      </trkpt>
      <trkpt lat="45.98173" lon="6.57637">
        <ele>2470.24</ele>
        <time>2011-03-05T10:39:14Z</time>
      </trkpt>
      <trkpt lat="45.98173" lon="6.57637">
        <ele>2470.73</ele>
        <time>2011-03-05T10:39:25Z</time>
      </trkpt>
      <trkpt lat="45.98173" lon="6.57637">
        <ele>2470.73</ele>
        <time>2011-03-05T10:39:36Z</time>
      </trkpt>
      <trkpt lat="45.98173" lon="6.57637">
        <ele>2470.73</ele>
        <time>2011-03-05T10:39:54Z</time>
      </trkpt>
      <trkpt lat="45.98173" lon="6.57637">
        <ele>2470.73</ele>
        <time>2011-03-05T10:40:17Z</time>
      </trkpt>
      <trkpt lat="45.98173" lon="6.57637">
        <ele>2470.73</ele>
        <time>2011-03-05T10:40:44Z</time>
      </trkpt>
      <trkpt lat="45.98173" lon="6.57637">
        <ele>2470.73</ele>
        <time>2011-03-05T10:41:14Z</time>
      </trkpt>
      <trkpt lat="45.98172" lon="6.57637">
        <ele>2470.73</ele>
        <time>2011-03-05T10:41:33Z</time>
      </trkpt>
      <trkpt lat="45.98172" lon="6.57637">
        <ele>2470.73</ele>
        <time>2011-03-05T10:42:05Z</time>
      </trkpt>
      <trkpt lat="45.98172" lon="6.57637">
        <ele>2471.21</ele>
        <time>2011-03-05T10:42:40Z</time>
      </trkpt>
      <trkpt lat="45.98172" lon="6.57637">
        <ele>2471.69</ele>
        <time>2011-03-05T10:43:13Z</time>
      </trkpt>
      <trkpt lat="45.98172" lon="6.57637">
        <ele>2471.69</ele>
        <time>2011-03-05T10:43:44Z</time>
      </trkpt>
      <trkpt lat="45.98173" lon="6.57637">
        <ele>2471.69</ele>
        <time>2011-03-05T10:44:08Z</time>
      </trkpt>
      <trkpt lat="45.98173" lon="6.57636">
        <ele>2471.69</ele>
        <time>2011-03-05T10:44:22Z</time>
      </trkpt>
      <trkpt lat="45.98173" lon="6.57636">
        <ele>2471.69</ele>
        <time>2011-03-05T10:44:49Z</time>
      </trkpt>
      <trkpt lat="45.98172" lon="6.57636">
        <ele>2472.17</ele>
        <time>2011-03-05T10:45:20Z</time>
      </trkpt>
      <trkpt lat="45.98172" lon="6.57637">
        <ele>2472.17</ele>
        <time>2011-03-05T10:45:54Z</time>
      </trkpt>
      <trkpt lat="45.98172" lon="6.57637">
        <ele>2472.65</ele>
        <time>2011-03-05T10:46:29Z</time>
      </trkpt>
      <trkpt lat="45.98172" lon="6.57636">
        <ele>2472.65</ele>
        <time>2011-03-05T10:47:07Z</time>
      </trkpt>
      <trkpt lat="45.98172" lon="6.57636">
        <ele>2472.65</ele>
        <time>2011-03-05T10:47:46Z</time>
      </trkpt>
      <trkpt lat="45.98172" lon="6.57636">
        <ele>2473.13</ele>
        <time>2011-03-05T10:48:25Z</time>
      </trkpt>
      <trkpt lat="45.98172" lon="6.57636">
        <ele>2473.13</ele>
        <time>2011-03-05T10:48:54Z</time>
      </trkpt>
      <trkpt lat="45.98172" lon="6.57636">
        <ele>2472.65</ele>
        <time>2011-03-05T10:49:21Z</time>
      </trkpt>
      <trkpt lat="45.98172" lon="6.57636">
        <ele>2472.65</ele>
        <time>2011-03-05T10:49:52Z</time>
      </trkpt>
      <trkpt lat="45.98172" lon="6.57636">
        <ele>2472.65</ele>
        <time>2011-03-05T10:50:17Z</time>
      </trkpt>
      <trkpt lat="45.98172" lon="6.57635">
        <ele>2472.65</ele>
        <time>2011-03-05T10:50:37Z</time>
      </trkpt>
      <trkpt lat="45.98172" lon="6.57635">
        <ele>2472.65</ele>
        <time>2011-03-05T10:50:52Z</time>
      </trkpt>
      <trkpt lat="45.98173" lon="6.57636">
        <ele>2472.65</ele>
        <time>2011-03-05T10:51:00Z</time>
      </trkpt>
      <trkpt lat="45.98175" lon="6.57638">
        <ele>2472.65</ele>
        <time>2011-03-05T10:51:09Z</time>
      </trkpt>
      <trkpt lat="45.98174" lon="6.57638">
        <ele>2472.65</ele>
        <time>2011-03-05T10:51:24Z</time>
      </trkpt>
      <trkpt lat="45.98175" lon="6.57638">
        <ele>2472.17</ele>
        <time>2011-03-05T10:51:38Z</time>
      </trkpt>
      <trkpt lat="45.98175" lon="6.57638">
        <ele>2472.17</ele>
        <time>2011-03-05T10:51:49Z</time>
      </trkpt>
      <trkpt lat="45.98175" lon="6.57638">
        <ele>2472.17</ele>
        <time>2011-03-05T10:51:59Z</time>
      </trkpt>
      <trkpt lat="45.98175" lon="6.57638">
        <ele>2472.17</ele>
        <time>2011-03-05T10:52:20Z</time>
      </trkpt>
      <trkpt lat="45.98175" lon="6.57638">
        <ele>2472.65</ele>
        <time>2011-03-05T10:52:33Z</time>
      </trkpt>
      <trkpt lat="45.98175" lon="6.57638">
        <ele>2472.65</ele>
        <time>2011-03-05T10:52:35Z</time>
      </trkpt>
      <trkpt lat="45.98174" lon="6.57623">
        <ele>2472.65</ele>
        <time>2011-03-05T10:52:41Z</time>
      </trkpt>
      <trkpt lat="45.98178" lon="6.57599">
        <ele>2467.84</ele>
        <time>2011-03-05T10:52:52Z</time>
      </trkpt>
      <trkpt lat="45.9818" lon="6.57584">
        <ele>2463.04</ele>
        <time>2011-03-05T10:53:01Z</time>
      </trkpt>
      <trkpt lat="45.98191" lon="6.57579">
        <ele>2457.75</ele>
        <time>2011-03-05T10:53:10Z</time>
      </trkpt>
      <trkpt lat="45.98195" lon="6.57582">
        <ele>2456.79</ele>
        <time>2011-03-05T10:53:13Z</time>
      </trkpt>
      <trkpt lat="45.98201" lon="6.57585">
        <ele>2453.9</ele>
        <time>2011-03-05T10:53:20Z</time>
      </trkpt>
      <trkpt lat="45.98207" lon="6.57589">
        <ele>2450.06</ele>
        <time>2011-03-05T10:53:25Z</time>
      </trkpt>
      <trkpt lat="45.98223" lon="6.57571">
        <ele>2441.89</ele>
        <time>2011-03-05T10:53:36Z</time>
      </trkpt>
      <trkpt lat="45.98233" lon="6.57559">
        <ele>2437.08</ele>
        <time>2011-03-05T10:53:45Z</time>
      </trkpt>
      <trkpt lat="45.98235" lon="6.57558">
        <ele>2434.68</ele>
        <time>2011-03-05T10:53:57Z</time>
      </trkpt>
      <trkpt lat="45.98244" lon="6.57554">
        <ele>2430.35</ele>
        <time>2011-03-05T10:54:06Z</time>
      </trkpt>
      <trkpt lat="45.98254" lon="6.57546">
        <ele>2426.5</ele>
        <time>2011-03-05T10:54:16Z</time>
      </trkpt>
      <trkpt lat="45.98267" lon="6.57543">
        <ele>2421.7</ele>
        <time>2011-03-05T10:54:23Z</time>
      </trkpt>
      <trkpt lat="45.9828" lon="6.57532">
        <ele>2414.97</ele>
        <time>2011-03-05T10:54:33Z</time>
      </trkpt>
      <trkpt lat="45.98281" lon="6.57534">
        <ele>2414.01</ele>
        <time>2011-03-05T10:54:34Z</time>
      </trkpt>
      <trkpt lat="45.98285" lon="6.57534">
        <ele>2412.57</ele>
        <time>2011-03-05T10:54:39Z</time>
      </trkpt>
      <trkpt lat="45.98287" lon="6.57525">
        <ele>2410.16</ele>
        <time>2011-03-05T10:54:44Z</time>
      </trkpt>
      <trkpt lat="45.98294" lon="6.57523">
        <ele>2405.36</ele>
        <time>2011-03-05T10:54:53Z</time>
      </trkpt>
      <trkpt lat="45.98297" lon="6.57523">
        <ele>2402.95</ele>
        <time>2011-03-05T10:54:57Z</time>
      </trkpt>
      <trkpt lat="45.98305" lon="6.57528">
        <ele>2399.11</ele>
        <time>2011-03-05T10:55:05Z</time>
      </trkpt>
      <trkpt lat="45.98304" lon="6.57523">
        <ele>2397.18</ele>
        <time>2011-03-05T10:55:07Z</time>
      </trkpt>
      <trkpt lat="45.98301" lon="6.575">
        <ele>2391.9</ele>
        <time>2011-03-05T10:55:19Z</time>
      </trkpt>
      <trkpt lat="45.98301" lon="6.575">
        <ele>2391.9</ele>
        <time>2011-03-05T10:55:26Z</time>
      </trkpt>
      <trkpt lat="45.98302" lon="6.57464">
        <ele>2389.01</ele>
        <time>2011-03-05T10:55:35Z</time>
      </trkpt>
      <trkpt lat="45.98322" lon="6.57422">
        <ele>2383.25</ele>
        <time>2011-03-05T10:55:44Z</time>
      </trkpt>
      <trkpt lat="45.98325" lon="6.57375">
        <ele>2377</ele>
        <time>2011-03-05T10:55:52Z</time>
      </trkpt>
      <trkpt lat="45.98326" lon="6.57374">
        <ele>2376.04</ele>
        <time>2011-03-05T10:55:58Z</time>
      </trkpt>
      <trkpt lat="45.98318" lon="6.57368">
        <ele>2370.75</ele>
        <time>2011-03-05T10:56:07Z</time>
      </trkpt>
      <trkpt lat="45.98316" lon="6.57364">
        <ele>2370.27</ele>
        <time>2011-03-05T10:56:08Z</time>
      </trkpt>
      <trkpt lat="45.98317" lon="6.57356">
        <ele>2368.35</ele>
        <time>2011-03-05T10:56:18Z</time>
      </trkpt>
      <trkpt lat="45.98317" lon="6.57354">
        <ele>2368.35</ele>
        <time>2011-03-05T10:56:21Z</time>
      </trkpt>
      <trkpt lat="45.98317" lon="6.57331">
        <ele>2362.1</ele>
        <time>2011-03-05T10:56:29Z</time>
      </trkpt>
      <trkpt lat="45.98316" lon="6.57329">
        <ele>2361.14</ele>
        <time>2011-03-05T10:56:31Z</time>
      </trkpt>
      <trkpt lat="45.9831" lon="6.57315">
        <ele>2356.33</ele>
        <time>2011-03-05T10:56:39Z</time>
      </trkpt>
      <trkpt lat="45.98307" lon="6.57296">
        <ele>2350.56</ele>
        <time>2011-03-05T10:56:48Z</time>
      </trkpt>
      <trkpt lat="45.98307" lon="6.57296">
        <ele>2350.56</ele>
        <time>2011-03-05T10:57:04Z</time>
      </trkpt>
      <trkpt lat="45.98307" lon="6.57265">
        <ele>2345.75</ele>
        <time>2011-03-05T10:57:14Z</time>
      </trkpt>
      <trkpt lat="45.98313" lon="6.57225">
        <ele>2339.02</ele>
        <time>2011-03-05T10:57:23Z</time>
      </trkpt>
      <trkpt lat="45.98313" lon="6.57224">
        <ele>2337.1</ele>
        <time>2011-03-05T10:57:26Z</time>
      </trkpt>
      <trkpt lat="45.98319" lon="6.57225">
        <ele>2332.3</ele>
        <time>2011-03-05T10:57:33Z</time>
      </trkpt>
      <trkpt lat="45.98321" lon="6.57224">
        <ele>2330.85</ele>
        <time>2011-03-05T10:57:35Z</time>
      </trkpt>
      <trkpt lat="45.98343" lon="6.57208">
        <ele>2324.61</ele>
        <time>2011-03-05T10:57:42Z</time>
      </trkpt>
      <trkpt lat="45.98349" lon="6.57205">
        <ele>2323.64</ele>
        <time>2011-03-05T10:57:43Z</time>
      </trkpt>
      <trkpt lat="45.98354" lon="6.57204">
        <ele>2321.72</ele>
        <time>2011-03-05T10:57:44Z</time>
      </trkpt>
      <trkpt lat="45.98367" lon="6.57203">
        <ele>2318.36</ele>
        <time>2011-03-05T10:57:46Z</time>
      </trkpt>
      <trkpt lat="45.98387" lon="6.57192">
        <ele>2313.07</ele>
        <time>2011-03-05T10:57:49Z</time>
      </trkpt>
      <trkpt lat="45.98393" lon="6.57183">
        <ele>2310.67</ele>
        <time>2011-03-05T10:57:50Z</time>
      </trkpt>
      <trkpt lat="45.98399" lon="6.57173">
        <ele>2307.3</ele>
        <time>2011-03-05T10:57:51Z</time>
      </trkpt>
      <trkpt lat="45.98415" lon="6.57153">
        <ele>2302.01</ele>
        <time>2011-03-05T10:57:53Z</time>
      </trkpt>
      <trkpt lat="45.98487" lon="6.57081">
        <ele>2282.31</ele>
        <time>2011-03-05T10:58:02Z</time>
      </trkpt>
      <trkpt lat="45.98529" lon="6.57041">
        <ele>2273.66</ele>
        <time>2011-03-05T10:58:10Z</time>
      </trkpt>
      <trkpt lat="45.98551" lon="6.57019">
        <ele>2269.81</ele>
        <time>2011-03-05T10:58:18Z</time>
      </trkpt>
      <trkpt lat="45.98572" lon="6.57004">
        <ele>2265.96</ele>
        <time>2011-03-05T10:58:27Z</time>
      </trkpt>
      <trkpt lat="45.98604" lon="6.56994">
        <ele>2262.6</ele>
        <time>2011-03-05T10:58:38Z</time>
      </trkpt>
      <trkpt lat="45.98649" lon="6.56971">
        <ele>2259.24</ele>
        <time>2011-03-05T10:58:52Z</time>
      </trkpt>
      <trkpt lat="45.98693" lon="6.56948">
        <ele>2254.43</ele>
        <time>2011-03-05T10:59:01Z</time>
      </trkpt>
      <trkpt lat="45.98702" lon="6.56944">
        <ele>2253.47</ele>
        <time>2011-03-05T10:59:07Z</time>
      </trkpt>
      <trkpt lat="45.98705" lon="6.5694">
        <ele>2253.47</ele>
        <time>2011-03-05T10:59:22Z</time>
      </trkpt>
      <trkpt lat="45.98708" lon="6.56941">
        <ele>2253.47</ele>
        <time>2011-03-05T10:59:23Z</time>
      </trkpt>
      <trkpt lat="45.98711" lon="6.56942">
        <ele>2252.99</ele>
        <time>2011-03-05T10:59:24Z</time>
      </trkpt>
      <trkpt lat="45.98716" lon="6.56944">
        <ele>2252.03</ele>
        <time>2011-03-05T10:59:25Z</time>
      </trkpt>
      <trkpt lat="45.98728" lon="6.56948">
        <ele>2250.1</ele>
        <time>2011-03-05T10:59:27Z</time>
      </trkpt>
      <trkpt lat="45.98734" lon="6.56951">
        <ele>2248.66</ele>
        <time>2011-03-05T10:59:28Z</time>
      </trkpt>
      <trkpt lat="45.98741" lon="6.56954">
        <ele>2247.22</ele>
        <time>2011-03-05T10:59:29Z</time>
      </trkpt>
      <trkpt lat="45.98749" lon="6.56955">
        <ele>2245.3</ele>
        <time>2011-03-05T10:59:30Z</time>
      </trkpt>
      <trkpt lat="45.98757" lon="6.56957">
        <ele>2243.37</ele>
        <time>2011-03-05T10:59:31Z</time>
      </trkpt>
      <trkpt lat="45.98765" lon="6.5696">
        <ele>2241.45</ele>
        <time>2011-03-05T10:59:32Z</time>
      </trkpt>
      <trkpt lat="45.98775" lon="6.56962">
        <ele>2239.53</ele>
        <time>2011-03-05T10:59:33Z</time>
      </trkpt>
      <trkpt lat="45.98787" lon="6.56964">
        <ele>2237.13</ele>
        <time>2011-03-05T10:59:34Z</time>
      </trkpt>
      <trkpt lat="45.98798" lon="6.56968">
        <ele>2234.72</ele>
        <time>2011-03-05T10:59:35Z</time>
      </trkpt>
      <trkpt lat="45.98808" lon="6.56974">
        <ele>2232.32</ele>
        <time>2011-03-05T10:59:36Z</time>
      </trkpt>
      <trkpt lat="45.98819" lon="6.5698">
        <ele>2230.4</ele>
        <time>2011-03-05T10:59:37Z</time>
      </trkpt>
      <trkpt lat="45.98828" lon="6.56985">
        <ele>2228.47</ele>
        <time>2011-03-05T10:59:38Z</time>
      </trkpt>
      <trkpt lat="45.98888" lon="6.57006">
        <ele>2219.34</ele>
        <time>2011-03-05T10:59:46Z</time>
      </trkpt>
      <trkpt lat="45.98893" lon="6.57008">
        <ele>2218.38</ele>
        <time>2011-03-05T10:59:47Z</time>
      </trkpt>
      <trkpt lat="45.98919" lon="6.57012">
        <ele>2216.46</ele>
        <time>2011-03-05T10:59:55Z</time>
      </trkpt>
      <trkpt lat="45.9892" lon="6.57012">
        <ele>2216.46</ele>
        <time>2011-03-05T10:59:56Z</time>
      </trkpt>
      <trkpt lat="45.98923" lon="6.57011">
        <ele>2216.46</ele>
        <time>2011-03-05T10:59:57Z</time>
      </trkpt>
      <trkpt lat="45.98925" lon="6.57011">
        <ele>2216.46</ele>
        <time>2011-03-05T10:59:58Z</time>
      </trkpt>
      <trkpt lat="45.98926" lon="6.57012">
        <ele>2216.46</ele>
        <time>2011-03-05T10:59:59Z</time>
      </trkpt>
      <trkpt lat="45.98928" lon="6.57012">
        <ele>2215.98</ele>
        <time>2011-03-05T11:00:00Z</time>
      </trkpt>
      <trkpt lat="45.9893" lon="6.57012">
        <ele>2215.98</ele>
        <time>2011-03-05T11:00:01Z</time>
      </trkpt>
      <trkpt lat="45.98931" lon="6.57012">
        <ele>2215.98</ele>
        <time>2011-03-05T11:00:03Z</time>
      </trkpt>
      <trkpt lat="45.98936" lon="6.57017">
        <ele>2216.94</ele>
        <time>2011-03-05T11:00:12Z</time>
      </trkpt>
      <trkpt lat="45.98945" lon="6.57021">
        <ele>2218.38</ele>
        <time>2011-03-05T11:00:20Z</time>
      </trkpt>
      <trkpt lat="45.98961" lon="6.57023">
        <ele>2218.86</ele>
        <time>2011-03-05T11:00:32Z</time>
      </trkpt>
      <trkpt lat="45.98962" lon="6.57024">
        <ele>2218.86</ele>
        <time>2011-03-05T11:00:38Z</time>
      </trkpt>
      <trkpt lat="45.98963" lon="6.57025">
        <ele>2218.38</ele>
        <time>2011-03-05T11:00:48Z</time>
      </trkpt>
      <trkpt lat="45.98966" lon="6.57026">
        <ele>2218.38</ele>
        <time>2011-03-05T11:00:49Z</time>
      </trkpt>
      <trkpt lat="45.98969" lon="6.57027">
        <ele>2217.9</ele>
        <time>2011-03-05T11:00:50Z</time>
      </trkpt>
      <trkpt lat="45.98973" lon="6.57028">
        <ele>2217.9</ele>
        <time>2011-03-05T11:00:51Z</time>
      </trkpt>
      <trkpt lat="45.98976" lon="6.57031">
        <ele>2217.42</ele>
        <time>2011-03-05T11:00:52Z</time>
      </trkpt>
      <trkpt lat="45.98981" lon="6.57034">
        <ele>2216.94</ele>
        <time>2011-03-05T11:00:53Z</time>
      </trkpt>
      <trkpt lat="45.98986" lon="6.57036">
        <ele>2215.98</ele>
        <time>2011-03-05T11:00:54Z</time>
      </trkpt>
      <trkpt lat="45.99038" lon="6.57062">
        <ele>2209.73</ele>
        <time>2011-03-05T11:01:03Z</time>
      </trkpt>
      <trkpt lat="45.99054" lon="6.57072">
        <ele>2207.32</ele>
        <time>2011-03-05T11:01:06Z</time>
      </trkpt>
      <trkpt lat="45.99059" lon="6.57074">
        <ele>2206.84</ele>
        <time>2011-03-05T11:01:07Z</time>
      </trkpt>
      <trkpt lat="45.99064" lon="6.57075">
        <ele>2205.88</ele>
        <time>2011-03-05T11:01:08Z</time>
      </trkpt>
      <trkpt lat="45.9907" lon="6.57076">
        <ele>2204.92</ele>
        <time>2011-03-05T11:01:09Z</time>
      </trkpt>
      <trkpt lat="45.99074" lon="6.57079">
        <ele>2204.44</ele>
        <time>2011-03-05T11:01:10Z</time>
      </trkpt>
      <trkpt lat="45.99078" lon="6.57082">
        <ele>2203.96</ele>
        <time>2011-03-05T11:01:11Z</time>
      </trkpt>
      <trkpt lat="45.9908" lon="6.57085">
        <ele>2203.48</ele>
        <time>2011-03-05T11:01:12Z</time>
      </trkpt>
      <trkpt lat="45.99084" lon="6.57085">
        <ele>2203</ele>
        <time>2011-03-05T11:01:13Z</time>
      </trkpt>
      <trkpt lat="45.99089" lon="6.57078">
        <ele>2201.56</ele>
        <time>2011-03-05T11:01:15Z</time>
      </trkpt>
      <trkpt lat="45.99092" lon="6.57077">
        <ele>2200.59</ele>
        <time>2011-03-05T11:01:16Z</time>
      </trkpt>
      <trkpt lat="45.99094" lon="6.57079">
        <ele>2200.11</ele>
        <time>2011-03-05T11:01:17Z</time>
      </trkpt>
      <trkpt lat="45.99095" lon="6.57082">
        <ele>2199.15</ele>
        <time>2011-03-05T11:01:18Z</time>
      </trkpt>
      <trkpt lat="45.99096" lon="6.57083">
        <ele>2198.67</ele>
        <time>2011-03-05T11:01:19Z</time>
      </trkpt>
      <trkpt lat="45.99096" lon="6.57084">
        <ele>2198.19</ele>
        <time>2011-03-05T11:01:30Z</time>
      </trkpt>
      <trkpt lat="45.99096" lon="6.57084">
        <ele>2198.19</ele>
        <time>2011-03-05T11:01:49Z</time>
      </trkpt>
      <trkpt lat="45.99096" lon="6.57084">
        <ele>2198.19</ele>
        <time>2011-03-05T11:01:55Z</time>
      </trkpt>
      <trkpt lat="45.99096" lon="6.57085">
        <ele>2198.19</ele>
        <time>2011-03-05T11:01:59Z</time>
      </trkpt>
      <trkpt lat="45.99099" lon="6.57085">
        <ele>2197.71</ele>
        <time>2011-03-05T11:02:00Z</time>
      </trkpt>
      <trkpt lat="45.991" lon="6.57083">
        <ele>2196.75</ele>
        <time>2011-03-05T11:02:01Z</time>
      </trkpt>
      <trkpt lat="45.99102" lon="6.57079">
        <ele>2196.27</ele>
        <time>2011-03-05T11:02:02Z</time>
      </trkpt>
      <trkpt lat="45.99107" lon="6.57076">
        <ele>2194.35</ele>
        <time>2011-03-05T11:02:04Z</time>
      </trkpt>
      <trkpt lat="45.99114" lon="6.57065">
        <ele>2189.54</ele>
        <time>2011-03-05T11:02:09Z</time>
      </trkpt>
      <trkpt lat="45.99127" lon="6.57059">
        <ele>2183.29</ele>
        <time>2011-03-05T11:02:14Z</time>
      </trkpt>
      <trkpt lat="45.9913" lon="6.57049">
        <ele>2180.89</ele>
        <time>2011-03-05T11:02:16Z</time>
      </trkpt>
      <trkpt lat="45.99138" lon="6.57041">
        <ele>2177.04</ele>
        <time>2011-03-05T11:02:19Z</time>
      </trkpt>
      <trkpt lat="45.99141" lon="6.57038">
        <ele>2175.6</ele>
        <time>2011-03-05T11:02:20Z</time>
      </trkpt>
      <trkpt lat="45.99144" lon="6.57034">
        <ele>2173.68</ele>
        <time>2011-03-05T11:02:21Z</time>
      </trkpt>
      <trkpt lat="45.99144" lon="6.5703">
        <ele>2172.24</ele>
        <time>2011-03-05T11:02:22Z</time>
      </trkpt>
      <trkpt lat="45.99144" lon="6.57027">
        <ele>2170.79</ele>
        <time>2011-03-05T11:02:23Z</time>
      </trkpt>
      <trkpt lat="45.99143" lon="6.57024">
        <ele>2169.83</ele>
        <time>2011-03-05T11:02:24Z</time>
      </trkpt>
      <trkpt lat="45.99143" lon="6.57021">
        <ele>2167.91</ele>
        <time>2011-03-05T11:02:26Z</time>
      </trkpt>
      <trkpt lat="45.99146" lon="6.5702">
        <ele>2166.47</ele>
        <time>2011-03-05T11:02:27Z</time>
      </trkpt>
      <trkpt lat="45.99149" lon="6.57021">
        <ele>2165.51</ele>
        <time>2011-03-05T11:02:28Z</time>
      </trkpt>
      <trkpt lat="45.99152" lon="6.57023">
        <ele>2164.55</ele>
        <time>2011-03-05T11:02:29Z</time>
      </trkpt>
      <trkpt lat="45.99153" lon="6.57025">
        <ele>2164.55</ele>
        <time>2011-03-05T11:02:30Z</time>
      </trkpt>
      <trkpt lat="45.99155" lon="6.57028">
        <ele>2161.66</ele>
        <time>2011-03-05T11:02:37Z</time>
      </trkpt>
      <trkpt lat="45.99157" lon="6.57028">
        <ele>2160.7</ele>
        <time>2011-03-05T11:02:38Z</time>
      </trkpt>
      <trkpt lat="45.99159" lon="6.57026">
        <ele>2159.74</ele>
        <time>2011-03-05T11:02:39Z</time>
      </trkpt>
      <trkpt lat="45.99162" lon="6.57024">
        <ele>2158.78</ele>
        <time>2011-03-05T11:02:40Z</time>
      </trkpt>
      <trkpt lat="45.99165" lon="6.57022">
        <ele>2157.82</ele>
        <time>2011-03-05T11:02:41Z</time>
      </trkpt>
      <trkpt lat="45.99173" lon="6.57017">
        <ele>2153.97</ele>
        <time>2011-03-05T11:02:43Z</time>
      </trkpt>
      <trkpt lat="45.99178" lon="6.57012">
        <ele>2151.09</ele>
        <time>2011-03-05T11:02:44Z</time>
      </trkpt>
      <trkpt lat="45.99184" lon="6.57007">
        <ele>2148.68</ele>
        <time>2011-03-05T11:02:45Z</time>
      </trkpt>
      <trkpt lat="45.99189" lon="6.57004">
        <ele>2145.8</ele>
        <time>2011-03-05T11:02:46Z</time>
      </trkpt>
      <trkpt lat="45.99194" lon="6.57004">
        <ele>2142.92</ele>
        <time>2011-03-05T11:02:47Z</time>
      </trkpt>
      <trkpt lat="45.99198" lon="6.57007">
        <ele>2140.51</ele>
        <time>2011-03-05T11:02:48Z</time>
      </trkpt>
      <trkpt lat="45.99205" lon="6.57014">
        <ele>2133.78</ele>
        <time>2011-03-05T11:02:53Z</time>
      </trkpt>
      <trkpt lat="45.99206" lon="6.57014">
        <ele>2133.3</ele>
        <time>2011-03-05T11:02:55Z</time>
      </trkpt>
      <trkpt lat="45.99209" lon="6.56996">
        <ele>2127.05</ele>
        <time>2011-03-05T11:03:00Z</time>
      </trkpt>
      <trkpt lat="45.99212" lon="6.56991">
        <ele>2125.61</ele>
        <time>2011-03-05T11:03:01Z</time>
      </trkpt>
      <trkpt lat="45.99216" lon="6.56989">
        <ele>2124.17</ele>
        <time>2011-03-05T11:03:02Z</time>
      </trkpt>
      <trkpt lat="45.9922" lon="6.5699">
        <ele>2122.25</ele>
        <time>2011-03-05T11:03:03Z</time>
      </trkpt>
      <trkpt lat="45.99223" lon="6.56992">
        <ele>2121.29</ele>
        <time>2011-03-05T11:03:04Z</time>
      </trkpt>
      <trkpt lat="45.99228" lon="6.56993">
        <ele>2119.84</ele>
        <time>2011-03-05T11:03:05Z</time>
      </trkpt>
      <trkpt lat="45.99232" lon="6.56991">
        <ele>2117.92</ele>
        <time>2011-03-05T11:03:06Z</time>
      </trkpt>
      <trkpt lat="45.99235" lon="6.56986">
        <ele>2116</ele>
        <time>2011-03-05T11:03:07Z</time>
      </trkpt>
      <trkpt lat="45.99235" lon="6.56979">
        <ele>2114.08</ele>
        <time>2011-03-05T11:03:08Z</time>
      </trkpt>
      <trkpt lat="45.99234" lon="6.56975">
        <ele>2112.15</ele>
        <time>2011-03-05T11:03:09Z</time>
      </trkpt>
      <trkpt lat="45.99232" lon="6.56974">
        <ele>2108.79</ele>
        <time>2011-03-05T11:03:18Z</time>
      </trkpt>
      <trkpt lat="45.99232" lon="6.56974">
        <ele>2108.79</ele>
        <time>2011-03-05T11:03:33Z</time>
      </trkpt>
      <trkpt lat="45.99232" lon="6.56974">
        <ele>2108.79</ele>
        <time>2011-03-05T11:03:53Z</time>
      </trkpt>
      <trkpt lat="45.99231" lon="6.56972">
        <ele>2109.27</ele>
        <time>2011-03-05T11:04:08Z</time>
      </trkpt>
      <trkpt lat="45.99231" lon="6.5697">
        <ele>2109.27</ele>
        <time>2011-03-05T11:04:09Z</time>
      </trkpt>
      <trkpt lat="45.99215" lon="6.56941">
        <ele>2105.42</ele>
        <time>2011-03-05T11:04:22Z</time>
      </trkpt>
      <trkpt lat="45.99214" lon="6.56941">
        <ele>2105.42</ele>
        <time>2011-03-05T11:04:29Z</time>
      </trkpt>
      <trkpt lat="45.9922" lon="6.56929">
        <ele>2102.54</ele>
        <time>2011-03-05T11:04:34Z</time>
      </trkpt>
      <trkpt lat="45.99228" lon="6.56914">
        <ele>2098.21</ele>
        <time>2011-03-05T11:04:38Z</time>
      </trkpt>
      <trkpt lat="45.99234" lon="6.56899">
        <ele>2091.49</ele>
        <time>2011-03-05T11:04:42Z</time>
      </trkpt>
      <trkpt lat="45.99243" lon="6.56885">
        <ele>2084.28</ele>
        <time>2011-03-05T11:04:46Z</time>
      </trkpt>
      <trkpt lat="45.99247" lon="6.56865">
        <ele>2077.07</ele>
        <time>2011-03-05T11:04:50Z</time>
      </trkpt>
      <trkpt lat="45.99251" lon="6.5686">
        <ele>2073.7</ele>
        <time>2011-03-05T11:04:52Z</time>
      </trkpt>
      <trkpt lat="45.99256" lon="6.5685">
        <ele>2064.57</ele>
        <time>2011-03-05T11:05:02Z</time>
      </trkpt>
      <trkpt lat="45.99258" lon="6.5685">
        <ele>2064.09</ele>
        <time>2011-03-05T11:05:04Z</time>
      </trkpt>
      <trkpt lat="45.99268" lon="6.56832">
        <ele>2058.8</ele>
        <time>2011-03-05T11:05:09Z</time>
      </trkpt>
      <trkpt lat="45.99271" lon="6.56825">
        <ele>2048.23</ele>
        <time>2011-03-05T11:05:18Z</time>
      </trkpt>
      <trkpt lat="45.9927" lon="6.56825">
        <ele>2047.26</ele>
        <time>2011-03-05T11:05:32Z</time>
      </trkpt>
      <trkpt lat="45.9927" lon="6.56825">
        <ele>2047.26</ele>
        <time>2011-03-05T11:05:33Z</time>
      </trkpt>
      <trkpt lat="45.99264" lon="6.56816">
        <ele>2047.75</ele>
        <time>2011-03-05T11:05:37Z</time>
      </trkpt>
      <trkpt lat="45.99257" lon="6.56775">
        <ele>2043.42</ele>
        <time>2011-03-05T11:05:48Z</time>
      </trkpt>
      <trkpt lat="45.9926" lon="6.56723">
        <ele>2036.21</ele>
        <time>2011-03-05T11:05:58Z</time>
      </trkpt>
      <trkpt lat="45.99252" lon="6.56705">
        <ele>2033.81</ele>
        <time>2011-03-05T11:06:01Z</time>
      </trkpt>
      <trkpt lat="45.99238" lon="6.56674">
        <ele>2026.12</ele>
        <time>2011-03-05T11:06:09Z</time>
      </trkpt>
      <trkpt lat="45.99237" lon="6.5665">
        <ele>2018.43</ele>
        <time>2011-03-05T11:06:15Z</time>
      </trkpt>
      <trkpt lat="45.99241" lon="6.56635">
        <ele>2012.18</ele>
        <time>2011-03-05T11:06:20Z</time>
      </trkpt>
      <trkpt lat="45.99248" lon="6.56616">
        <ele>2005.93</ele>
        <time>2011-03-05T11:06:24Z</time>
      </trkpt>
      <trkpt lat="45.99245" lon="6.56592">
        <ele>2002.56</ele>
        <time>2011-03-05T11:06:27Z</time>
      </trkpt>
      <trkpt lat="45.99241" lon="6.56577">
        <ele>2000.16</ele>
        <time>2011-03-05T11:06:29Z</time>
      </trkpt>
      <trkpt lat="45.99257" lon="6.56555">
        <ele>1993.43</ele>
        <time>2011-03-05T11:06:34Z</time>
      </trkpt>
      <trkpt lat="45.99257" lon="6.56542">
        <ele>1990.55</ele>
        <time>2011-03-05T11:06:36Z</time>
      </trkpt>
      <trkpt lat="45.99259" lon="6.5651">
        <ele>1982.86</ele>
        <time>2011-03-05T11:06:42Z</time>
      </trkpt>
      <trkpt lat="45.99261" lon="6.56508">
        <ele>1978.53</ele>
        <time>2011-03-05T11:06:49Z</time>
      </trkpt>
      <trkpt lat="45.99261" lon="6.56508">
        <ele>1978.53</ele>
        <time>2011-03-05T11:07:06Z</time>
      </trkpt>
      <trkpt lat="45.99261" lon="6.56508">
        <ele>1978.53</ele>
        <time>2011-03-05T11:07:14Z</time>
      </trkpt>
      <trkpt lat="45.99263" lon="6.56499">
        <ele>1976.61</ele>
        <time>2011-03-05T11:07:20Z</time>
      </trkpt>
      <trkpt lat="45.99263" lon="6.56499">
        <ele>1976.61</ele>
        <time>2011-03-05T11:07:35Z</time>
      </trkpt>
      <trkpt lat="45.99263" lon="6.56499">
        <ele>1976.61</ele>
        <time>2011-03-05T11:07:50Z</time>
      </trkpt>
      <trkpt lat="45.99263" lon="6.56499">
        <ele>1976.61</ele>
        <time>2011-03-05T11:08:03Z</time>
      </trkpt>
      <trkpt lat="45.99265" lon="6.56484">
        <ele>1973.24</ele>
        <time>2011-03-05T11:08:09Z</time>
      </trkpt>
      <trkpt lat="45.99262" lon="6.56472">
        <ele>1970.84</ele>
        <time>2011-03-05T11:08:13Z</time>
      </trkpt>
      <trkpt lat="45.99255" lon="6.56454">
        <ele>1966.99</ele>
        <time>2011-03-05T11:08:19Z</time>
      </trkpt>
      <trkpt lat="45.99258" lon="6.56435">
        <ele>1962.67</ele>
        <time>2011-03-05T11:08:23Z</time>
      </trkpt>
      <trkpt lat="45.99259" lon="6.56418">
        <ele>1958.34</ele>
        <time>2011-03-05T11:08:26Z</time>
      </trkpt>
      <trkpt lat="45.99258" lon="6.56401">
        <ele>1953.54</ele>
        <time>2011-03-05T11:08:29Z</time>
      </trkpt>
      <trkpt lat="45.9926" lon="6.56373">
        <ele>1946.33</ele>
        <time>2011-03-05T11:08:34Z</time>
      </trkpt>
      <trkpt lat="45.99257" lon="6.56368">
        <ele>1943.92</ele>
        <time>2011-03-05T11:08:36Z</time>
      </trkpt>
      <trkpt lat="45.99252" lon="6.56347">
        <ele>1937.67</ele>
        <time>2011-03-05T11:08:41Z</time>
      </trkpt>
      <trkpt lat="45.9924" lon="6.56338">
        <ele>1932.39</ele>
        <time>2011-03-05T11:08:45Z</time>
      </trkpt>
      <trkpt lat="45.99242" lon="6.56318">
        <ele>1927.1</ele>
        <time>2011-03-05T11:08:48Z</time>
      </trkpt>
      <trkpt lat="45.99249" lon="6.56311">
        <ele>1920.85</ele>
        <time>2011-03-05T11:08:53Z</time>
      </trkpt>
      <trkpt lat="45.99249" lon="6.56311">
        <ele>1920.37</ele>
        <time>2011-03-05T11:09:08Z</time>
      </trkpt>
      <trkpt lat="45.99249" lon="6.5631">
        <ele>1919.89</ele>
        <time>2011-03-05T11:09:16Z</time>
      </trkpt>
      <trkpt lat="45.99246" lon="6.56303">
        <ele>1917.49</ele>
        <time>2011-03-05T11:09:21Z</time>
      </trkpt>
      <trkpt lat="45.9924" lon="6.56301">
        <ele>1916.04</ele>
        <time>2011-03-05T11:09:23Z</time>
      </trkpt>
      <trkpt lat="45.99208" lon="6.56297">
        <ele>1911.72</ele>
        <time>2011-03-05T11:09:29Z</time>
      </trkpt>
      <trkpt lat="45.99185" lon="6.56289">
        <ele>1909.32</ele>
        <time>2011-03-05T11:09:33Z</time>
      </trkpt>
      <trkpt lat="45.99159" lon="6.56282">
        <ele>1906.43</ele>
        <time>2011-03-05T11:09:38Z</time>
      </trkpt>
      <trkpt lat="45.99136" lon="6.56275">
        <ele>1903.55</ele>
        <time>2011-03-05T11:09:43Z</time>
      </trkpt>
      <trkpt lat="45.99117" lon="6.56268">
        <ele>1899.22</ele>
        <time>2011-03-05T11:09:49Z</time>
      </trkpt>
      <trkpt lat="45.99118" lon="6.56269">
        <ele>1898.26</ele>
        <time>2011-03-05T11:10:05Z</time>
      </trkpt>
      <trkpt lat="45.99117" lon="6.56269">
        <ele>1898.26</ele>
        <time>2011-03-05T11:10:21Z</time>
      </trkpt>
      <trkpt lat="45.99116" lon="6.56249">
        <ele>1893.93</ele>
        <time>2011-03-05T11:10:28Z</time>
      </trkpt>
      <trkpt lat="45.99115" lon="6.56229">
        <ele>1888.65</ele>
        <time>2011-03-05T11:10:32Z</time>
      </trkpt>
      <trkpt lat="45.99123" lon="6.56204">
        <ele>1881.92</ele>
        <time>2011-03-05T11:10:36Z</time>
      </trkpt>
      <trkpt lat="45.9912" lon="6.56184">
        <ele>1875.19</ele>
        <time>2011-03-05T11:10:40Z</time>
      </trkpt>
      <trkpt lat="45.99134" lon="6.56166">
        <ele>1867.02</ele>
        <time>2011-03-05T11:10:45Z</time>
      </trkpt>
      <trkpt lat="45.99124" lon="6.56146">
        <ele>1861.73</ele>
        <time>2011-03-05T11:10:48Z</time>
      </trkpt>
      <trkpt lat="45.99118" lon="6.56145">
        <ele>1858.85</ele>
        <time>2011-03-05T11:10:50Z</time>
      </trkpt>
      <trkpt lat="45.99116" lon="6.56146">
        <ele>1855.96</ele>
        <time>2011-03-05T11:11:03Z</time>
      </trkpt>
      <trkpt lat="45.99116" lon="6.56146">
        <ele>1855.96</ele>
        <time>2011-03-05T11:11:04Z</time>
      </trkpt>
      <trkpt lat="45.99128" lon="6.56133">
        <ele>1852.12</ele>
        <time>2011-03-05T11:11:10Z</time>
      </trkpt>
      <trkpt lat="45.99147" lon="6.56114">
        <ele>1845.87</ele>
        <time>2011-03-05T11:11:16Z</time>
      </trkpt>
      <trkpt lat="45.99152" lon="6.56113">
        <ele>1846.35</ele>
        <time>2011-03-05T11:11:18Z</time>
      </trkpt>
      <trkpt lat="45.99159" lon="6.56112">
        <ele>1845.87</ele>
        <time>2011-03-05T11:11:27Z</time>
      </trkpt>
      <trkpt lat="45.99159" lon="6.56112">
        <ele>1845.87</ele>
        <time>2011-03-05T11:11:28Z</time>
      </trkpt>
      <trkpt lat="45.99164" lon="6.56111">
        <ele>1844.91</ele>
        <time>2011-03-05T11:11:31Z</time>
      </trkpt>
      <trkpt lat="45.9917" lon="6.56102">
        <ele>1843.47</ele>
        <time>2011-03-05T11:11:33Z</time>
      </trkpt>
      <trkpt lat="45.99173" lon="6.5607">
        <ele>1837.22</ele>
        <time>2011-03-05T11:11:38Z</time>
      </trkpt>
      <trkpt lat="45.99177" lon="6.56041">
        <ele>1829.53</ele>
        <time>2011-03-05T11:11:42Z</time>
      </trkpt>
      <trkpt lat="45.99198" lon="6.56018">
        <ele>1822.32</ele>
        <time>2011-03-05T11:11:46Z</time>
      </trkpt>
      <trkpt lat="45.9922" lon="6.56005">
        <ele>1817.51</ele>
        <time>2011-03-05T11:11:53Z</time>
      </trkpt>
      <trkpt lat="45.99222" lon="6.56005">
        <ele>1817.51</ele>
        <time>2011-03-05T11:11:59Z</time>
      </trkpt>
      <trkpt lat="45.99224" lon="6.56003">
        <ele>1817.03</ele>
        <time>2011-03-05T11:12:01Z</time>
      </trkpt>
      <trkpt lat="45.99228" lon="6.55994">
        <ele>1816.07</ele>
        <time>2011-03-05T11:12:03Z</time>
      </trkpt>
      <trkpt lat="45.99235" lon="6.55984">
        <ele>1814.15</ele>
        <time>2011-03-05T11:12:05Z</time>
      </trkpt>
      <trkpt lat="45.9925" lon="6.55965">
        <ele>1809.82</ele>
        <time>2011-03-05T11:12:08Z</time>
      </trkpt>
      <trkpt lat="45.99264" lon="6.55937">
        <ele>1804.53</ele>
        <time>2011-03-05T11:12:12Z</time>
      </trkpt>
      <trkpt lat="45.99282" lon="6.55907">
        <ele>1799.24</ele>
        <time>2011-03-05T11:12:17Z</time>
      </trkpt>
      <trkpt lat="45.99292" lon="6.55897">
        <ele>1795.4</ele>
        <time>2011-03-05T11:12:22Z</time>
      </trkpt>
      <trkpt lat="45.99292" lon="6.55897">
        <ele>1794.92</ele>
        <time>2011-03-05T11:12:37Z</time>
      </trkpt>
      <trkpt lat="45.99292" lon="6.55897">
        <ele>1794.92</ele>
        <time>2011-03-05T11:12:52Z</time>
      </trkpt>
      <trkpt lat="45.99292" lon="6.55897">
        <ele>1794.92</ele>
        <time>2011-03-05T11:12:56Z</time>
      </trkpt>
      <trkpt lat="45.99291" lon="6.55876">
        <ele>1795.4</ele>
        <time>2011-03-05T11:13:02Z</time>
      </trkpt>
      <trkpt lat="45.99296" lon="6.55869">
        <ele>1794.44</ele>
        <time>2011-03-05T11:13:06Z</time>
      </trkpt>
      <trkpt lat="45.99305" lon="6.55853">
        <ele>1793.48</ele>
        <time>2011-03-05T11:13:10Z</time>
      </trkpt>
      <trkpt lat="45.99298" lon="6.55838">
        <ele>1791.55</ele>
        <time>2011-03-05T11:13:15Z</time>
      </trkpt>
      <trkpt lat="45.99294" lon="6.55839">
        <ele>1790.11</ele>
        <time>2011-03-05T11:13:17Z</time>
      </trkpt>
      <trkpt lat="45.99281" lon="6.55822">
        <ele>1784.82</ele>
        <time>2011-03-05T11:13:22Z</time>
      </trkpt>
      <trkpt lat="45.99289" lon="6.55796">
        <ele>1781.46</ele>
        <time>2011-03-05T11:13:25Z</time>
      </trkpt>
      <trkpt lat="45.99298" lon="6.55785">
        <ele>1777.61</ele>
        <time>2011-03-05T11:13:30Z</time>
      </trkpt>
      <trkpt lat="45.99289" lon="6.55771">
        <ele>1773.29</ele>
        <time>2011-03-05T11:13:34Z</time>
      </trkpt>
      <trkpt lat="45.99286" lon="6.55773">
        <ele>1770.41</ele>
        <time>2011-03-05T11:13:37Z</time>
      </trkpt>
      <trkpt lat="45.99286" lon="6.55754">
        <ele>1765.6</ele>
        <time>2011-03-05T11:13:43Z</time>
      </trkpt>
      <trkpt lat="45.9929" lon="6.5573">
        <ele>1762.71</ele>
        <time>2011-03-05T11:13:46Z</time>
      </trkpt>
      <trkpt lat="45.99294" lon="6.55723">
        <ele>1761.75</ele>
        <time>2011-03-05T11:13:47Z</time>
      </trkpt>
      <trkpt lat="45.99296" lon="6.5572">
        <ele>1760.79</ele>
        <time>2011-03-05T11:13:48Z</time>
      </trkpt>
      <trkpt lat="45.99294" lon="6.5572">
        <ele>1757.91</ele>
        <time>2011-03-05T11:13:54Z</time>
      </trkpt>
      <trkpt lat="45.99295" lon="6.55719">
        <ele>1757.43</ele>
        <time>2011-03-05T11:13:59Z</time>
      </trkpt>
      <trkpt lat="45.99296" lon="6.55716">
        <ele>1757.43</ele>
        <time>2011-03-05T11:14:00Z</time>
      </trkpt>
      <trkpt lat="45.99297" lon="6.55712">
        <ele>1756.47</ele>
        <time>2011-03-05T11:14:01Z</time>
      </trkpt>
      <trkpt lat="45.99298" lon="6.55706">
        <ele>1755.5</ele>
        <time>2011-03-05T11:14:02Z</time>
      </trkpt>
      <trkpt lat="45.993" lon="6.55701">
        <ele>1755.02</ele>
        <time>2011-03-05T11:14:03Z</time>
      </trkpt>
      <trkpt lat="45.99301" lon="6.55699">
        <ele>1754.54</ele>
        <time>2011-03-05T11:14:04Z</time>
      </trkpt>
      <trkpt lat="45.99302" lon="6.55696">
        <ele>1753.58</ele>
        <time>2011-03-05T11:14:08Z</time>
      </trkpt>
      <trkpt lat="45.99303" lon="6.55692">
        <ele>1752.62</ele>
        <time>2011-03-05T11:14:09Z</time>
      </trkpt>
      <trkpt lat="45.99304" lon="6.55685">
        <ele>1752.14</ele>
        <time>2011-03-05T11:14:10Z</time>
      </trkpt>
      <trkpt lat="45.99307" lon="6.55678">
        <ele>1751.66</ele>
        <time>2011-03-05T11:14:11Z</time>
      </trkpt>
      <trkpt lat="45.99311" lon="6.55672">
        <ele>1750.7</ele>
        <time>2011-03-05T11:14:12Z</time>
      </trkpt>
      <trkpt lat="45.99314" lon="6.55669">
        <ele>1750.22</ele>
        <time>2011-03-05T11:14:13Z</time>
      </trkpt>
      <trkpt lat="45.99316" lon="6.55668">
        <ele>1749.74</ele>
        <time>2011-03-05T11:14:14Z</time>
      </trkpt>
      <trkpt lat="45.99316" lon="6.55668">
        <ele>1749.26</ele>
        <time>2011-03-05T11:14:21Z</time>
      </trkpt>
      <trkpt lat="45.99316" lon="6.55665">
        <ele>1748.78</ele>
        <time>2011-03-05T11:14:22Z</time>
      </trkpt>
      <trkpt lat="45.99315" lon="6.55661">
        <ele>1748.29</ele>
        <time>2011-03-05T11:14:23Z</time>
      </trkpt>
      <trkpt lat="45.99311" lon="6.5566">
        <ele>1748.29</ele>
        <time>2011-03-05T11:14:24Z</time>
      </trkpt>
      <trkpt lat="45.99309" lon="6.55662">
        <ele>1747.81</ele>
        <time>2011-03-05T11:14:25Z</time>
      </trkpt>
      <trkpt lat="45.99307" lon="6.55665">
        <ele>1746.85</ele>
        <time>2011-03-05T11:14:29Z</time>
      </trkpt>
      <trkpt lat="45.99306" lon="6.55665">
        <ele>1746.85</ele>
        <time>2011-03-05T11:14:30Z</time>
      </trkpt>
      <trkpt lat="45.99303" lon="6.55662">
        <ele>1746.37</ele>
        <time>2011-03-05T11:14:31Z</time>
      </trkpt>
      <trkpt lat="45.993" lon="6.5566">
        <ele>1746.37</ele>
        <time>2011-03-05T11:14:32Z</time>
      </trkpt>
      <trkpt lat="45.99299" lon="6.55659">
        <ele>1745.89</ele>
        <time>2011-03-05T11:14:36Z</time>
      </trkpt>
      <trkpt lat="45.993" lon="6.55659">
        <ele>1745.41</ele>
        <time>2011-03-05T11:14:44Z</time>
      </trkpt>
      <trkpt lat="45.993" lon="6.55658">
        <ele>1745.41</ele>
        <time>2011-03-05T11:14:50Z</time>
      </trkpt>
      <trkpt lat="45.993" lon="6.55656">
        <ele>1745.41</ele>
        <time>2011-03-05T11:14:51Z</time>
      </trkpt>
      <trkpt lat="45.99301" lon="6.55652">
        <ele>1745.41</ele>
        <time>2011-03-05T11:14:52Z</time>
      </trkpt>
      <trkpt lat="45.99302" lon="6.55646">
        <ele>1744.93</ele>
        <time>2011-03-05T11:14:53Z</time>
      </trkpt>
      <trkpt lat="45.99303" lon="6.5564">
        <ele>1744.93</ele>
        <time>2011-03-05T11:14:54Z</time>
      </trkpt>
      <trkpt lat="45.99303" lon="6.55632">
        <ele>1744.45</ele>
        <time>2011-03-05T11:14:55Z</time>
      </trkpt>
      <trkpt lat="45.99304" lon="6.55622">
        <ele>1744.45</ele>
        <time>2011-03-05T11:14:56Z</time>
      </trkpt>
      <trkpt lat="45.99307" lon="6.55614">
        <ele>1743.97</ele>
        <time>2011-03-05T11:14:57Z</time>
      </trkpt>
      <trkpt lat="45.9931" lon="6.55608">
        <ele>1743.97</ele>
        <time>2011-03-05T11:14:58Z</time>
      </trkpt>
      <trkpt lat="45.99314" lon="6.55603">
        <ele>1743.49</ele>
        <time>2011-03-05T11:14:59Z</time>
      </trkpt>
      <trkpt lat="45.99318" lon="6.55597">
        <ele>1743.01</ele>
        <time>2011-03-05T11:15:00Z</time>
      </trkpt>
      <trkpt lat="45.9932" lon="6.5559">
        <ele>1742.53</ele>
        <time>2011-03-05T11:15:01Z</time>
      </trkpt>
      <trkpt lat="45.99322" lon="6.55583">
        <ele>1742.05</ele>
        <time>2011-03-05T11:15:02Z</time>
      </trkpt>
      <trkpt lat="45.99325" lon="6.55574">
        <ele>1741.57</ele>
        <time>2011-03-05T11:15:03Z</time>
      </trkpt>
      <trkpt lat="45.99328" lon="6.55564">
        <ele>1741.08</ele>
        <time>2011-03-05T11:15:04Z</time>
      </trkpt>
      <trkpt lat="45.99333" lon="6.55555">
        <ele>1740.6</ele>
        <time>2011-03-05T11:15:05Z</time>
      </trkpt>
      <trkpt lat="45.99338" lon="6.55549">
        <ele>1740.12</ele>
        <time>2011-03-05T11:15:06Z</time>
      </trkpt>
      <trkpt lat="45.99343" lon="6.55544">
        <ele>1740.12</ele>
        <time>2011-03-05T11:15:07Z</time>
      </trkpt>
      <trkpt lat="45.99352" lon="6.55525">
        <ele>1737.72</ele>
        <time>2011-03-05T11:15:12Z</time>
      </trkpt>
      <trkpt lat="45.99353" lon="6.55523">
        <ele>1736.76</ele>
        <time>2011-03-05T11:15:14Z</time>
      </trkpt>
      <trkpt lat="45.99353" lon="6.55506">
        <ele>1734.84</ele>
        <time>2011-03-05T11:15:17Z</time>
      </trkpt>
      <trkpt lat="45.99353" lon="6.55495">
        <ele>1734.36</ele>
        <time>2011-03-05T11:15:18Z</time>
      </trkpt>
      <trkpt lat="45.99357" lon="6.55471">
        <ele>1732.91</ele>
        <time>2011-03-05T11:15:20Z</time>
      </trkpt>
      <trkpt lat="45.99359" lon="6.5546">
        <ele>1731.95</ele>
        <time>2011-03-05T11:15:21Z</time>
      </trkpt>
      <trkpt lat="45.9936" lon="6.5545">
        <ele>1731.47</ele>
        <time>2011-03-05T11:15:22Z</time>
      </trkpt>
      <trkpt lat="45.99363" lon="6.55435">
        <ele>1730.51</ele>
        <time>2011-03-05T11:15:24Z</time>
      </trkpt>
      <trkpt lat="45.99365" lon="6.55429">
        <ele>1729.55</ele>
        <time>2011-03-05T11:15:25Z</time>
      </trkpt>
      <trkpt lat="45.99366" lon="6.55424">
        <ele>1729.07</ele>
        <time>2011-03-05T11:15:26Z</time>
      </trkpt>
      <trkpt lat="45.99379" lon="6.55401">
        <ele>1728.11</ele>
        <time>2011-03-05T11:15:34Z</time>
      </trkpt>
      <trkpt lat="45.9939" lon="6.55392">
        <ele>1726.18</ele>
        <time>2011-03-05T11:15:44Z</time>
      </trkpt>
      <trkpt lat="45.99394" lon="6.5539">
        <ele>1725.7</ele>
        <time>2011-03-05T11:15:49Z</time>
      </trkpt>
      <trkpt lat="45.99395" lon="6.5539">
        <ele>1725.7</ele>
        <time>2011-03-05T11:15:50Z</time>
      </trkpt>
      <trkpt lat="45.99396" lon="6.5539">
        <ele>1725.7</ele>
        <time>2011-03-05T11:15:51Z</time>
      </trkpt>
      <trkpt lat="45.99398" lon="6.55389">
        <ele>1724.74</ele>
        <time>2011-03-05T11:15:52Z</time>
      </trkpt>
      <trkpt lat="45.994" lon="6.55389">
        <ele>1724.74</ele>
        <time>2011-03-05T11:15:53Z</time>
      </trkpt>
      <trkpt lat="45.99401" lon="6.55388">
        <ele>1724.74</ele>
        <time>2011-03-05T11:15:54Z</time>
      </trkpt>
      <trkpt lat="45.99403" lon="6.55387">
        <ele>1724.74</ele>
        <time>2011-03-05T11:15:55Z</time>
      </trkpt>
      <trkpt lat="45.99404" lon="6.55386">
        <ele>1724.26</ele>
        <time>2011-03-05T11:15:56Z</time>
      </trkpt>
      <trkpt lat="45.99434" lon="6.55374">
        <ele>1720.42</ele>
        <time>2011-03-05T11:16:09Z</time>
      </trkpt>
      <trkpt lat="45.99456" lon="6.55368">
        <ele>1718.01</ele>
        <time>2011-03-05T11:16:20Z</time>
      </trkpt>
      <trkpt lat="45.99482" lon="6.55358">
        <ele>1715.61</ele>
        <time>2011-03-05T11:16:27Z</time>
      </trkpt>
      <trkpt lat="45.99504" lon="6.55353">
        <ele>1714.17</ele>
        <time>2011-03-05T11:16:37Z</time>
      </trkpt>
      <trkpt lat="45.99533" lon="6.55343">
        <ele>1712.73</ele>
        <time>2011-03-05T11:16:48Z</time>
      </trkpt>
      <trkpt lat="45.99557" lon="6.55338">
        <ele>1711.76</ele>
        <time>2011-03-05T11:16:58Z</time>
      </trkpt>
      <trkpt lat="45.99586" lon="6.55333">
        <ele>1710.32</ele>
        <time>2011-03-05T11:17:10Z</time>
      </trkpt>
      <trkpt lat="45.99605" lon="6.55331">
        <ele>1710.32</ele>
        <time>2011-03-05T11:17:20Z</time>
      </trkpt>
      <trkpt lat="45.9963" lon="6.5533">
        <ele>1709.84</ele>
        <time>2011-03-05T11:17:33Z</time>
      </trkpt>
      <trkpt lat="45.99643" lon="6.5533">
        <ele>1708.4</ele>
        <time>2011-03-05T11:17:45Z</time>
      </trkpt>
      <trkpt lat="45.99658" lon="6.55332">
        <ele>1708.4</ele>
        <time>2011-03-05T11:17:57Z</time>
      </trkpt>
      <trkpt lat="45.99671" lon="6.55331">
        <ele>1707.44</ele>
        <time>2011-03-05T11:18:09Z</time>
      </trkpt>
      <trkpt lat="45.99688" lon="6.55329">
        <ele>1707.92</ele>
        <time>2011-03-05T11:18:22Z</time>
      </trkpt>
      <trkpt lat="45.997" lon="6.55331">
        <ele>1708.88</ele>
        <time>2011-03-05T11:18:33Z</time>
      </trkpt>
      <trkpt lat="45.99711" lon="6.5533">
        <ele>1708.88</ele>
        <time>2011-03-05T11:18:43Z</time>
      </trkpt>
      <trkpt lat="45.99722" lon="6.55329">
        <ele>1709.36</ele>
        <time>2011-03-05T11:18:54Z</time>
      </trkpt>
      <trkpt lat="45.99734" lon="6.55331">
        <ele>1709.84</ele>
        <time>2011-03-05T11:19:06Z</time>
      </trkpt>
      <trkpt lat="45.99745" lon="6.55333">
        <ele>1708.88</ele>
        <time>2011-03-05T11:19:17Z</time>
      </trkpt>
      <trkpt lat="45.99746" lon="6.55332">
        <ele>1708.88</ele>
        <time>2011-03-05T11:19:18Z</time>
      </trkpt>
      <trkpt lat="45.99747" lon="6.55332">
        <ele>1708.88</ele>
        <time>2011-03-05T11:19:20Z</time>
      </trkpt>
      <trkpt lat="45.99756" lon="6.55331">
        <ele>1709.84</ele>
        <time>2011-03-05T11:19:30Z</time>
      </trkpt>
      <trkpt lat="45.99762" lon="6.55333">
        <ele>1711.28</ele>
        <time>2011-03-05T11:19:39Z</time>
      </trkpt>
      <trkpt lat="45.99771" lon="6.55334">
        <ele>1713.69</ele>
        <time>2011-03-05T11:19:50Z</time>
      </trkpt>
      <trkpt lat="45.99772" lon="6.55334">
        <ele>1713.69</ele>
        <time>2011-03-05T11:19:51Z</time>
      </trkpt>
      <trkpt lat="45.99778" lon="6.55337">
        <ele>1716.09</ele>
        <time>2011-03-05T11:20:01Z</time>
      </trkpt>
      <trkpt lat="45.99779" lon="6.55337">
        <ele>1716.09</ele>
        <time>2011-03-05T11:20:02Z</time>
      </trkpt>
      <trkpt lat="45.99785" lon="6.55337">
        <ele>1718.49</ele>
        <time>2011-03-05T11:20:10Z</time>
      </trkpt>
      <trkpt lat="45.99788" lon="6.55338">
        <ele>1718.49</ele>
        <time>2011-03-05T11:20:13Z</time>
      </trkpt>
      <trkpt lat="45.99789" lon="6.55338">
        <ele>1718.49</ele>
        <time>2011-03-05T11:20:14Z</time>
      </trkpt>
      <trkpt lat="45.99801" lon="6.55338">
        <ele>1717.05</ele>
        <time>2011-03-05T11:20:24Z</time>
      </trkpt>
      <trkpt lat="45.99802" lon="6.55338">
        <ele>1717.53</ele>
        <time>2011-03-05T11:20:25Z</time>
      </trkpt>
      <trkpt lat="45.99803" lon="6.55338">
        <ele>1717.53</ele>
        <time>2011-03-05T11:20:26Z</time>
      </trkpt>
      <trkpt lat="45.99805" lon="6.55338">
        <ele>1717.53</ele>
        <time>2011-03-05T11:20:27Z</time>
      </trkpt>
      <trkpt lat="45.99806" lon="6.55338">
        <ele>1717.53</ele>
        <time>2011-03-05T11:20:28Z</time>
      </trkpt>
      <trkpt lat="45.99822" lon="6.55337">
        <ele>1718.01</ele>
        <time>2011-03-05T11:20:40Z</time>
      </trkpt>
      <trkpt lat="45.9983" lon="6.55335">
        <ele>1718.49</ele>
        <time>2011-03-05T11:20:52Z</time>
      </trkpt>
      <trkpt lat="45.99829" lon="6.55335">
        <ele>1718.49</ele>
        <time>2011-03-05T11:21:09Z</time>
      </trkpt>
      <trkpt lat="45.99829" lon="6.55335">
        <ele>1718.49</ele>
        <time>2011-03-05T11:21:29Z</time>
      </trkpt>
      <trkpt lat="45.9983" lon="6.55335">
        <ele>1718.49</ele>
        <time>2011-03-05T11:21:55Z</time>
      </trkpt>
      <trkpt lat="45.9983" lon="6.55334">
        <ele>1718.97</ele>
        <time>2011-03-05T11:22:09Z</time>
      </trkpt>
      <trkpt lat="45.9983" lon="6.55334">
        <ele>1719.46</ele>
        <time>2011-03-05T11:22:25Z</time>
      </trkpt>
      <trkpt lat="45.99831" lon="6.55336">
        <ele>1719.94</ele>
        <time>2011-03-05T11:22:42Z</time>
      </trkpt>
      <trkpt lat="45.99832" lon="6.55337">
        <ele>1720.42</ele>
        <time>2011-03-05T11:22:43Z</time>
      </trkpt>
      <trkpt lat="45.99838" lon="6.55336">
        <ele>1721.38</ele>
        <time>2011-03-05T11:22:46Z</time>
      </trkpt>
      <trkpt lat="45.99862" lon="6.55338">
        <ele>1723.3</ele>
        <time>2011-03-05T11:22:57Z</time>
      </trkpt>
      <trkpt lat="45.99891" lon="6.55343">
        <ele>1723.3</ele>
        <time>2011-03-05T11:23:06Z</time>
      </trkpt>
      <trkpt lat="45.99919" lon="6.55347">
        <ele>1721.86</ele>
        <time>2011-03-05T11:23:15Z</time>
      </trkpt>
      <trkpt lat="45.99952" lon="6.55349">
        <ele>1719.94</ele>
        <time>2011-03-05T11:23:25Z</time>
      </trkpt>
      <trkpt lat="45.99995" lon="6.55357">
        <ele>1716.57</ele>
        <time>2011-03-05T11:23:34Z</time>
      </trkpt>
      <trkpt lat="46.00002" lon="6.55361">
        <ele>1716.57</ele>
        <time>2011-03-05T11:23:35Z</time>
      </trkpt>
      <trkpt lat="46.00032" lon="6.55385">
        <ele>1715.61</ele>
        <time>2011-03-05T11:23:42Z</time>
      </trkpt>
      <trkpt lat="46.00045" lon="6.55391">
        <ele>1715.13</ele>
        <time>2011-03-05T11:23:46Z</time>
      </trkpt>
      <trkpt lat="46.00049" lon="6.55391">
        <ele>1715.13</ele>
        <time>2011-03-05T11:23:47Z</time>
      </trkpt>
      <trkpt lat="46.00077" lon="6.55392">
        <ele>1714.17</ele>
        <time>2011-03-05T11:23:53Z</time>
      </trkpt>
      <trkpt lat="46.001" lon="6.55401">
        <ele>1711.28</ele>
        <time>2011-03-05T11:23:57Z</time>
      </trkpt>
      <trkpt lat="46.00105" lon="6.55405">
        <ele>1710.8</ele>
        <time>2011-03-05T11:23:58Z</time>
      </trkpt>
      <trkpt lat="46.00113" lon="6.55416">
        <ele>1709.36</ele>
        <time>2011-03-05T11:24:00Z</time>
      </trkpt>
      <trkpt lat="46.0012" lon="6.55428">
        <ele>1708.4</ele>
        <time>2011-03-05T11:24:02Z</time>
      </trkpt>
      <trkpt lat="46.00124" lon="6.55433">
        <ele>1707.92</ele>
        <time>2011-03-05T11:24:03Z</time>
      </trkpt>
      <trkpt lat="46.00129" lon="6.55436">
        <ele>1707.44</ele>
        <time>2011-03-05T11:24:04Z</time>
      </trkpt>
      <trkpt lat="46.00134" lon="6.55437">
        <ele>1706.96</ele>
        <time>2011-03-05T11:24:05Z</time>
      </trkpt>
      <trkpt lat="46.00139" lon="6.55438">
        <ele>1706.48</ele>
        <time>2011-03-05T11:24:06Z</time>
      </trkpt>
      <trkpt lat="46.00145" lon="6.5544">
        <ele>1705.52</ele>
        <time>2011-03-05T11:24:07Z</time>
      </trkpt>
      <trkpt lat="46.0015" lon="6.55443">
        <ele>1705.04</ele>
        <time>2011-03-05T11:24:08Z</time>
      </trkpt>
      <trkpt lat="46.00162" lon="6.5545">
        <ele>1704.07</ele>
        <time>2011-03-05T11:24:10Z</time>
      </trkpt>
      <trkpt lat="46.00167" lon="6.55453">
        <ele>1703.11</ele>
        <time>2011-03-05T11:24:11Z</time>
      </trkpt>
      <trkpt lat="46.00173" lon="6.55454">
        <ele>1702.15</ele>
        <time>2011-03-05T11:24:12Z</time>
      </trkpt>
      <trkpt lat="46.00178" lon="6.55453">
        <ele>1701.67</ele>
        <time>2011-03-05T11:24:13Z</time>
      </trkpt>
      <trkpt lat="46.00183" lon="6.55453">
        <ele>1700.71</ele>
        <time>2011-03-05T11:24:14Z</time>
      </trkpt>
      <trkpt lat="46.00188" lon="6.55453">
        <ele>1700.23</ele>
        <time>2011-03-05T11:24:15Z</time>
      </trkpt>
      <trkpt lat="46.00193" lon="6.55454">
        <ele>1699.27</ele>
        <time>2011-03-05T11:24:16Z</time>
      </trkpt>
      <trkpt lat="46.00198" lon="6.55454">
        <ele>1698.31</ele>
        <time>2011-03-05T11:24:17Z</time>
      </trkpt>
      <trkpt lat="46.00201" lon="6.55451">
        <ele>1696.86</ele>
        <time>2011-03-05T11:24:18Z</time>
      </trkpt>
      <trkpt lat="46.00202" lon="6.55445">
        <ele>1695.42</ele>
        <time>2011-03-05T11:24:19Z</time>
      </trkpt>
      <trkpt lat="46.00196" lon="6.55433">
        <ele>1693.02</ele>
        <time>2011-03-05T11:24:21Z</time>
      </trkpt>
      <trkpt lat="46.00188" lon="6.55425">
        <ele>1690.62</ele>
        <time>2011-03-05T11:24:23Z</time>
      </trkpt>
      <trkpt lat="46.00185" lon="6.55419">
        <ele>1689.65</ele>
        <time>2011-03-05T11:24:24Z</time>
      </trkpt>
      <trkpt lat="46.0018" lon="6.55406">
        <ele>1687.25</ele>
        <time>2011-03-05T11:24:26Z</time>
      </trkpt>
      <trkpt lat="46.00177" lon="6.55401">
        <ele>1686.29</ele>
        <time>2011-03-05T11:24:27Z</time>
      </trkpt>
      <trkpt lat="46.00174" lon="6.55395">
        <ele>1684.37</ele>
        <time>2011-03-05T11:24:28Z</time>
      </trkpt>
      <trkpt lat="46.00172" lon="6.55388">
        <ele>1682.93</ele>
        <time>2011-03-05T11:24:29Z</time>
      </trkpt>
      <trkpt lat="46.00169" lon="6.5538">
        <ele>1681.48</ele>
        <time>2011-03-05T11:24:30Z</time>
      </trkpt>
      <trkpt lat="46.00164" lon="6.55365">
        <ele>1678.6</ele>
        <time>2011-03-05T11:24:32Z</time>
      </trkpt>
      <trkpt lat="46.00161" lon="6.55359">
        <ele>1677.64</ele>
        <time>2011-03-05T11:24:33Z</time>
      </trkpt>
      <trkpt lat="46.0016" lon="6.55352">
        <ele>1675.72</ele>
        <time>2011-03-05T11:24:34Z</time>
      </trkpt>
      <trkpt lat="46.00157" lon="6.55346">
        <ele>1674.27</ele>
        <time>2011-03-05T11:24:35Z</time>
      </trkpt>
      <trkpt lat="46.00155" lon="6.5534">
        <ele>1673.31</ele>
        <time>2011-03-05T11:24:36Z</time>
      </trkpt>
      <trkpt lat="46.00151" lon="6.55336">
        <ele>1672.35</ele>
        <time>2011-03-05T11:24:37Z</time>
      </trkpt>
      <trkpt lat="46.00148" lon="6.55331">
        <ele>1670.91</ele>
        <time>2011-03-05T11:24:38Z</time>
      </trkpt>
      <trkpt lat="46.00145" lon="6.55325">
        <ele>1669.47</ele>
        <time>2011-03-05T11:24:39Z</time>
      </trkpt>
      <trkpt lat="46.00145" lon="6.55322">
        <ele>1668.51</ele>
        <time>2011-03-05T11:24:40Z</time>
      </trkpt>
      <trkpt lat="46.00148" lon="6.55321">
        <ele>1667.06</ele>
        <time>2011-03-05T11:24:41Z</time>
      </trkpt>
      <trkpt lat="46.00149" lon="6.5532">
        <ele>1666.1</ele>
        <time>2011-03-05T11:24:42Z</time>
      </trkpt>
      <trkpt lat="46.0015" lon="6.55321">
        <ele>1662.74</ele>
        <time>2011-03-05T11:24:49Z</time>
      </trkpt>
      <trkpt lat="46.00152" lon="6.55322">
        <ele>1661.78</ele>
        <time>2011-03-05T11:24:51Z</time>
      </trkpt>
      <trkpt lat="46.00153" lon="6.55323">
        <ele>1661.3</ele>
        <time>2011-03-05T11:24:52Z</time>
      </trkpt>
      <trkpt lat="46.0017" lon="6.55333">
        <ele>1659.37</ele>
        <time>2011-03-05T11:24:59Z</time>
      </trkpt>
      <trkpt lat="46.00205" lon="6.55359">
        <ele>1655.05</ele>
        <time>2011-03-05T11:25:08Z</time>
      </trkpt>
      <trkpt lat="46.00221" lon="6.55373">
        <ele>1653.12</ele>
        <time>2011-03-05T11:25:11Z</time>
      </trkpt>
      <trkpt lat="46.00238" lon="6.55383">
        <ele>1651.68</ele>
        <time>2011-03-05T11:25:14Z</time>
      </trkpt>
      <trkpt lat="46.00242" lon="6.55383">
        <ele>1650.72</ele>
        <time>2011-03-05T11:25:15Z</time>
      </trkpt>
      <trkpt lat="46.00247" lon="6.55383">
        <ele>1649.76</ele>
        <time>2011-03-05T11:25:16Z</time>
      </trkpt>
      <trkpt lat="46.00274" lon="6.55392">
        <ele>1643.03</ele>
        <time>2011-03-05T11:25:23Z</time>
      </trkpt>
      <trkpt lat="46.00286" lon="6.55406">
        <ele>1638.7</ele>
        <time>2011-03-05T11:25:27Z</time>
      </trkpt>
      <trkpt lat="46.0029" lon="6.55411">
        <ele>1637.74</ele>
        <time>2011-03-05T11:25:28Z</time>
      </trkpt>
      <trkpt lat="46.00293" lon="6.55414">
        <ele>1636.3</ele>
        <time>2011-03-05T11:25:29Z</time>
      </trkpt>
      <trkpt lat="46.00293" lon="6.55413">
        <ele>1634.86</ele>
        <time>2011-03-05T11:25:32Z</time>
      </trkpt>
      <trkpt lat="46.00298" lon="6.55419">
        <ele>1632.46</ele>
        <time>2011-03-05T11:25:35Z</time>
      </trkpt>
      <trkpt lat="46.0031" lon="6.5542">
        <ele>1630.05</ele>
        <time>2011-03-05T11:25:39Z</time>
      </trkpt>
      <trkpt lat="46.00314" lon="6.55421">
        <ele>1629.09</ele>
        <time>2011-03-05T11:25:40Z</time>
      </trkpt>
      <trkpt lat="46.00318" lon="6.55423">
        <ele>1628.61</ele>
        <time>2011-03-05T11:25:41Z</time>
      </trkpt>
      <trkpt lat="46.00322" lon="6.55427">
        <ele>1628.13</ele>
        <time>2011-03-05T11:25:42Z</time>
      </trkpt>
      <trkpt lat="46.00327" lon="6.5543">
        <ele>1627.65</ele>
        <time>2011-03-05T11:25:43Z</time>
      </trkpt>
      <trkpt lat="46.00331" lon="6.55434">
        <ele>1627.17</ele>
        <time>2011-03-05T11:25:44Z</time>
      </trkpt>
      <trkpt lat="46.00335" lon="6.55437">
        <ele>1626.69</ele>
        <time>2011-03-05T11:25:45Z</time>
      </trkpt>
      <trkpt lat="46.00349" lon="6.55446">
        <ele>1624.28</ele>
        <time>2011-03-05T11:25:48Z</time>
      </trkpt>
      <trkpt lat="46.00356" lon="6.55454">
        <ele>1622.84</ele>
        <time>2011-03-05T11:25:50Z</time>
      </trkpt>
      <trkpt lat="46.00359" lon="6.55459">
        <ele>1621.88</ele>
        <time>2011-03-05T11:25:51Z</time>
      </trkpt>
      <trkpt lat="46.0036" lon="6.55462">
        <ele>1621.4</ele>
        <time>2011-03-05T11:25:52Z</time>
      </trkpt>
      <trkpt lat="46.00374" lon="6.55471">
        <ele>1618.04</ele>
        <time>2011-03-05T11:25:57Z</time>
      </trkpt>
      <trkpt lat="46.00378" lon="6.55473">
        <ele>1617.07</ele>
        <time>2011-03-05T11:25:58Z</time>
      </trkpt>
      <trkpt lat="46.00381" lon="6.55475">
        <ele>1616.11</ele>
        <time>2011-03-05T11:25:59Z</time>
      </trkpt>
      <trkpt lat="46.00384" lon="6.55476">
        <ele>1615.63</ele>
        <time>2011-03-05T11:26:00Z</time>
      </trkpt>
      <trkpt lat="46.00386" lon="6.55476">
        <ele>1614.19</ele>
        <time>2011-03-05T11:26:02Z</time>
      </trkpt>
      <trkpt lat="46.00388" lon="6.55475">
        <ele>1613.23</ele>
        <time>2011-03-05T11:26:03Z</time>
      </trkpt>
      <trkpt lat="46.00391" lon="6.55473">
        <ele>1612.75</ele>
        <time>2011-03-05T11:26:04Z</time>
      </trkpt>
      <trkpt lat="46.00394" lon="6.55472">
        <ele>1612.27</ele>
        <time>2011-03-05T11:26:05Z</time>
      </trkpt>
      <trkpt lat="46.00398" lon="6.55472">
        <ele>1611.31</ele>
        <time>2011-03-05T11:26:06Z</time>
      </trkpt>
      <trkpt lat="46.00402" lon="6.55471">
        <ele>1610.83</ele>
        <time>2011-03-05T11:26:07Z</time>
      </trkpt>
      <trkpt lat="46.00407" lon="6.55473">
        <ele>1610.35</ele>
        <time>2011-03-05T11:26:08Z</time>
      </trkpt>
      <trkpt lat="46.0042" lon="6.55479">
        <ele>1608.42</ele>
        <time>2011-03-05T11:26:11Z</time>
      </trkpt>
      <trkpt lat="46.00425" lon="6.55479">
        <ele>1608.42</ele>
        <time>2011-03-05T11:26:12Z</time>
      </trkpt>
      <trkpt lat="46.0043" lon="6.55479">
        <ele>1608.42</ele>
        <time>2011-03-05T11:26:13Z</time>
      </trkpt>
      <trkpt lat="46.00435" lon="6.55478">
        <ele>1608.42</ele>
        <time>2011-03-05T11:26:14Z</time>
      </trkpt>
      <trkpt lat="46.00444" lon="6.55475">
        <ele>1608.42</ele>
        <time>2011-03-05T11:26:16Z</time>
      </trkpt>
      <trkpt lat="46.00449" lon="6.55471">
        <ele>1608.42</ele>
        <time>2011-03-05T11:26:17Z</time>
      </trkpt>
      <trkpt lat="46.00453" lon="6.55467">
        <ele>1608.42</ele>
        <time>2011-03-05T11:26:18Z</time>
      </trkpt>
      <trkpt lat="46.00456" lon="6.55462">
        <ele>1608.42</ele>
        <time>2011-03-05T11:26:19Z</time>
      </trkpt>
      <trkpt lat="46.00458" lon="6.55456">
        <ele>1608.42</ele>
        <time>2011-03-05T11:26:20Z</time>
      </trkpt>
      <trkpt lat="46.0046" lon="6.55448">
        <ele>1608.42</ele>
        <time>2011-03-05T11:26:22Z</time>
      </trkpt>
      <trkpt lat="46.00461" lon="6.55446">
        <ele>1608.42</ele>
        <time>2011-03-05T11:26:23Z</time>
      </trkpt>
      <trkpt lat="46.00462" lon="6.55442">
        <ele>1608.42</ele>
        <time>2011-03-05T11:26:28Z</time>
      </trkpt>
      <trkpt lat="46.00463" lon="6.5544">
        <ele>1608.42</ele>
        <time>2011-03-05T11:26:29Z</time>
      </trkpt>
      <trkpt lat="46.00464" lon="6.55439">
        <ele>1608.42</ele>
        <time>2011-03-05T11:26:30Z</time>
      </trkpt>
      <trkpt lat="46.00464" lon="6.55437">
        <ele>1608.42</ele>
        <time>2011-03-05T11:26:31Z</time>
      </trkpt>
      <trkpt lat="46.00465" lon="6.55436">
        <ele>1608.42</ele>
        <time>2011-03-05T11:26:32Z</time>
      </trkpt>
      <trkpt lat="46.00465" lon="6.55433">
        <ele>1608.42</ele>
        <time>2011-03-05T11:26:33Z</time>
      </trkpt>
      <trkpt lat="46.00466" lon="6.55431">
        <ele>1608.42</ele>
        <time>2011-03-05T11:26:34Z</time>
      </trkpt>
      <trkpt lat="46.00467" lon="6.55428">
        <ele>1608.42</ele>
        <time>2011-03-05T11:26:35Z</time>
      </trkpt>
      <trkpt lat="46.00468" lon="6.55425">
        <ele>1608.42</ele>
        <time>2011-03-05T11:26:36Z</time>
      </trkpt>
      <trkpt lat="46.00471" lon="6.55422">
        <ele>1607.94</ele>
        <time>2011-03-05T11:26:37Z</time>
      </trkpt>
      <trkpt lat="46.00474" lon="6.55421">
        <ele>1607.46</ele>
        <time>2011-03-05T11:26:38Z</time>
      </trkpt>
      <trkpt lat="46.00477" lon="6.5542">
        <ele>1606.98</ele>
        <time>2011-03-05T11:26:39Z</time>
      </trkpt>
      <trkpt lat="46.0048" lon="6.55421">
        <ele>1606.98</ele>
        <time>2011-03-05T11:26:40Z</time>
      </trkpt>
      <trkpt lat="46.00483" lon="6.55422">
        <ele>1606.5</ele>
        <time>2011-03-05T11:26:41Z</time>
      </trkpt>
      <trkpt lat="46.00488" lon="6.55423">
        <ele>1606.02</ele>
        <time>2011-03-05T11:26:43Z</time>
      </trkpt>
      <trkpt lat="46.00491" lon="6.55425">
        <ele>1605.54</ele>
        <time>2011-03-05T11:26:46Z</time>
      </trkpt>
      <trkpt lat="46.00492" lon="6.55426">
        <ele>1605.06</ele>
        <time>2011-03-05T11:26:47Z</time>
      </trkpt>
      <trkpt lat="46.00495" lon="6.55427">
        <ele>1605.06</ele>
        <time>2011-03-05T11:26:48Z</time>
      </trkpt>
      <trkpt lat="46.00497" lon="6.55429">
        <ele>1604.58</ele>
        <time>2011-03-05T11:26:49Z</time>
      </trkpt>
      <trkpt lat="46.005" lon="6.55431">
        <ele>1604.1</ele>
        <time>2011-03-05T11:26:50Z</time>
      </trkpt>
      <trkpt lat="46.00503" lon="6.55432">
        <ele>1603.62</ele>
        <time>2011-03-05T11:26:51Z</time>
      </trkpt>
      <trkpt lat="46.00521" lon="6.55442">
        <ele>1601.69</ele>
        <time>2011-03-05T11:26:56Z</time>
      </trkpt>
      <trkpt lat="46.00526" lon="6.55444">
        <ele>1601.21</ele>
        <time>2011-03-05T11:26:57Z</time>
      </trkpt>
      <trkpt lat="46.0053" lon="6.55446">
        <ele>1600.73</ele>
        <time>2011-03-05T11:26:58Z</time>
      </trkpt>
      <trkpt lat="46.00569" lon="6.55465">
        <ele>1593.52</ele>
        <time>2011-03-05T11:27:09Z</time>
      </trkpt>
      <trkpt lat="46.00576" lon="6.55471">
        <ele>1592.08</ele>
        <time>2011-03-05T11:27:11Z</time>
      </trkpt>
      <trkpt lat="46.00598" lon="6.55499">
        <ele>1582.95</ele>
        <time>2011-03-05T11:27:17Z</time>
      </trkpt>
      <trkpt lat="46.00605" lon="6.55508">
        <ele>1581.51</ele>
        <time>2011-03-05T11:27:19Z</time>
      </trkpt>
      <trkpt lat="46.00607" lon="6.55507">
        <ele>1580.06</ele>
        <time>2011-03-05T11:27:23Z</time>
      </trkpt>
      <trkpt lat="46.00608" lon="6.55503">
        <ele>1579.1</ele>
        <time>2011-03-05T11:27:24Z</time>
      </trkpt>
      <trkpt lat="46.00608" lon="6.55499">
        <ele>1578.62</ele>
        <time>2011-03-05T11:27:25Z</time>
      </trkpt>
      <trkpt lat="46.00604" lon="6.5549">
        <ele>1576.7</ele>
        <time>2011-03-05T11:27:27Z</time>
      </trkpt>
      <trkpt lat="46.006" lon="6.55484">
        <ele>1575.26</ele>
        <time>2011-03-05T11:27:28Z</time>
      </trkpt>
      <trkpt lat="46.00597" lon="6.55477">
        <ele>1574.3</ele>
        <time>2011-03-05T11:27:29Z</time>
      </trkpt>
      <trkpt lat="46.00593" lon="6.55472">
        <ele>1573.82</ele>
        <time>2011-03-05T11:27:30Z</time>
      </trkpt>
      <trkpt lat="46.00587" lon="6.55461">
        <ele>1570.93</ele>
        <time>2011-03-05T11:27:33Z</time>
      </trkpt>
      <trkpt lat="46.00589" lon="6.5546">
        <ele>1569.97</ele>
        <time>2011-03-05T11:27:34Z</time>
      </trkpt>
      <trkpt lat="46.0059" lon="6.5546">
        <ele>1568.53</ele>
        <time>2011-03-05T11:27:35Z</time>
      </trkpt>
      <trkpt lat="46.00592" lon="6.55461">
        <ele>1567.57</ele>
        <time>2011-03-05T11:27:36Z</time>
      </trkpt>
      <trkpt lat="46.00596" lon="6.55463">
        <ele>1566.61</ele>
        <time>2011-03-05T11:27:37Z</time>
      </trkpt>
      <trkpt lat="46.00603" lon="6.55471">
        <ele>1562.76</ele>
        <time>2011-03-05T11:27:42Z</time>
      </trkpt>
      <trkpt lat="46.00607" lon="6.55473">
        <ele>1561.8</ele>
        <time>2011-03-05T11:27:43Z</time>
      </trkpt>
      <trkpt lat="46.00609" lon="6.55472">
        <ele>1561.32</ele>
        <time>2011-03-05T11:27:44Z</time>
      </trkpt>
      <trkpt lat="46.00609" lon="6.55455">
        <ele>1556.03</ele>
        <time>2011-03-05T11:27:48Z</time>
      </trkpt>
      <trkpt lat="46.00607" lon="6.5545">
        <ele>1554.59</ele>
        <time>2011-03-05T11:27:49Z</time>
      </trkpt>
      <trkpt lat="46.00605" lon="6.55444">
        <ele>1552.67</ele>
        <time>2011-03-05T11:27:50Z</time>
      </trkpt>
      <trkpt lat="46.00603" lon="6.55438">
        <ele>1550.74</ele>
        <time>2011-03-05T11:27:51Z</time>
      </trkpt>
      <trkpt lat="46.00599" lon="6.55434">
        <ele>1549.3</ele>
        <time>2011-03-05T11:27:52Z</time>
      </trkpt>
      <trkpt lat="46.00591" lon="6.55428">
        <ele>1545.94</ele>
        <time>2011-03-05T11:27:54Z</time>
      </trkpt>
      <trkpt lat="46.0059" lon="6.55429">
        <ele>1544.5</ele>
        <time>2011-03-05T11:27:55Z</time>
      </trkpt>
      <trkpt lat="46.0059" lon="6.55429">
        <ele>1543.53</ele>
        <time>2011-03-05T11:27:56Z</time>
      </trkpt>
      <trkpt lat="46.00592" lon="6.55428">
        <ele>1537.77</ele>
        <time>2011-03-05T11:28:03Z</time>
      </trkpt>
      <trkpt lat="46.00594" lon="6.55428">
        <ele>1537.29</ele>
        <time>2011-03-05T11:28:04Z</time>
      </trkpt>
      <trkpt lat="46.00595" lon="6.55428">
        <ele>1537.29</ele>
        <time>2011-03-05T11:28:05Z</time>
      </trkpt>
      <trkpt lat="46.00597" lon="6.55429">
        <ele>1535.84</ele>
        <time>2011-03-05T11:28:07Z</time>
      </trkpt>
      <trkpt lat="46.00598" lon="6.55429">
        <ele>1535.36</ele>
        <time>2011-03-05T11:28:09Z</time>
      </trkpt>
      <trkpt lat="46.006" lon="6.5543">
        <ele>1534.4</ele>
        <time>2011-03-05T11:28:10Z</time>
      </trkpt>
      <trkpt lat="46.00602" lon="6.55432">
        <ele>1532.96</ele>
        <time>2011-03-05T11:28:13Z</time>
      </trkpt>
      <trkpt lat="46.00605" lon="6.55433">
        <ele>1531.04</ele>
        <time>2011-03-05T11:28:18Z</time>
      </trkpt>
      <trkpt lat="46.00609" lon="6.55436">
        <ele>1529.59</ele>
        <time>2011-03-05T11:28:27Z</time>
      </trkpt>
      <trkpt lat="46.00611" lon="6.55435">
        <ele>1528.63</ele>
        <time>2011-03-05T11:28:32Z</time>
      </trkpt>
      <trkpt lat="46.00627" lon="6.55439">
        <ele>1525.27</ele>
        <time>2011-03-05T11:28:40Z</time>
      </trkpt>
      <trkpt lat="46.00636" lon="6.55441">
        <ele>1522.87</ele>
        <time>2011-03-05T11:28:44Z</time>
      </trkpt>
      <trkpt lat="46.00652" lon="6.5545">
        <ele>1520.46</ele>
        <time>2011-03-05T11:28:49Z</time>
      </trkpt>
      <trkpt lat="46.00654" lon="6.55454">
        <ele>1519.98</ele>
        <time>2011-03-05T11:28:50Z</time>
      </trkpt>
      <trkpt lat="46.00655" lon="6.55458">
        <ele>1519.98</ele>
        <time>2011-03-05T11:28:51Z</time>
      </trkpt>
      <trkpt lat="46.00655" lon="6.55462">
        <ele>1519.02</ele>
        <time>2011-03-05T11:28:53Z</time>
      </trkpt>
      <trkpt lat="46.00655" lon="6.55464">
        <ele>1518.54</ele>
        <time>2011-03-05T11:28:55Z</time>
      </trkpt>
      <trkpt lat="46.00656" lon="6.55466">
        <ele>1518.06</ele>
        <time>2011-03-05T11:28:56Z</time>
      </trkpt>
      <trkpt lat="46.00657" lon="6.55469">
        <ele>1518.06</ele>
        <time>2011-03-05T11:28:57Z</time>
      </trkpt>
      <trkpt lat="46.00658" lon="6.55474">
        <ele>1518.06</ele>
        <time>2011-03-05T11:28:58Z</time>
      </trkpt>
      <trkpt lat="46.00659" lon="6.55479">
        <ele>1518.06</ele>
        <time>2011-03-05T11:28:59Z</time>
      </trkpt>
      <trkpt lat="46.0066" lon="6.55485">
        <ele>1517.58</ele>
        <time>2011-03-05T11:29:00Z</time>
      </trkpt>
      <trkpt lat="46.00662" lon="6.5549">
        <ele>1517.1</ele>
        <time>2011-03-05T11:29:01Z</time>
      </trkpt>
      <trkpt lat="46.00663" lon="6.55496">
        <ele>1516.62</ele>
        <time>2011-03-05T11:29:02Z</time>
      </trkpt>
      <trkpt lat="46.0067" lon="6.55526">
        <ele>1511.81</ele>
        <time>2011-03-05T11:29:12Z</time>
      </trkpt>
      <trkpt lat="46.00676" lon="6.55547">
        <ele>1506.52</ele>
        <time>2011-03-05T11:29:21Z</time>
      </trkpt>
      <trkpt lat="46.00674" lon="6.55547">
        <ele>1505.08</ele>
        <time>2011-03-05T11:29:23Z</time>
      </trkpt>
      <trkpt lat="46.00672" lon="6.55543">
        <ele>1506.04</ele>
        <time>2011-03-05T11:29:38Z</time>
      </trkpt>
      <trkpt lat="46.00674" lon="6.55539">
        <ele>1507.97</ele>
        <time>2011-03-05T11:29:48Z</time>
      </trkpt>
      <trkpt lat="46.00675" lon="6.5554">
        <ele>1507.97</ele>
        <time>2011-03-05T11:29:49Z</time>
      </trkpt>
      <trkpt lat="46.0069" lon="6.55567">
        <ele>1506.04</ele>
        <time>2011-03-05T11:29:58Z</time>
      </trkpt>
      <trkpt lat="46.00694" lon="6.55571">
        <ele>1505.56</ele>
        <time>2011-03-05T11:30:00Z</time>
      </trkpt>
      <trkpt lat="46.00702" lon="6.55569">
        <ele>1502.68</ele>
        <time>2011-03-05T11:30:10Z</time>
      </trkpt>
      <trkpt lat="46.00707" lon="6.55569">
        <ele>1502.2</ele>
        <time>2011-03-05T11:30:14Z</time>
      </trkpt>
      <trkpt lat="46.00728" lon="6.55564">
        <ele>1495.95</ele>
        <time>2011-03-05T11:30:22Z</time>
      </trkpt>
      <trkpt lat="46.00742" lon="6.55589">
        <ele>1490.18</ele>
        <time>2011-03-05T11:30:32Z</time>
      </trkpt>
      <trkpt lat="46.0075" lon="6.55629">
        <ele>1482.97</ele>
        <time>2011-03-05T11:30:42Z</time>
      </trkpt>
      <trkpt lat="46.00747" lon="6.55615">
        <ele>1481.53</ele>
        <time>2011-03-05T11:30:45Z</time>
      </trkpt>
      <trkpt lat="46.00753" lon="6.55571">
        <ele>1477.68</ele>
        <time>2011-03-05T11:30:54Z</time>
      </trkpt>
      <trkpt lat="46.0076" lon="6.55579">
        <ele>1476.24</ele>
        <time>2011-03-05T11:30:58Z</time>
      </trkpt>
      <trkpt lat="46.00775" lon="6.55619">
        <ele>1470.47</ele>
        <time>2011-03-05T11:31:08Z</time>
      </trkpt>
      <trkpt lat="46.00784" lon="6.55612">
        <ele>1463.26</ele>
        <time>2011-03-05T11:31:17Z</time>
      </trkpt>
      <trkpt lat="46.00793" lon="6.55552">
        <ele>1457.5</ele>
        <time>2011-03-05T11:31:27Z</time>
      </trkpt>
      <trkpt lat="46.008" lon="6.55556">
        <ele>1456.53</ele>
        <time>2011-03-05T11:31:33Z</time>
      </trkpt>
      <trkpt lat="46.00816" lon="6.5561">
        <ele>1452.69</ele>
        <time>2011-03-05T11:31:44Z</time>
      </trkpt>
      <trkpt lat="46.00829" lon="6.55648">
        <ele>1444.04</ele>
        <time>2011-03-05T11:31:52Z</time>
      </trkpt>
      <trkpt lat="46.00837" lon="6.55636">
        <ele>1441.63</ele>
        <time>2011-03-05T11:31:56Z</time>
      </trkpt>
      <trkpt lat="46.00843" lon="6.55599">
        <ele>1436.35</ele>
        <time>2011-03-05T11:32:04Z</time>
      </trkpt>
      <trkpt lat="46.00858" lon="6.55542">
        <ele>1430.1</ele>
        <time>2011-03-05T11:32:14Z</time>
      </trkpt>
      <trkpt lat="46.00859" lon="6.55545">
        <ele>1427.21</ele>
        <time>2011-03-05T11:32:17Z</time>
      </trkpt>
      <trkpt lat="46.00859" lon="6.5555">
        <ele>1423.37</ele>
        <time>2011-03-05T11:32:20Z</time>
      </trkpt>
      <trkpt lat="46.00865" lon="6.55579">
        <ele>1420</ele>
        <time>2011-03-05T11:32:30Z</time>
      </trkpt>
      <trkpt lat="46.00871" lon="6.55619">
        <ele>1417.12</ele>
        <time>2011-03-05T11:32:41Z</time>
      </trkpt>
      <trkpt lat="46.00881" lon="6.55672">
        <ele>1410.87</ele>
        <time>2011-03-05T11:32:52Z</time>
      </trkpt>
      <trkpt lat="46.00883" lon="6.5568">
        <ele>1407.03</ele>
        <time>2011-03-05T11:33:02Z</time>
      </trkpt>
      <trkpt lat="46.00898" lon="6.55629">
        <ele>1407.03</ele>
        <time>2011-03-05T11:33:11Z</time>
      </trkpt>
      <trkpt lat="46.00911" lon="6.55608">
        <ele>1407.51</ele>
        <time>2011-03-05T11:33:16Z</time>
      </trkpt>
      <trkpt lat="46.00932" lon="6.55629">
        <ele>1407.03</ele>
        <time>2011-03-05T11:33:26Z</time>
      </trkpt>
      <trkpt lat="46.00947" lon="6.5566">
        <ele>1407.03</ele>
        <time>2011-03-05T11:33:36Z</time>
      </trkpt>
      <trkpt lat="46.00952" lon="6.55665">
        <ele>1406.07</ele>
        <time>2011-03-05T11:33:42Z</time>
      </trkpt>
      <trkpt lat="46.0096" lon="6.55665">
        <ele>1403.18</ele>
        <time>2011-03-05T11:33:49Z</time>
      </trkpt>
      <trkpt lat="46.00967" lon="6.5567">
        <ele>1400.78</ele>
        <time>2011-03-05T11:33:54Z</time>
      </trkpt>
      <trkpt lat="46.0099" lon="6.55685">
        <ele>1396.45</ele>
        <time>2011-03-05T11:34:04Z</time>
      </trkpt>
      <trkpt lat="46.00983" lon="6.55723">
        <ele>1394.53</ele>
        <time>2011-03-05T11:34:15Z</time>
      </trkpt>
      <trkpt lat="46.00985" lon="6.55782">
        <ele>1385.88</ele>
        <time>2011-03-05T11:34:26Z</time>
      </trkpt>
      <trkpt lat="46.01025" lon="6.55825">
        <ele>1375.3</ele>
        <time>2011-03-05T11:34:34Z</time>
      </trkpt>
      <trkpt lat="46.0104" lon="6.55835">
        <ele>1373.38</ele>
        <time>2011-03-05T11:34:36Z</time>
      </trkpt>
      <trkpt lat="46.01048" lon="6.55842">
        <ele>1371.94</ele>
        <time>2011-03-05T11:34:37Z</time>
      </trkpt>
      <trkpt lat="46.01071" lon="6.55868">
        <ele>1365.21</ele>
        <time>2011-03-05T11:34:41Z</time>
      </trkpt>
      <trkpt lat="46.01078" lon="6.55881">
        <ele>1361.84</ele>
        <time>2011-03-05T11:34:43Z</time>
      </trkpt>
      <trkpt lat="46.01083" lon="6.55886">
        <ele>1360.4</ele>
        <time>2011-03-05T11:34:44Z</time>
      </trkpt>
      <trkpt lat="46.01113" lon="6.55913">
        <ele>1354.63</ele>
        <time>2011-03-05T11:34:49Z</time>
      </trkpt>
      <trkpt lat="46.01118" lon="6.5592">
        <ele>1353.19</ele>
        <time>2011-03-05T11:34:50Z</time>
      </trkpt>
      <trkpt lat="46.01122" lon="6.55927">
        <ele>1352.23</ele>
        <time>2011-03-05T11:34:51Z</time>
      </trkpt>
      <trkpt lat="46.01124" lon="6.55935">
        <ele>1350.79</ele>
        <time>2011-03-05T11:34:52Z</time>
      </trkpt>
      <trkpt lat="46.01126" lon="6.5594">
        <ele>1349.35</ele>
        <time>2011-03-05T11:34:53Z</time>
      </trkpt>
      <trkpt lat="46.01128" lon="6.55944">
        <ele>1346.94</ele>
        <time>2011-03-05T11:34:54Z</time>
      </trkpt>
      <trkpt lat="46.01128" lon="6.55945">
        <ele>1345.5</ele>
        <time>2011-03-05T11:34:55Z</time>
      </trkpt>
      <trkpt lat="46.01128" lon="6.55943">
        <ele>1344.06</ele>
        <time>2011-03-05T11:34:56Z</time>
      </trkpt>
      <trkpt lat="46.01125" lon="6.55918">
        <ele>1333.97</ele>
        <time>2011-03-05T11:35:03Z</time>
      </trkpt>
      <trkpt lat="46.01133" lon="6.55872">
        <ele>1324.35</ele>
        <time>2011-03-05T11:35:12Z</time>
      </trkpt>
      <trkpt lat="46.01133" lon="6.55869">
        <ele>1323.39</ele>
        <time>2011-03-05T11:35:13Z</time>
      </trkpt>
      <trkpt lat="46.01133" lon="6.55866">
        <ele>1319.55</ele>
        <time>2011-03-05T11:35:22Z</time>
      </trkpt>
      <trkpt lat="46.01132" lon="6.55866">
        <ele>1318.1</ele>
        <time>2011-03-05T11:35:34Z</time>
      </trkpt>
      <trkpt lat="46.01132" lon="6.55866">
        <ele>1318.1</ele>
        <time>2011-03-05T11:35:49Z</time>
      </trkpt>
      <trkpt lat="46.01132" lon="6.55866">
        <ele>1318.1</ele>
        <time>2011-03-05T11:36:09Z</time>
      </trkpt>
      <trkpt lat="46.01135" lon="6.55864">
        <ele>1317.62</ele>
        <time>2011-03-05T11:36:21Z</time>
      </trkpt>
      <trkpt lat="46.01155" lon="6.55848">
        <ele>1315.22</ele>
        <time>2011-03-05T11:36:29Z</time>
      </trkpt>
      <trkpt lat="46.0116" lon="6.55842">
        <ele>1314.26</ele>
        <time>2011-03-05T11:36:34Z</time>
      </trkpt>
      <trkpt lat="46.01164" lon="6.55837">
        <ele>1313.78</ele>
        <time>2011-03-05T11:36:37Z</time>
      </trkpt>
      <trkpt lat="46.01176" lon="6.55828">
        <ele>1313.78</ele>
        <time>2011-03-05T11:36:41Z</time>
      </trkpt>
      <trkpt lat="46.01195" lon="6.55823">
        <ele>1312.34</ele>
        <time>2011-03-05T11:36:52Z</time>
      </trkpt>
      <trkpt lat="46.01211" lon="6.55854">
        <ele>1311.38</ele>
        <time>2011-03-05T11:37:06Z</time>
      </trkpt>
      <trkpt lat="46.01215" lon="6.55883">
        <ele>1309.45</ele>
        <time>2011-03-05T11:37:17Z</time>
      </trkpt>
      <trkpt lat="46.01221" lon="6.55933">
        <ele>1307.05</ele>
        <time>2011-03-05T11:37:26Z</time>
      </trkpt>
      <trkpt lat="46.0123" lon="6.55964">
        <ele>1303.69</ele>
        <time>2011-03-05T11:37:31Z</time>
      </trkpt>
      <trkpt lat="46.01232" lon="6.5597">
        <ele>1303.2</ele>
        <time>2011-03-05T11:37:32Z</time>
      </trkpt>
      <trkpt lat="46.01235" lon="6.55975">
        <ele>1302.72</ele>
        <time>2011-03-05T11:37:33Z</time>
      </trkpt>
      <trkpt lat="46.01243" lon="6.55986">
        <ele>1302.24</ele>
        <time>2011-03-05T11:37:35Z</time>
      </trkpt>
      <trkpt lat="46.0125" lon="6.55989">
        <ele>1301.76</ele>
        <time>2011-03-05T11:37:36Z</time>
      </trkpt>
      <trkpt lat="46.01265" lon="6.55994">
        <ele>1301.28</ele>
        <time>2011-03-05T11:37:38Z</time>
      </trkpt>
      <trkpt lat="46.01277" lon="6.56001">
        <ele>1300.8</ele>
        <time>2011-03-05T11:37:40Z</time>
      </trkpt>
      <trkpt lat="46.01297" lon="6.56016">
        <ele>1298.88</ele>
        <time>2011-03-05T11:37:46Z</time>
      </trkpt>
      <trkpt lat="46.01319" lon="6.56033">
        <ele>1298.4</ele>
        <time>2011-03-05T11:37:56Z</time>
      </trkpt>
      <trkpt lat="46.01335" lon="6.5605">
        <ele>1299.36</ele>
        <time>2011-03-05T11:38:05Z</time>
      </trkpt>
      <trkpt lat="46.0135" lon="6.5605">
        <ele>1302.72</ele>
        <time>2011-03-05T11:38:13Z</time>
      </trkpt>
      <trkpt lat="46.01366" lon="6.56048">
        <ele>1305.61</ele>
        <time>2011-03-05T11:38:24Z</time>
      </trkpt>
      <trkpt lat="46.01378" lon="6.56049">
        <ele>1307.05</ele>
        <time>2011-03-05T11:38:36Z</time>
      </trkpt>
      <trkpt lat="46.01384" lon="6.56051">
        <ele>1307.05</ele>
        <time>2011-03-05T11:38:45Z</time>
      </trkpt>
      <trkpt lat="46.01387" lon="6.56052">
        <ele>1306.57</ele>
        <time>2011-03-05T11:38:48Z</time>
      </trkpt>
      <trkpt lat="46.01388" lon="6.56053">
        <ele>1306.57</ele>
        <time>2011-03-05T11:38:49Z</time>
      </trkpt>
      <trkpt lat="46.01389" lon="6.56053">
        <ele>1306.57</ele>
        <time>2011-03-05T11:38:50Z</time>
      </trkpt>
      <trkpt lat="46.0139" lon="6.56054">
        <ele>1306.57</ele>
        <time>2011-03-05T11:38:51Z</time>
      </trkpt>
      <trkpt lat="46.01391" lon="6.56055">
        <ele>1306.57</ele>
        <time>2011-03-05T11:38:52Z</time>
      </trkpt>
      <trkpt lat="46.01392" lon="6.56056">
        <ele>1306.57</ele>
        <time>2011-03-05T11:38:53Z</time>
      </trkpt>
      <trkpt lat="46.01393" lon="6.56056">
        <ele>1306.57</ele>
        <time>2011-03-05T11:38:54Z</time>
      </trkpt>
      <trkpt lat="46.01394" lon="6.56057">
        <ele>1306.57</ele>
        <time>2011-03-05T11:38:55Z</time>
      </trkpt>
      <trkpt lat="46.01402" lon="6.56072">
        <ele>1308.01</ele>
        <time>2011-03-05T11:39:06Z</time>
      </trkpt>
      <trkpt lat="46.01411" lon="6.56084">
        <ele>1310.41</ele>
        <time>2011-03-05T11:39:17Z</time>
      </trkpt>
      <trkpt lat="46.01411" lon="6.56085">
        <ele>1310.9</ele>
        <time>2011-03-05T11:39:18Z</time>
      </trkpt>
      <trkpt lat="46.01423" lon="6.56092">
        <ele>1312.34</ele>
        <time>2011-03-05T11:39:30Z</time>
      </trkpt>
      <trkpt lat="46.01426" lon="6.56093">
        <ele>1313.78</ele>
        <time>2011-03-05T11:39:34Z</time>
      </trkpt>
      <trkpt lat="46.0144" lon="6.56091">
        <ele>1314.74</ele>
        <time>2011-03-05T11:39:43Z</time>
      </trkpt>
      <trkpt lat="46.01442" lon="6.56092">
        <ele>1314.74</ele>
        <time>2011-03-05T11:39:45Z</time>
      </trkpt>
      <trkpt lat="46.01443" lon="6.56093">
        <ele>1314.74</ele>
        <time>2011-03-05T11:39:46Z</time>
      </trkpt>
      <trkpt lat="46.01453" lon="6.56105">
        <ele>1312.82</ele>
        <time>2011-03-05T11:39:57Z</time>
      </trkpt>
      <trkpt lat="46.0146" lon="6.56106">
        <ele>1314.74</ele>
        <time>2011-03-05T11:40:02Z</time>
      </trkpt>
      <trkpt lat="46.0147" lon="6.56104">
        <ele>1318.1</ele>
        <time>2011-03-05T11:40:15Z</time>
      </trkpt>
      <trkpt lat="46.01473" lon="6.56103">
        <ele>1320.03</ele>
        <time>2011-03-05T11:40:17Z</time>
      </trkpt>
      <trkpt lat="46.01473" lon="6.56102">
        <ele>1320.03</ele>
        <time>2011-03-05T11:40:24Z</time>
      </trkpt>
      <trkpt lat="46.01483" lon="6.561">
        <ele>1318.1</ele>
        <time>2011-03-05T11:40:32Z</time>
      </trkpt>
      <trkpt lat="46.01501" lon="6.56099">
        <ele>1316.18</ele>
        <time>2011-03-05T11:40:48Z</time>
      </trkpt>
      <trkpt lat="46.01511" lon="6.561">
        <ele>1314.74</ele>
        <time>2011-03-05T11:40:59Z</time>
      </trkpt>
      <trkpt lat="46.01519" lon="6.56105">
        <ele>1314.26</ele>
        <time>2011-03-05T11:41:10Z</time>
      </trkpt>
      <trkpt lat="46.01529" lon="6.56112">
        <ele>1314.74</ele>
        <time>2011-03-05T11:41:20Z</time>
      </trkpt>
      <trkpt lat="46.01535" lon="6.56114">
        <ele>1314.74</ele>
        <time>2011-03-05T11:41:25Z</time>
      </trkpt>
      <trkpt lat="46.01558" lon="6.56109">
        <ele>1315.7</ele>
        <time>2011-03-05T11:41:38Z</time>
      </trkpt>
      <trkpt lat="46.01584" lon="6.56105">
        <ele>1314.74</ele>
        <time>2011-03-05T11:41:50Z</time>
      </trkpt>
      <trkpt lat="46.01599" lon="6.56107">
        <ele>1312.82</ele>
        <time>2011-03-05T11:41:57Z</time>
      </trkpt>
      <trkpt lat="46.01631" lon="6.56109">
        <ele>1306.57</ele>
        <time>2011-03-05T11:42:10Z</time>
      </trkpt>
      <trkpt lat="46.01636" lon="6.5611">
        <ele>1303.2</ele>
        <time>2011-03-05T11:42:13Z</time>
      </trkpt>
      <trkpt lat="46.01637" lon="6.56109">
        <ele>1301.28</ele>
        <time>2011-03-05T11:42:27Z</time>
      </trkpt>
      <trkpt lat="46.01637" lon="6.56109">
        <ele>1298.88</ele>
        <time>2011-03-05T11:42:37Z</time>
      </trkpt>
      <trkpt lat="46.01638" lon="6.56109">
        <ele>1295.99</ele>
        <time>2011-03-05T11:42:42Z</time>
      </trkpt>
      <trkpt lat="46.01645" lon="6.56109">
        <ele>1293.11</ele>
        <time>2011-03-05T11:42:52Z</time>
      </trkpt>
      <trkpt lat="46.01645" lon="6.56111">
        <ele>1292.63</ele>
        <time>2011-03-05T11:43:03Z</time>
      </trkpt>
      <trkpt lat="46.01645" lon="6.56111">
        <ele>1292.63</ele>
        <time>2011-03-05T11:43:19Z</time>
      </trkpt>
      <trkpt lat="46.01646" lon="6.56111">
        <ele>1292.63</ele>
        <time>2011-03-05T11:43:32Z</time>
      </trkpt>
      <trkpt lat="46.01646" lon="6.5611">
        <ele>1292.15</ele>
        <time>2011-03-05T11:43:35Z</time>
      </trkpt>
      <trkpt lat="46.01648" lon="6.56108">
        <ele>1292.15</ele>
        <time>2011-03-05T11:43:45Z</time>
      </trkpt>
      <trkpt lat="46.01649" lon="6.56108">
        <ele>1292.15</ele>
        <time>2011-03-05T11:43:46Z</time>
      </trkpt>
      <trkpt lat="46.01651" lon="6.56108">
        <ele>1291.67</ele>
        <time>2011-03-05T11:43:57Z</time>
      </trkpt>
      <trkpt lat="46.01651" lon="6.56108">
        <ele>1291.67</ele>
        <time>2011-03-05T11:44:08Z</time>
      </trkpt>
      <trkpt lat="46.01651" lon="6.56108">
        <ele>1291.19</ele>
        <time>2011-03-05T11:44:35Z</time>
      </trkpt>
      <trkpt lat="46.01651" lon="6.56108">
        <ele>1291.19</ele>
        <time>2011-03-05T11:45:01Z</time>
      </trkpt>
      <trkpt lat="46.01651" lon="6.56108">
        <ele>1291.19</ele>
        <time>2011-03-05T11:45:27Z</time>
      </trkpt>
      <trkpt lat="46.01651" lon="6.56108">
        <ele>1291.19</ele>
        <time>2011-03-05T11:45:58Z</time>
      </trkpt>
      <trkpt lat="46.01651" lon="6.56108">
        <ele>1291.19</ele>
        <time>2011-03-05T11:46:23Z</time>
      </trkpt>
      <trkpt lat="46.01651" lon="6.56107">
        <ele>1290.71</ele>
        <time>2011-03-05T11:46:30Z</time>
      </trkpt>
      <trkpt lat="46.0165" lon="6.56106">
        <ele>1290.23</ele>
        <time>2011-03-05T11:46:53Z</time>
      </trkpt>
      <trkpt lat="46.0165" lon="6.56106">
        <ele>1290.23</ele>
        <time>2011-03-05T11:47:15Z</time>
      </trkpt>
    </trkseg>
  </trk>
</gpx>